     2.10           OBSERVATION DATA    G (GPS)             RINEX VERSION / TYPE
teqc 2000Feb29 simon 20011212 22:17:04UTC                   PGM / RUN BY / DATE
Linux 2.0.36|Pentium II|gcc|Linux|486/DX+                   COMMENT
BIT 2 OF LLI FLAGS DATA COLLECTED UNDER A/S CONDITION       COMMENT
GS45                                                        MARKER NAME
gs45                                                        MARKER NUMBER
LCS -Unknown-                                               OBSERVER / AGENCY
489 ASHTECH Z-XII3 4J30                                     REC # / TYPE / VERS
110 ASH701933_M                                             ANT # / TYPE
 -2390515.0000 -4580995.0000  3729377.0000                  APPROX POSITION XYZ
        1.3201        0.0000        0.0000                  ANTENNA: DELTA H/E/N
     1     1                                                WAVELENGTH FACT L1/2
     7    L1    L2    C1    P1    P2    S1    S2            # / TYPES OF OBSERV
    30.0000                                                 INTERVAL
SNR is mapped to RINEX snr flag value [1-9]                 COMMENT
L1: 1 -> 1; 90 -> 5; 210 -> 9                               COMMENT
L2: 1 -> 1; 150 -> 5; 250 -> 9                              COMMENT
Original height was 1.3950                                  COMMENT
New height found assuming measured height 1.3950            COMMENT
and assuming radial 0.1737 vertical -0.0640                 COMMENT
  2001    11    12    16     3   30.0000000     GPS         TIME OF FIRST OBS
                                                            END OF HEADER
 01 11 12 16  3 30.0000000  0  7G14G25G22G20G 1G29G11
      2390.74953                  21683906.283
       210.000          74.000
     21589.45559     12898.91657  18188196.033    18188197.969    18188205.976
       244.000         212.000
    -84291.26959    -41850.03556  19398280.829    19398281.343    19398292.441
       227.000         179.000
    -75107.23159    -43519.41557  17964795.335    17964796.768    17964804.781
       239.000         205.000
    -69884.07759    -43005.05857  19484244.173    19484244.924    19484254.821
       235.000         192.000
     22734.03159     13804.76357  19228434.471    19228434.033    19228443.584
       232.000         192.000
     42676.04459     28403.95857  19436115.789    19436117.536    19436126.173
       236.000         190.000
 01 11 12 16  4  0.0000000  0  7G14G25G22G20G 1G29G11
     40960.90154                  21693327.738
       198.000         116.000
     46887.89649     32611.87547  18193011.308    18193012.133    18193020.086
       239.000         203.000
   -200156.80159   -132134.78646  19376233.531    19376233.670    19376245.474
       220.000         176.000
   -158969.07449   -108866.37048  17948838.125    17948838.551    17948846.552
       242.000         213.000
   -152972.54049   -107749.33347  19468433.588    19468433.881    19468443.602
       237.000         192.000
     49587.97349     34729.71446  19233544.157    19233544.125    19233553.767
       229.000         185.000
     85227.68049     61560.93347  19444214.078    19444214.948    19444223.581
       237.000         188.000
 01 11 12 16  4 29.9990000  0  7G14G25G22G20G 1G29G11
     79591.42943                  24400894.718
       207.000          77.000
     72602.74149     52649.27347  20896037.146    20896037.684    20896045.580
       243.000         212.000
   -315622.48349   -222107.93846  22052393.301    22052393.166    22052405.177
       223.000         182.000
   -242356.36049   -173843.49047  20631102.497    20631102.603    20631110.645
       239.000         206.000
   -235831.44049   -172314.76847  22150798.482    22150798.576    22150808.148
       235.000         192.000
     76614.95649     55789.54547  21936819.390    21936819.477    21936829.067
       232.000         193.000
    128170.98049     95023.06147  22150518.503    22150519.077    22150527.505
       237.000         190.000
 01 11 12 16  4 59.9990000  0  7G14G25G22G20G 1G29G11
                                  24410348.062
       210.000
     98739.37549     73015.35647  20901010.938    20901011.367    20901019.233
       243.000         212.000
   -430771.47249   -311834.33346  22030481.144    22030480.898    22030493.044
       227.000         182.000
   -325332.31449   -238500.11247  20615312.810    20615312.759    20615320.829
       238.000         206.000
   -318525.91149   -236752.05347  22135062.330    22135062.369    22135071.930
       235.000         193.000
    103823.06349     76990.49947  21941997.001    21941997.104    21942006.714
       232.000         193.000
    171522.19849    128803.06747  22158768.244    22158768.651    22158776.952
       236.000         190.000
 01 11 12 16  5 29.9990000  0  7G14G25G22G20G 1G29G11
     38548.66545                  24419811.181
       209.000         136.000
    125255.17649     93676.89047  20906056.868    20906057.195    20906065.032
       243.000         211.000
   -545594.14249   -401306.49546  22008631.270    22008630.868    22008642.913
       224.000         181.000
   -407899.03049   -302837.84847  20599600.942    20599600.822    20599608.880
       239.000         206.000
   -401060.63049   -301064.86947  22119356.555    22119356.548    22119366.065
       235.000         192.000
    131171.10349     98300.47747  21947201.232    21947201.338    21947211.001
       231.000         193.000
    215231.82049    162862.34847  22167086.094    22167086.377    22167094.649
       237.000         190.000
 01 11 12 16  5 59.9990000  0  7G14G25G22G20G 1G29G11
     77345.78945                  24429286.527
       207.000         149.000
    152161.01949    114642.35647  20911177.027    20911177.278    20911185.098
       244.000         212.000
   -660074.10549   -490511.57346  21986846.488    21986846.025    21986857.999
       228.000         182.000
   -490041.04249   -366844.65247  20583969.898    20583969.721    20583977.734
       239.000         206.000
   -483422.49549   -365242.98347  22103683.628    22103683.602    22103693.136
       234.000         192.000
    158672.18649    119729.71447  21952434.576    21952434.681    21952444.378
       231.000         193.000
    259310.39649    197209.13547  22175474.182    22175474.336    22175482.517
       237.000         189.000
 01 11 12 16  6 29.9990000  0  7G14G25G22G20G 1G29G11
    316405.27949    116181.07045  24438771.229    24438772.774    24438787.758
       203.000         145.000
    179439.44849    135898.15547  20916368.108    20916368.257    20916376.072
       244.000         212.000
   -774223.36149   -579459.01446  21965124.772    21965124.173    21965136.015
       227.000         182.000
   -571771.97249   -430531.13047  20568417.086    20568416.860    20568424.851
       239.000         206.000
   -565627.34549   -429298.75247  22088040.558    22088040.505    22088050.076
       233.000         191.000
    186310.91949    141266.20447  21957694.121    21957694.248    21957703.937
       231.000         193.000
    303739.44949    231829.01947  22183928.885    22183928.960    22183937.107
       236.000         190.000
 01 11 12 16  6 59.9980000  0  7G14G25G22G20G 1G29G11
    366280.35149    155044.31255  24448262.554    24448262.707    24448279.909
       201.000         143.000
    207076.19049    157433.15747  20921627.345    20921627.423    20921635.256
       244.000         212.000
   -888046.14149   -668152.02746  21943464.919    21943464.383    21943476.164
       227.000         183.000
   -653097.90449   -493902.02647  20552941.362    20552941.065    20552949.082
       239.000         207.000
   -647683.70249   -493238.80547  22072425.733    22072425.664    22072435.254
       234.000         191.000
    214074.84449    162900.24847  21962977.429    21962977.637    21962987.307
       232.000         192.000
    348503.39049    266709.85747  22192447.305    22192447.325    22192455.486
       235.000         189.000
 01 11 12 16  7 29.9980000  0  7G14G25G22G20G 1G29G11
    416186.91759    193932.12745  24457759.636    24457759.945    24457777.082
       201.000         143.000
    235063.40949    179241.26347  20926953.258    20926953.280    20926961.119
       244.000         211.000
  -1001554.30749   -756599.94446  21921865.053    21921864.489    21921876.264
       230.000         183.000
   -734029.94049   -556965.99347  20537540.552    20537540.239    20537548.277
       238.000         206.000
   -729605.01649   -557073.62547  22056836.667    22056836.559    22056846.182
       235.000         193.000
    241958.10349    184627.27647  21968283.634    21968283.748    21968293.407
       231.000         193.000
    393594.83249    301845.87047  22201028.044    22201028.007    22201036.225
       236.000         190.000
 01 11 12 16  7 59.9980000  0  7G14G25G22G20G 1G29G11
    466105.92649    232829.60845  24467259.177    24467259.401    24467276.560
       202.000         148.000
    263380.36649    201306.31647  20932341.917    20932341.892    20932349.730
       244.000         212.000
  -1114758.30749   -844810.81446  21900323.026    21900322.489    21900334.245
       228.000         185.000
   -814580.48649   -619732.69347  20522212.317    20522211.986    20522220.026
       238.000         207.000
   -811406.03749   -620814.70647  22041270.646    22041270.414    22041280.021
       236.000         194.000
    269942.41749    206433.05647  21973609.001    21973609.065    21973618.723
       230.000         191.000
    438991.78749    337219.96247  22209666.986    22209666.843    22209675.098
       236.000         190.000
 01 11 12 16  8 29.9980000  0  7G14G25G22G20G 1G29G11
    516005.78249    271712.17945  24476755.199    24476755.341    24476772.287
       206.000         153.000
    291993.84249    223602.41747  20937786.971    20937786.907    20937794.762
       243.000         212.000
  -1227686.27549   -932806.60446  21878833.556    21878832.999    21878844.751
       230.000         186.000
   -894778.98549   -682225.07047  20506951.106    20506950.746    20506958.769
       239.000         207.000
   -893118.42049   -684486.72447  22025721.403    22025721.132    22025730.712
       236.000         194.000
    297996.12049    228292.90547  21978947.647    21978947.595    21978957.273
       230.000         191.000
    484659.76349    372805.23047  22218357.367    22218357.235    22218365.550
       234.000         189.000
 01 11 12 16  8 59.9980000  0  7G14G25G22G20G 1G29G11
    565881.87249    310576.21845  24486246.806    24486246.775    24486263.675
       207.000         152.000
    320897.05949    246124.29747  20943287.139    20943287.054    20943294.941
       243.000         211.000
  -1340339.38349  -1020588.24346  21857396.390    21857395.834    21857407.581
       232.000         186.000
   -974627.76049   -744444.92647  20491756.418    20491756.045    20491764.067
       238.000         207.000
   -974746.77849   -748093.27947  22010188.098    22010187.811    22010197.340
       236.000         193.000
    326114.56949    250203.17647  21984298.693    21984298.464    21984308.166
       230.000         191.000
    530591.45049    408595.98747  22227097.927    22227097.813    22227106.155
       235.000         189.000
 01 11 12 16  9 29.9980000  0  7G14G25G22G20G 1G29G11
    615732.11949    349420.12745  24495733.395    24495733.283    24495750.093
       204.000         151.000
    350085.72049    268868.60147  20948841.593    20948841.527    20948849.388
       242.000         211.000
  -1452716.34749  -1108154.67846  21836011.777    21836011.199    21836022.930
       228.000         184.000
  -1054126.77049   -806392.23847  20476628.335    20476627.916    20476635.933
       239.000         208.000
  -1056293.22249   -811635.99447  21994670.308    21994670.062    21994679.569
       235.000         194.000
    354295.86549    272162.44547  21989661.519    21989661.302    21989671.022
       230.000         191.000
    576782.02249    444588.46647  22235887.851    22235887.689    22235896.045
       235.000         188.000
 01 11 12 16  9 59.9980000  0  7G14G25G22G20G 1G29G11
    665319.23259    388058.98755  24505169.787    24505169.491    24505186.288
       198.000         137.000
    379320.49449    291648.84747  20954404.880    20954404.799    20954412.614
       243.000         211.000
  -1565051.46349  -1195688.50946  21814635.045    21814634.510    21814646.192
       229.000         183.000
  -1133511.26449   -868250.30547  20461522.019    20461521.588    20461529.601
       239.000         208.000
  -1137995.46049   -875300.08747  21979122.910    21979122.642    21979132.175
       236.000         194.000
    382302.45649    293985.57647  21994991.048    21994990.852    21995000.624
       229.000         190.000
    622990.95349    480595.27147  22244681.215    22244681.034    22244689.380
       235.000         188.000
 01 11 12 16 10 29.9980000  0  7G14G25G22G20G 1G29G11
    714748.91349    426575.19145  24514576.189    24514575.828    24514592.592
       200.000         146.000
    408705.78449    314546.38547  20959996.836    20959996.712    20960004.522
       244.000         211.000
  -1677235.32849  -1283104.47946  21793287.211    21793286.605    21793298.230
       227.000         185.000
  -1212673.21849   -929934.96247  20446458.024    20446457.597    20446465.609
       238.000         208.000
  -1219747.74849   -939003.19447  21963566.006    21963565.739    21963575.213
       236.000         194.000
    410240.14449    315755.02147  22000307.536    22000307.333    22000317.166
       229.000         191.000
    669321.26949    516696.65347  22253497.714    22253497.510    22253505.857
       235.000         188.000
 01 11 12 16 10 59.9980000  0  7G14G25G22G20G 1G29G11
    764172.15849    465086.31445  24523981.431    24523980.944    24523997.665
       200.000         142.000
    438389.89549    337676.77147  20965645.629    20965645.497    20965653.278
       243.000         210.000
  -1789113.88349  -1370282.52946  21771997.303    21771996.760    21772008.419
       230.000         184.000
  -1291459.41949   -991326.83047  20431465.552    20431465.114    20431473.114
       239.000         208.000
  -1301399.11649  -1002627.65347  21948028.280    21948028.001    21948037.467
       234.000         193.000
    438259.91649    337588.41147  22005639.790    22005639.446    22005649.326
       232.000         191.000
    715920.94649    553007.92147  22262365.533    22262365.247    22262373.624
       235.000         188.000
 01 11 12 16 11 29.9980000  0  7G14G25G22G20G 1G29G11
    813584.72949    503589.18745  24533384.581    24533384.012    24533400.671
       196.000         139.000
    468366.52149    361035.08847  20971350.086    20971349.935    20971357.696
       243.000         211.000
  -1900687.72549  -1457223.16046  21750765.543    21750764.962    21750776.561
       229.000         184.000
  -1369871.87049  -1052427.46647  20416544.192    20416543.737    20416551.742
       238.000         208.000
  -1382953.87649  -1066176.84247  21932508.845    21932508.642    21932518.132
       234.000         193.000
    466357.60249    359482.52147  22010986.778    22010986.427    22010996.323
       230.000         191.000
    762783.13649    589523.73747  22271283.309    22271282.966    22271291.363
       236.000         190.000
 01 11 12 16 11 59.9980000  0  7G14G25G22G20G 1G29G11
    862996.64749    542091.55945  24542787.320    24542786.821    24542803.694
       200.000         140.000
    498644.04349    384627.86947  20977111.755    20977111.615    20977119.399
       243.000         211.000
  -2011943.69549  -1543916.04146  21729594.142    21729593.635    21729605.185
       227.000         184.000
  -1447898.46849  -1113227.43247  20401696.232    20401695.785    20401703.795
       238.000         208.000
  -1464402.07449  -1129642.99147  21917009.709    21917009.563    21917019.053
       235.000         194.000
    494543.20749    381445.13247  22016350.410    22016350.095    22016360.019
       229.000         190.000
    809915.06649    626249.74647  22280252.376    22280252.016    22280260.442
       235.000         190.000
 01 11 12 16 12 29.9980000  0  7G14G25G22G20G 1G29G11
    912451.45049    580627.33045  24552198.435    24552197.842    24552214.926
       203.000         144.000
    529263.63449    408487.19147  20982938.530    20982938.406    20982946.212
       243.000         211.000
  -2122834.77649  -1630324.67446  21708492.361    21708491.760    21708503.252
       231.000         184.000
  -1525493.61449  -1173691.20647  20386930.372    20386929.946    20386937.952
       240.000         208.000
  -1545700.31249  -1192992.30447  21901539.261    21901539.053    21901548.550
       235.000         194.000
    522860.43649    403510.31447  22021739.168    22021738.827    22021748.795
       231.000         190.000
    857357.15949    663217.42547  22289280.432    22289280.064    22289288.515
       235.000         188.000
 01 11 12 16 12 59.9980000  0  7G14G25G22G20G 1G29G11
    961905.95749    619162.87045  24561609.724    24561608.973    24561626.152
       206.000         147.000
    560180.12949    432577.85847  20988821.848    20988821.698    20988829.515
       243.000         210.000
  -2233401.28549  -1716480.31546  21687452.255    21687451.646    21687463.095
       228.000         184.000
  -1602698.36849  -1233850.78047  20372238.822    20372238.398    20372246.407
       239.000         207.000
  -1626892.00749  -1256258.59947  21886088.998    21886088.815    21886098.344
       236.000         194.000
    551265.65249    425644.04847  22027144.597    22027144.297    22027154.307
       230.000         189.000
    905062.98849    700390.61947  22298358.699    22298358.319    22298366.757
       234.000         188.000
 01 11 12 16 13 29.9980000  0  8G14G25G22G20G 1G29G11G13
   1011358.04449    657696.52245  24571020.525    24571019.699    24571036.911
       209.000         150.000
    591389.03949    456896.38547  20994760.834    20994760.647    20994768.446
       243.000         210.000
  -2343641.79949  -1802381.95846  21666474.326    21666473.578    21666484.957
       231.000         185.000
  -1679512.50249  -1293705.97547  20357621.638    20357621.185    20357629.183
       240.000         207.000
  -1707979.43349  -1319443.64447  21870658.668    21870658.433    21870667.945
       236.000         194.000
    579757.04249    447844.93247  22032566.421    22032566.152    22032576.202
       230.000         188.000
    953027.79249    737765.61046  22307486.114    22307485.799    22307494.289
       233.000         187.000
  -1894707.25659  -1440341.37355  24799407.934    24799408.309    24799417.635
       211.000         137.000
 01 11 12 16 13 59.9980000  0  8G14G25G22G20G 1G29G11G13
   1060815.12449    696234.05545  24580432.376    24580431.429    24580448.630
       209.000         154.000
    622895.71149    481446.93047  21000756.418    21000756.246    21000764.047
       243.000         210.000
  -2453545.91749  -1888021.45146  21645560.201    21645559.493    21645570.835
       230.000         187.000
  -1755926.98049  -1353249.75147  20343080.439    20343080.003    20343088.017
       240.000         207.000
  -1788955.30849  -1382541.76547  21855249.457    21855249.251    21855258.734
       236.000         193.000
    608341.63049    470118.43846  22038006.032    22038005.759    22038015.807
       230.000         187.000
   1001255.70349    775345.60646  22316663.684    22316663.382    22316671.929
       233.000         187.000
  -1999454.20149  -1521962.61645  24779475.453    24779475.789    24779484.948
       210.000         136.000
 01 11 12 16 14 29.9980000  0  8G14G25G22G20G 1G29G11G13
   1110265.90749    734766.67345  24589843.021    24589841.989    24589859.230
       209.000         154.000
    654687.05249    506219.28347  21006806.172    21006806.020    21006813.819
       243.000         211.000
  -2563121.33849  -1973404.85946  21624708.611    21624707.940    21624719.250
       228.000         186.000
  -1831950.33849  -1412488.76247  20328613.706    20328613.259    20328621.284
       240.000         208.000
  -1869830.73749  -1445561.62047  21839859.438    21839859.206    21839868.645
       236.000         194.000
    637008.81149    492456.29546  22043461.295    22043461.080    22043471.143
       229.000         187.000
   1049733.03549    813119.96646  22325888.709    22325888.412    22325897.043
       234.000         186.000
  -2104195.05749  -1603579.07545  24759544.101    24759544.348    24759553.495
       211.000         139.000
 01 11 12 16 14 59.9980000  0  8G14G25G22G20G 1G29G11G13
   1159753.56049    773328.03645  24599260.349    24599259.441    24599276.818
       200.000         145.000
    686804.02849    531245.38247  21012917.921    21012917.771    21012925.574
       243.000         211.000
  -2672321.70549  -2058495.97946  21603928.376    21603927.757    21603939.071
       231.000         187.000
  -1907537.76149  -1471388.08647  20314229.936    20314229.486    20314237.495
       240.000         207.000
  -1950562.86649  -1508469.81847  21824496.659    21824496.425    21824505.838
       236.000         193.000
    665801.43649    514891.91046  22048940.543    22048940.269    22048950.361
       229.000         185.000
   1098499.97749    851119.98346  22335168.888    22335168.556    22335177.241
       233.000         186.000
  -2208886.84849  -1685157.29945  24739622.029    24739622.250    24739631.381
       213.000         141.000
 01 11 12 16 15 29.9980000  0  8G14G25G22G20G 1G29G11G13
   1209263.22349    811906.56545  24608681.930    24608680.981    24608698.581
       205.000         145.000
    719229.80849    556512.09547  21019088.418    21019088.254    21019096.089
       243.000         210.000
  -2781158.69049  -2143303.97247  21583217.295    21583216.726    21583228.026
       228.000         188.000
  -1982701.83449  -1529957.52947  20299926.735    20299926.270    20299934.260
       239.000         207.000
  -2031166.51049  -1571277.89747  21809158.276    21809158.079    21809167.500
       236.000         194.000
    694704.59249    537413.64746  22054440.740    22054440.480    22054450.616
       227.000         186.000
   1147538.51149    889331.64246  22344500.760    22344500.396    22344509.147
       234.000         186.000
  -2313544.48049  -1766708.88345  24719706.450    24719706.661    24719716.033
       214.000         141.000
 01 11 12 16 15 59.9980000  0  8G14G25G22G20G 1G29G11G13
   1258789.63949    850498.13045  24618106.817    24618105.841    24618123.575
       209.000         152.000
    751956.74449    582013.47947  21025316.190    21025316.054    21025323.928
       243.000         210.000
  -2889634.30949  -2227830.38047  21562575.006    21562574.458    21562585.756
       229.000         189.000
  -2057445.93049  -1588199.71147  20285703.367    20285702.950    20285710.952
       239.000         206.000
  -2111647.10049  -1633990.08547  21793843.365    21793843.144    21793852.619
       236.000         194.000
    723713.01749    560017.40746  22059960.981    22059960.750    22059970.894
       229.000         185.000
   1196840.33249    927748.44346  22353882.696    22353882.333    22353891.165
       232.000         186.000
  -2418173.43349  -1848238.14545  24699796.364    24699796.543    24699806.143
       212.000         138.000
 01 11 12 16 16 29.9980000  0  8G14G25G22G20G 1G29G11G13
   1308330.58049    889100.99845  24627534.698    24627533.544    24627551.337
       209.000         153.000
    784980.91249    607746.47147  21031600.533    21031600.402    21031608.333
       242.000         210.000
  -2997747.49849  -2312074.37147  21542001.656    21542001.164    21542012.472
       231.000         189.000
  -2131769.99049  -1646114.59547  20271559.957    20271559.570    20271567.580
       239.000         206.000
  -2192006.89649  -1696608.14847  21778551.376    21778551.187    21778560.703
       236.000         195.000
    752824.59149    582701.54746  22065500.876    22065500.631    22065510.808
       229.000         185.000
   1246400.33049    966366.42946  22363313.691    22363313.390    22363322.308
       233.000         187.000
  -2522776.05649  -1929746.84945  24679891.259    24679891.424    24679901.053
       213.000         139.000
 01 11 12 16 16 59.9980000  0  8G14G25G22G20G 1G29G11G13
   1357863.60649    927697.72645  24636960.834    24636959.680    24636977.543
       209.000         149.000
    818277.34449    633691.61047  21037936.690    21037936.580    21037944.532
       243.000         210.000
  -3105517.55649  -2396050.99447  21521493.670    21521493.196    21521504.427
       230.000         190.000
  -2205694.39549  -1703718.05247  20257492.628    20257492.249    20257500.260
       238.000         206.000
  -2272268.44949  -1759149.65747  21763278.173    21763277.956    21763287.491
       237.000         195.000
    782016.86849    605448.56946  22071056.157    22071055.870    22071066.090
       228.000         186.000
   1296193.32149   1005165.96246  22372789.140    22372788.826    22372797.780
       232.000         185.000
  -2627375.05949  -2011252.68845  24659986.735    24659986.895    24659996.622
       216.000         139.000
 01 11 12 16 17 29.9980000  0  8G14G25G22G20G 1G29G11G13
   1407387.36149    966287.25545  24646385.309    24646384.127    24646402.034
       208.000         146.000
    851842.67649    659846.28847  21044324.030    21044323.940    21044331.916
       243.000         210.000
  -3212942.61349  -2479758.80747  21501051.413    21501050.882    21501062.064
       231.000         190.000
  -2279218.46049  -1761009.56347  20243501.494    20243501.109    20243509.106
       238.000         206.000
  -2352433.30149  -1821615.80647  21748023.312    21748023.125    21748032.662
       237.000         196.000
    811288.53549    628257.46746  22076626.528    22076626.228    22076636.520
       229.000         187.000
   1346214.67549   1044143.43346  22382308.029    22382307.686    22382316.670
       231.000         184.000
  -2731971.69649  -2092756.67645  24640082.841    24640083.005    24640092.678
       216.000         142.000
 01 11 12 16 17 59.9980000  0  8G14G25G22G20G 1G29G11G13
   1456907.17749   1004873.69945  24655808.900    24655807.729    24655825.818
       209.000         146.000
    885680.30349    686213.14347  21050763.264    21050763.104    21050771.137
       243.000         210.000
  -3320014.19649  -2563191.17947  21480676.267    21480675.793    21480686.995
       230.000         190.000
  -2352335.03949  -1817983.55147  20229587.869    20229587.485    20229595.497
       238.000         206.000
  -2432496.25549  -1884002.56147  21732787.936    21732787.691    21732797.223
       237.000         196.000
    840644.86249    651132.31847  22082212.961    22082212.683    22082223.096
       228.000         188.000
   1396466.74649   1083300.68646  22391870.745    22391870.449    22391879.481
       231.000         184.000
  -2836561.06749  -2174255.03245  24620180.340    24620180.445    24620190.040
       214.000         140.000
 01 11 12 16 18 29.9980000  0  8G14G25G22G20G 1G29G11G13
   1506448.41249   1043476.86045  24665236.690    24665235.507    24665253.552
       209.000         145.000
    919813.54349    712810.34547  21057258.684    21057258.538    21057266.592
       243.000         210.000
  -3426703.62249  -2646325.76547  21460373.851    21460373.418    21460384.669
       231.000         190.000
  -2425016.44649  -1874618.44847  20215757.115    20215756.723    20215764.722
       238.000         206.000
  -2512431.86149  -1946290.07147  21717576.705    21717576.469    21717586.007
       237.000         195.000
    870111.26749    674092.95247  22087820.329    22087820.099    22087830.589
       229.000         188.000
   1446972.00349   1122655.24146  22401481.672    22401481.372    22401490.496
       231.000         183.000
  -2941117.74149  -2255727.85145  24600284.022    24600284.091    24600293.674
       214.000         141.000
 01 11 12 16 18 59.9980000  0  8G14G25G22G20G 1G29G11G13
   1555987.43349   1082078.28845  24674664.001    24674662.808    24674681.012
       209.000         144.000
    954216.98749    739618.10447  21063805.553    21063805.396    21063813.476
       243.000         210.000
  -3533031.25649  -2729178.46847  21440140.360    21440139.891    21440151.175
       230.000         190.000
  -2497284.40449  -1930931.17447  20202004.986    20202004.610    20202012.598
       239.000         206.000
  -2592263.85549  -2008496.84547  21702385.171    21702384.960    21702394.519
       237.000         195.000
    899664.26349    697121.05947  22093444.264    22093444.022    22093454.568
       229.000         188.000
   1497703.88249   1162186.37346  22411135.774    22411135.443    22411144.634
       231.000         182.000
  -3045665.45349  -2337193.71145  24580389.314    24580389.402    24580398.946
       212.000         145.000
 01 11 12 16 19 29.9980000  0  8G14G25G22G20G 1G29G11G13
   1605526.66049   1120679.89145  24684091.441    24684090.182    24684108.480
       207.000         144.000
    988890.46249    766636.27347  21070403.822    21070403.627    21070411.736
       243.000         210.000
  -3638991.62349  -2811744.99547  21419976.679    21419976.242    21419987.527
       230.000         190.000
  -2569134.37249  -1986918.20447  20188332.456    20188332.061    20188340.029
       239.000         206.000
  -2671990.00149  -2070621.14447  21687213.775    21687213.592    21687223.161
       236.000         195.000
    929306.22249    720218.49846  22099085.039    22099084.830    22099095.444
       229.000         186.000
   1548661.78949   1201893.61546  22420832.964    22420832.567    22420841.786
       232.000         184.000
  -3150201.88249  -2418650.78645  24560496.915    24560496.911    24560506.603
       212.000         149.000
 01 11 12 16 19 59.9980000  0  8G14G25G22G20G 1G29G11G13
   1655050.73949   1159269.69645  24693515.908    24693514.622    24693533.106
       207.000         144.000
   1023816.45649    793851.21047  21077050.151    21077049.933    21077058.056
       243.000         210.000
  -3744597.15649  -2894035.01047  21399880.537    21399880.148    21399891.474
       232.000         191.000
  -2640579.95249  -2042590.12647  20174736.863    20174736.451    20174744.404
       238.000         207.000
  -2751625.85549  -2132675.08147  21672059.590    21672059.410    21672068.970
       236.000         195.000
    959021.49149    743373.04846  22104739.912    22104739.627    22104750.269
       228.000         185.000
   1599827.02349   1241762.40746  22430569.543    22430569.139    22430578.378
       232.000         182.000
  -3254742.77249  -2500111.34045  24540603.737    24540603.590    24540613.241
       210.000         145.000
 01 11 12 16 20 29.9980000  0  8G14G25G22G20G 1G29G11G13
   1704561.27449   1197848.95045  24702937.694    24702936.510    24702955.060
       208.000         142.000
   1058994.64249    821262.65847  21083744.464    21083744.230    21083752.361
       243.000         210.000
  -3849842.87849  -2976044.66247  21379852.937    21379852.522    21379863.893
       232.000         190.000
  -2711617.22049  -2097943.88247  20161218.992    20161218.551    20161226.490
       238.000         207.000
  -2831169.78549  -2194657.38747  21656922.879    21656922.728    21656932.292
       237.000         196.000
    988811.95549    766586.19046  22110408.970    22110408.721    22110419.402
       228.000         185.000
   1651198.48249   1281791.91246  22440345.382    22440344.947    22440354.205
       230.000         182.000
  -3359286.74449  -2581574.36045  24520709.980    24520709.718    24520719.354
       207.000         141.000
 01 11 12 16 20 59.9980000  0  8G14G25G22G20G 1G29G11G13
   1754078.08149   1236433.13445  24712360.849    24712359.567    24712378.211
       205.000         139.000
   1094442.50649    848884.25047  21090490.084    21090489.830    21090498.006
       243.000         210.000
  -3954705.72049  -3057755.96247  21359898.140    21359897.752    21359909.128
       230.000         190.000
  -2782224.49149  -2152962.57647  20147782.893    20147782.462    20147790.416
       238.000         208.000
  -2910601.82449  -2256552.49847  21641807.515    21641807.343    21641816.906
       237.000         197.000
   1018697.63949    789873.53146  22116096.283    22116095.955    22116106.620
       228.000         185.000
   1702793.11949   1321995.31646  22450163.696    22450163.235    22450172.527
       229.000         182.000
  -3463814.07649  -2663024.39845  24500819.076    24500818.930    24500828.454
       204.000         142.000
 01 11 12 16 21 29.9980000  0  8G14G25G22G20G 1G29G11G13
   1803580.43449   1275006.10345  24721781.123    24721779.864    24721798.680
       205.000         139.000
   1130137.14449    876698.13547  21097282.632    21097282.387    21097290.618
       243.000         210.000
  -4059203.39249  -3139182.73247  21340012.783    21340012.438    21340023.846
       230.000         190.000
  -2852420.70249  -2207660.96647  20134425.023    20134424.598    20134432.569
       238.000         208.000
  -2989942.95649  -2318376.77647  21626709.377    21626709.217    21626718.793
       237.000         196.000
   1048657.54749    813218.71246  22121797.689    22121797.336    22121807.993
       229.000         184.000
   1754586.92149   1362353.90646  22460019.784    22460019.381    22460028.737
       230.000         182.000
  -3568345.06549  -2744477.25445  24480927.635    24480927.452    24480937.059
       205.000         144.000
 01 11 12 16 21 59.9980000  0  8G14G25G22G20G 1G29G11G13
   1853066.26849   1313566.16445  24731198.087    24731196.972    24731215.892
       201.000         137.000
   1166074.63149    904701.25047  21104121.396    21104121.159    21104129.424
       242.000         210.000
  -4163334.75549  -3220324.05047  21320197.234    21320196.888    21320208.276
       232.000         191.000
  -2922205.68249  -2262038.91147  20121145.430    20121144.995    20121152.970
       238.000         208.000
  -3069195.18749  -2380131.78647  21611628.233    21611628.053    21611637.598
       237.000         197.000
   1078689.96849    836620.40046  22127512.921    22127512.505    22127523.140
       228.000         184.000
   1806574.94949   1402863.84146  22469912.861    22469912.497    22469921.953
       231.000         181.000
  -3672882.31049  -2825935.04345  24461034.985    24461034.861    24461044.423
       204.000         141.000
 01 11 12 16 22 29.9980000  0  8G14G25G22G20G 1G29G11G13
   1902542.49649   1352118.73445  24740613.324    24740612.271    24740631.199
       201.000         136.000
   1202259.87549    932897.41947  21111007.299    21111007.066    21111015.366
       242.000         209.000
  -4267089.61049  -3301171.98847  21300453.393    21300452.999    21300464.352
       230.000         191.000
  -2991570.62949  -2316089.56447  20107945.723    20107945.305    20107953.291
       237.000         207.000
  -3148351.68949  -2441812.20147  21596565.283    21596565.092    21596574.668
       238.000         197.000
   1108801.68149    860083.86846  22133243.160    22133242.745    22133253.420
       227.000         183.000
   1858761.32249   1443528.33046  22479843.808    22479843.425    22479852.893
       230.000         181.000
  -3777418.89249  -2907392.31345  24441142.371    24441142.318    24441151.792
       199.000         137.000
 01 11 12 16 22 59.9980000  0  8G14G25G22G20G 1G29G11G13
   1952005.30049   1390660.85545  24750026.157    24750025.010    24750044.099
       199.000         134.000
   1238686.85449    961281.95747  21117939.182    21117938.968    21117947.311
       242.000         209.000
  -4370469.18149  -3381727.48747  21280780.901    21280780.498    21280791.868
       232.000         190.000
  -3060517.55349  -2369814.47847  20094825.576    20094825.151    20094833.171
       237.000         207.000
  -3227416.42149  -2503421.10847  21581519.797    21581519.592    21581529.197
       236.000         197.000
   1138988.99249    883606.24346  22138987.732    22138987.350    22138998.074
       226.000         183.000
   1911138.68049   1484341.63546  22489811.032    22489810.649    22489820.180
       229.000         180.000
  -3881958.87349  -2988852.23945  24421249.127    24421249.135    24421258.735
       201.000         138.000
 01 11 12 16 23 29.9980000  0  8G14G25G22G20G 1G29G11G13
   2001463.59949   1429199.44245  24759437.816    24759436.764    24759456.108
       198.000         132.000
   1275362.65849    989860.38247  21124918.402    21124918.225    21124926.600
       242.000         208.000
  -4473461.09149  -3461980.89547  21261182.250    21261181.796    21261193.155
       232.000         191.000
  -3129035.31649  -2423204.98147  20081787.089    20081786.677    20081794.715
       236.000         207.000
  -3306380.45249  -2564951.55047  21566493.442    21566493.259    21566502.867
       237.000         198.000
   1169260.48949    907194.23146  22144748.264    22144747.943    22144758.753
       226.000         183.000
   1963713.18149   1525308.55046  22499815.859    22499815.427    22499824.996
       230.000         181.000
  -3986493.24649  -3070307.76745  24401357.021    24401357.015    24401366.811
       200.000         138.000
 01 11 12 16 23 59.9980000  0  8G14G25G22G20G 1G29G11G13
   2050905.79649   1467725.52544  24768846.564    24768845.542    24768864.944
       197.000         130.000
   1312273.00449   1018621.55547  21131942.274    21131942.107    21131950.536
       242.000         208.000
  -4576073.79049  -3541938.83747  21241655.695    21241655.236    21241666.598
       232.000         192.000
  -3197133.71349  -2476268.70347  20068828.389    20068828.006    20068836.056
       235.000         207.000
  -3385255.54949  -2626412.69147  21551484.079    21551483.861    21551493.454
       238.000         198.000
   1199604.93749    930839.04246  22150522.737    22150522.419    22150533.330
       227.000         183.000
   2016470.08449   1566417.61546  22509855.310    22509854.895    22509864.478
       229.000         178.000
  -4091033.95049  -3151768.21745  24381463.721    24381463.793    24381473.532
       202.000         140.000
 01 11 12 16 24 29.9980000  0  8G14G25G22G20G 1G29G11G13
   2100328.28849   1506236.21144  24778251.440    24778250.588    24778270.056
       197.000         128.000
   1349412.70649   1047561.45647  21139009.835    21139009.658    21139018.102
       243.000         208.000
  -4678308.03149  -3621601.85547  21222201.154    21222200.702    21222212.092
       231.000         192.000
  -3264814.57949  -2529007.07847  20055949.204    20055948.795    20055956.852
       236.000         207.000
  -3464045.24249  -2687807.28247  21536490.961    21536490.743    21536500.304
       238.000         198.000
   1230018.68049    954537.86346  22156310.423    22156310.082    22156321.083
       227.000         184.000
   2069402.97249   1607663.79046  22519928.307    22519927.827    22519937.484
       229.000         178.000
  -4195584.59249  -3233236.37245  24361568.436    24361568.627    24361578.345
       202.000         139.000
 01 11 12 16 24 59.9980000  0  8G14G25G22G20G 1G29G11G13
   2149740.78249   1544739.17045  24787654.724    24787653.813    24787673.135
       204.000         134.000
   1386789.17149   1076685.84447  21146122.400    21146122.249    21146130.729
       242.000         208.000
  -4780150.81149  -3700959.85447  21202821.150    21202820.674    21202832.070
       233.000         192.000
  -3332066.18349  -2581410.95647  20043151.666    20043151.261    20043159.356
       235.000         207.000
  -3542739.96049  -2749127.86047  21521515.899    21521515.671    21521525.209
       238.000         198.000
   1260511.59049    978298.36246  22162113.268    22162112.850    22162123.916
       227.000         185.000
   2122518.58949   1649052.36846  22530036.028    22530035.564    22530045.299
       230.000         179.000
  -4300135.49949  -3314704.69945  24341673.033    24341673.347    24341683.214
       202.000         141.000
 01 11 12 16 25 29.9980000  0  8G14G25G22G20G 1G29G11G13
   2199143.28349   1583234.27244  24797056.084    24797055.084    24797074.440
       200.000         126.000
   1424399.84649   1105992.72947  21153279.578    21153279.406    21153287.905
       242.000         207.000
  -4881599.52449  -3780010.75047  21183516.091    21183515.623    21183526.990
       235.000         193.000
  -3398886.74349  -2633478.96047  20030436.147    20030435.756    20030443.875
       235.000         208.000
  -3621339.85349  -2810374.55347  21506558.856    21506558.615    21506568.162
       238.000         197.000
   1291083.38349   1002120.33746  22167931.048    22167930.657    22167941.783
       227.000         185.000
   2175813.42849   1690580.60346  22540177.878    22540177.420    22540187.191
       231.000         180.000
  -4404687.19049  -3396173.59745  24321777.646    24321777.870    24321787.787
       205.000         140.000
 01 11 12 16 25 59.9980000  0  8G14G25G22G20G 1G29G11G13
   2248545.92949   1621729.51144  24806457.313    24806456.358    24806475.763
       197.000         124.000
   1462253.45249   1135488.90547  21160482.986    21160482.797    21160491.315
       241.000         207.000
  -4982640.47549  -3858743.92247  21164288.665    21164288.156    21164299.473
       234.000         192.000
  -3465264.09349  -2685201.60547  20017804.951    20017804.581    20017812.722
       235.000         208.000
  -3699834.52149  -2871539.26047  21491621.797    21491621.601    21491631.120
       237.000         198.000
   1321744.71749   1026012.07546  22173765.904    22173765.494    22173776.647
       227.000         185.000
   2229294.90949   1732254.25946  22550355.273    22550354.785    22550364.599
       230.000         179.000
  -4509229.09249  -3477634.83845  24301883.973    24301884.294    24301894.116
       206.000         140.000
 01 11 12 16 26 29.9980000  0  8G14G25G22G20G 1G29G11G13
   2297908.51349   1660193.56044  24815850.991    24815849.854    24815869.562
       195.000         121.000
   1500307.17949   1165141.01747  21167724.473    21167724.270    21167732.801
       241.000         207.000
  -5083311.10749  -3937188.52247  21145131.585    21145131.128    21145142.449
       232.000         192.000
  -3531236.65149  -2736608.82547  20005250.810    20005250.439    20005258.598
       235.000         208.000
  -3778264.34949  -2932653.44747  21476697.108    21476696.898    21476706.444
       238.000         198.000
   1352455.05149   1049941.99946  22179610.076    22179609.685    22179620.873
       228.000         185.000
   2282919.68549   1774039.55746  22560559.984    22560559.434    22560569.313
       231.000         181.000
  -4613802.00949  -3559120.23845  24281984.304    24281984.627    24281994.782
       208.000         144.000
 01 11 12 16 26 59.9980000  0  7G25G22G20G 1G29G11G13
   1538592.32049   1194973.44547  21175009.960    21175009.790    21175018.337
       241.000         207.000
  -5183575.05049  -4015316.24047  21126052.015    21126051.540    21126062.822
       233.000         193.000
  -3596769.06649  -2787673.07147  19992780.441    19992780.066    19992788.233
       236.000         208.000
  -3856596.05349  -2993691.17347  21461791.092    21461790.901    21461800.495
       238.000         199.000
   1383247.83449   1073936.16746  22185469.898    22185469.540    22185480.751
       226.000         185.000
   2336718.07049   1815960.14346  22570797.793    22570797.174    22570807.055
       230.000         181.000
  -4718372.32049  -3640603.61245  24262085.425    24262085.698    24262095.910
       207.000         144.000
 01 11 12 16 27 29.9980000  0  7G25G22G20G 1G29G11G13
   1577103.30749   1224981.85847  21182338.502    21182338.290    21182346.867
       241.000         208.000
  -5283432.83249  -4093127.47147  21107049.665    21107049.211    21107060.498
       232.000         193.000
  -3661863.24749  -2838395.84047  19980393.507    19980393.104    19980401.245
       235.000         208.000
  -3934833.09849  -3054655.13247  21446903.127    21446902.939    21446912.514
       239.000         200.000
   1414119.67149   1097991.94046  22191344.774    22191344.410    22191355.683
       226.000         184.000
   2390683.44649   1858010.85746  22581067.269    22581066.655    22581076.546
       229.000         179.000
  -4822944.08849  -3722088.12845  24242186.067    24242186.421    24242196.744
       208.000         144.000
 01 11 12 16 27 59.9980000  0  7G25G22G20G 1G29G11G13
   1615834.60749   1255161.94147  21189708.921    21189708.711    21189717.341
       241.000         208.000
  -5382885.21849  -4170622.79947  21088124.485    21088124.019    21088135.332
       235.000         193.000
  -3726521.05949  -2888778.58247  19968089.561    19968089.163    19968097.320
       234.000         208.000
  -4012979.49449  -3115548.44447  21432032.423    21432032.204    21432041.814
       239.000         200.000
   1445066.83049   1122106.39546  22197233.874    22197233.549    22197244.932
       225.000         183.000
   2444809.08349   1900186.44846  22591367.121    22591366.555    22591376.527
       227.000         178.000
  -4927521.14149  -3803576.76645  24222285.683    24222286.055    24222296.541
       211.000         145.000
 01 11 12 16 28 29.9980000  0  7G25G22G20G 1G29G11G13
   1654770.05549   1285501.08547  21197118.198    21197117.977    21197126.656
       241.000         208.000
  -5481943.35249  -4247810.93347  21069274.321    21069273.861    21069285.171
       231.000         193.000
  -3790754.54449  -2938830.68047  19955866.345    19955865.959    19955874.146
       234.000         207.000
  -4091049.15049  -3176381.95947  21417176.249    21417176.058    21417185.687
       239.000         199.000
   1476075.39149   1146268.68746  22203134.834    22203134.425    22203145.881
       227.000         184.000
   2499077.89549   1942473.58546  22601694.194    22601693.683    22601703.759
       228.000         178.000
  -5032117.44749  -3885080.42545  24202381.700    24202382.072    24202392.599
       211.000         145.000
 01 11 12 16 28 59.9980000  0  7G25G22G20G 1G29G11G13
   1693924.28349   1316010.71747  21204569.128    21204568.899    21204577.598
       241.000         207.000
  -5580586.85349  -4324675.97147  21050503.060    21050502.611    21050513.913
       232.000         193.000
  -3854544.90749  -2988537.48947  19943727.467    19943727.083    19943735.282
       233.000         207.000
  -4169024.90549  -3237142.30847  21402337.996    21402337.778    21402347.429
       239.000         199.000
   1507162.63449   1170492.29046  22209050.678    22209050.285    22209061.756
       226.000         182.000
   2553503.91349   1984883.22446  22612051.263    22612050.764    22612060.953
       227.000         178.000
  -5136716.09749  -3966585.94645  24182477.143    24182477.556    24182488.150
       211.000         145.000
 01 11 12 16 29 29.9980000  0  7G25G22G20G 1G29G11G13
   1733295.53649   1346689.46247  21212061.382    21212061.113    21212069.817
       241.000         207.000
  -5678812.79149  -4401215.63947  21031811.228    21031810.798    21031822.081
       232.000         193.000
  -3917890.20549  -3037897.48847  19931673.277    19931672.895    19931681.125
       233.000         206.000
  -4246906.86849  -3297829.57747  21387517.500    21387517.351    21387527.024
       238.000         199.000
   1538328.62549   1194777.24246  22214981.450    22214981.135    22214992.649
       225.000         182.000
   2608084.37649   2027413.19746  22622437.679    22622437.231    22622447.462
       230.000         175.000
  -5241316.93349  -4048093.21545  24162572.265    24162572.712    24162583.361
       211.000         145.000
 01 11 12 16 29 59.9980000  0  7G25G22G20G 1G29G11G13
   1772851.80049   1377512.36547  21219588.819    21219588.550    21219597.283
       242.000         208.000
  -5776648.13649  -4477450.95147  21013193.743    21013193.340    21013204.643
       234.000         196.000
  -3980818.56549  -3086932.60347  19919698.414    19919698.035    19919706.287
       233.000         206.000
  -4324724.87649  -3358467.01047  21372709.241    21372709.086    21372718.752
       238.000         198.000
   1569543.47649   1219100.28246  22220921.542    22220921.277    22220932.853
       226.000         181.000
   2662786.14949   2070037.72846  22632847.308    22632846.799    22632857.032
       227.000         176.000
  -5345950.16849  -4129625.74345  24142661.261    24142661.651    24142672.472
       213.000         147.000
 01 11 12 16 30 29.9980000  0  7G25G22G20G 1G29G11G13
   1812618.35149   1408499.13147  21227156.310    21227156.020    21227164.774
       242.000         208.000
  -5874062.28249  -4553358.06047  20994656.500    20994656.045    20994667.363
       234.000         195.000
  -4043300.42949  -3135619.80147  19907808.530    19907808.154    19907816.424
       233.000         206.000
  -4402451.29049  -3419033.07147  21357918.400    21357918.249    21357927.926
       239.000         199.000
   1600834.96749   1243483.05046  22226876.253    22226875.977    22226887.652
       224.000         181.000
   2717633.93449   2112776.02346  22643284.687    22643284.151    22643294.380
       228.000         175.000
  -5450588.32349  -4211162.15045  24122749.573    24122749.832    24122760.480
       216.000         149.000
 01 11 12 16 30 59.9980000  0  7G25G22G20G 1G29G11G13
   1852579.53149   1439637.55647  21234760.818    21234760.499    21234769.295
       242.000         207.000
  -5971066.21149  -4628945.53047  20976197.288    20976196.788    20976208.112
       233.000         195.000
  -4105347.96149  -3183968.56147  19896001.314    19896000.938    19896009.191
       233.000         206.000
  -4480099.82149  -3479538.44347  21343142.405    21343142.250    21343151.914
       238.000         199.000
   1632189.32049   1267914.77946  22232842.974    22232842.675    22232854.413
       226.000         181.000
   2772610.83649   2155614.92246  22653746.593    22653746.092    22653756.303
       228.000         176.000
  -5555245.33249  -4292713.23545  24102834.263    24102834.481    24102844.996
       216.000         153.000
 01 11 12 16 31 29.9980000  0  7G25G22G20G 1G29G11G13
   1892730.06049   1470923.54047  21242401.343    21242401.015    21242409.840
       241.000         207.000
  -6067660.39949  -4704213.71847  20957816.010    20957815.508    20957826.862
       234.000         196.000
  -4166962.69849  -3231980.07847  19884276.451    19884276.064    19884284.329
       234.000         206.000
  -4557673.80649  -3539985.73047  21328380.586    21328380.431    21328390.117
       239.000         199.000
   1663603.19149   1292392.88346  22238821.118    22238820.736    22238832.487
       228.000         183.000
   2827710.43549   2198549.42246  22664231.852    22664231.368    22664241.651
       227.000         177.000
  -5659924.02049  -4374281.22245  24082914.696    24082914.893    24082925.445
       215.000         153.000
 01 11 12 16 31 59.9980000  0  7G25G22G20G 1G29G11G13
   1933084.56049   1502368.45947  21250080.573    21250080.321    21250089.198
       240.000         206.000
  -6163825.11149  -4779147.24947  20939516.401    20939515.937    20939527.342
       235.000         196.000
  -4228126.17349  -3279639.95847  19872637.486    19872637.090    19872645.337
       233.000         206.000
  -4635156.42549  -3600361.82147  21313636.185    21313636.005    21313645.713
       239.000         199.000
   1695093.51149   1316930.56446  22244813.842    22244813.387    22244825.093
       228.000         182.000
   2882946.36249   2241590.14646  22674743.075    22674742.601    22674752.895
       227.000         175.000
  -5764608.18149  -4455853.49445  24062994.053    24062994.240    24063004.775
       214.000         153.000
 01 11 12 16 32 29.9980000  0  7G25G22G20G 1G29G11G13
   1973640.45849   1533970.32147  21257798.220    21257797.951    21257806.899
       240.000         206.000
  -6259557.96749  -4853744.28147  20921299.077    20921298.595    20921310.005
       234.000         197.000
  -4288837.17549  -3326947.26347  19861084.639    19861084.219    19861092.450
       233.000         206.000
  -4712548.27049  -3660667.17847  21298909.053    21298908.847    21298918.566
       239.000         199.000
   1726659.76049   1341527.40546  22250820.858    22250820.437    22250832.136
       228.000         182.000
   2938315.22849   2284734.47046  22685279.567    22685279.128    22685289.502
       229.000         177.000
  -5869298.52349  -4537430.54945  24043072.159    24043072.395    24043082.948
       215.000         154.000
 01 11 12 16 32 59.9980000  0  7G25G22G20G 1G29G11G13
   2014389.98549   1565723.05547  21265552.717    21265552.437    21265561.446
       241.000         206.000
  -6354861.46949  -4928006.73347  20903163.400    20903162.928    20903174.319
       235.000         197.000
  -4349099.18949  -3373904.70547  19849617.194    19849616.765    19849625.006
       233.000         207.000
  -4789854.65849  -3720905.95147  21284198.138    21284197.930    21284207.672
       238.000         199.000
   1758296.92149   1366179.52346  22256841.495    22256840.987    22256852.697
       227.000         181.000
   2993808.56949   2327975.75846  22695839.776    22695839.318    22695849.831
       226.000         176.000
  -5974000.14749  -4619016.34945  24023148.349    24023148.485    24023159.114
       217.000         155.000
 01 11 12 16 33 29.9980000  0  7G25G22G20G 1G29G11G13
   2055317.67849   1597614.63647  21273341.138    21273340.838    21273349.869
       241.000         206.000
  -6449746.47049  -5001943.11247  20885107.413    20885106.931    20885118.284
       235.000         197.000
  -4408924.35049  -3420521.74647  19838232.886    19838232.463    19838240.689
       233.000         206.000
  -4867089.33049  -3781088.83647  21269500.888    21269500.686    21269510.443
       239.000         198.000
   1789991.14049   1390876.08446  22262872.842    22262872.346    22262884.156
       227.000         182.000
   3049409.76649   2371301.11146  22706420.468    22706420.048    22706430.663
       226.000         174.000
  -6078726.96049  -4700621.77145  24003219.614    24003219.723    24003230.489
       216.000         154.000
 01 11 12 16 33 59.9980000  0  7G25G22G20G 1G29G11G13
   2096428.46349   1629648.88747  21281164.327    21281164.062    21281173.117
       241.000         205.000
  -6544203.33149  -5075545.86147  20867132.793    20867132.356    20867143.732
       234.000         197.000
  -4468304.17049  -3466791.76547  19826933.350    19826932.903    19826941.117
       234.000         206.000
  -4944245.01749  -3841210.18547  21254818.637    21254818.466    21254828.218
       238.000         198.000
   1821749.35549   1415622.52846  22268916.289    22268915.891    22268927.803
       225.000         181.000
   3105122.53249   2414713.38546  22717022.468    22717021.990    22717032.691
       225.000         172.000
  -6183472.14249  -4782241.47645  23983287.415    23983287.506    23983298.354
       217.000         154.000
 01 11 12 16 34 29.9980000  0  7G25G22G20G 1G29G11G13
   2137722.99049   1661826.31347  21289022.485    21289022.249    21289031.335
       241.000         206.000
  -6638226.25349  -5148810.47647  20849240.907    20849240.402    20849251.725
       237.000         197.000
  -4527233.91449  -3512711.07947  19815719.464    19815718.999    19815727.192
       233.000         206.000
  -5021318.95649  -3901267.83947  21240151.975    21240151.795    21240161.550
       239.000         198.000
   1853574.46649   1440421.08346  22274972.544    22274972.171    22274984.168
       224.000         179.000
   3160946.57049   2458212.37946  22727645.645    22727645.142    22727655.863
       227.000         173.000
  -6288232.78549  -4863873.20045  23963352.235    23963352.365    23963363.368
       216.000         154.000
 01 11 12 16 34 59.9980000  0  7G25G22G20G 1G29G11G13
   2179194.51549   1694141.66647  21296914.327    21296914.119    21296923.246
       240.000         206.000
  -6731817.00749  -5221738.34947  20831431.195    20831430.656    20831441.970
       235.000         197.000
  -4585716.56449  -3558282.00447  19804590.559    19804590.136    19804598.352
       232.000         206.000
  -5098315.97149  -3961265.54847  21225499.908    21225499.764    21225509.525
       238.000         199.000
   1885462.08849   1465268.34046  22281040.670    22281040.346    22281052.386
       224.000         179.000
   3216874.21749   2501792.10446  22738288.542    22738288.015    22738298.812
       227.000         175.000
  -6393013.76949  -4945520.77045  23943413.114    23943413.283    23943424.262
       214.000         151.000
 01 11 12 16 35 29.9970000  0  7G25G22G20G 1G29G11G13
   2220849.50549   1726599.96847  21304841.077    21304840.893    21304850.073
       241.000         205.000
  -6824959.97449  -5294317.28647  20813706.619    20813706.125    20813717.462
       234.000         197.000
  -4643738.77849  -3603494.14547  19793549.283    19793548.889    19793557.113
       232.000         206.000
  -5175223.47449  -4021193.51647  21210864.948    21210864.786    21210874.544
       239.000         199.000
   1917421.03849   1490171.18346  22287122.461    22287122.121    22287134.185
       225.000         178.000
   3272910.63949   2545456.59146  22748952.143    22748951.585    22748962.474
       226.000         175.000
  -6497801.89949  -5027173.88545  23923472.457    23923472.750    23923483.800
       212.000         151.000
 01 11 12 16 35 59.9970000  0  7G25G22G20G 1G29G11G13
   2262678.82549   1759194.12447  21312801.049    21312800.863    21312810.085
       241.000         205.000
  -6917668.34349  -5366557.57847  20796064.787    20796064.295    20796075.640
       234.000         198.000
  -4701312.74249  -3648357.00447  19782593.366    19782592.962    19782601.167
       232.000         206.000
  -5252056.38349  -4081063.35347  21196244.200    21196244.022    21196253.765
       238.000         199.000
   1949443.73649   1515123.69946  22293216.371    22293216.023    22293228.131
       227.000         180.000
   3329046.58849   2589198.62346  22759634.634    22759634.085    22759645.062
       227.000         175.000
  -6602614.16549  -5108845.82545  23903527.348    23903527.646    23903538.853
       214.000         153.000
 01 11 12 16 36 29.9970000  0  7G25G22G20G 1G29G11G13
   2304687.46349   1791928.00547  21320795.141    21320794.943    21320804.212
       241.000         205.000
  -7009928.04749  -5438448.27047  20778508.386    20778507.871    20778519.229
       236.000         198.000
  -4758426.45849  -3692861.23047  19771725.031    19771724.616    19771732.814
       232.000         206.000
  -5328803.69749  -4140866.48547  21181639.671    21181639.502    21181649.287
       238.000         200.000
   1981537.48249   1540131.56146  22299323.917    22299323.473    22299335.632
       226.000         179.000
   3385285.32249   2633020.75046  22770336.725    22770336.188    22770347.181
       228.000         176.000
  -6707438.68849  -5190527.33445  23883580.122    23883580.298    23883591.432
       216.000         149.000
 01 11 12 16 36 59.9970000  0  7G25G22G20G 1G29G11G13
   2346869.46049   1824796.96147  21328822.219    21328822.013    21328831.362
       241.000         205.000
  -7101739.97749  -5509990.04747  20761037.190    20761036.659    20761048.005
       236.000         198.000
  -4815081.89849  -3737008.34947  19760943.905    19760943.475    19760951.673
       233.000         206.000
  -5405469.00349  -4200605.71847  21167050.732    21167050.589    21167060.405
       238.000         200.000
   2013698.67149   1565191.97746  22305444.221    22305443.744    22305455.896
       225.000         178.000
   3441620.23849   2676917.83046  22781057.157    22781056.584    22781067.646
       227.000         175.000
  -6812279.17749  -5272221.31345  23863629.762    23863629.831    23863640.950
       216.000         153.000
 01 11 12 16 37 29.9970000  0  7G25G22G20G 1G29G11G13
   2389214.35349   1857792.84047  21336880.263    21336880.084    21336889.461
       240.000         204.000
  -7193109.47549  -5581187.08647  20743650.134    20743649.626    20743660.979
       234.000         198.000
  -4871285.67049  -3780803.52647  19750248.686    19750248.281    19750256.489
       233.000         206.000
  -5482060.41849  -4260287.37447  21152475.878    21152475.748    21152485.601
       238.000         200.000
   2045919.32649   1590298.73146  22311575.874    22311575.331    22311587.458
       226.000         178.000
   3498040.14449   2720881.11546  22791793.832    22791793.170    22791804.257
       225.000         172.000
  -6917144.09349  -5353934.32145  23843674.781    23843674.830    23843686.004
       219.000         157.000
 01 11 12 16 37 59.9970000  0  7G25G22G20G 1G29G11G13
   2431728.37049   1890920.50947  21344970.519    21344970.327    21344979.734
       240.000         204.000
  -7284026.17149  -5652031.27147  20726349.271    20726348.762    20726360.110
       237.000         199.000
  -4927028.64849  -3824239.64147  19739641.203    19739640.788    19739649.007
       233.000         207.000
  -5558570.11849  -4319905.34647  21137916.577    21137916.435    21137926.318
       238.000         200.000
   2078207.19749   1615457.86046  22317720.176    22317719.707    22317731.846
       224.000         178.000
   3554549.84749   2764914.36446  22802547.498    22802546.828    22802557.972
       225.000         174.000
  -7022025.54149  -5435660.22345  23823716.617    23823716.643    23823727.937
       218.000         155.000
 01 11 12 16 38 29.9970000  0  7G25G22G20G 1G29G11G13
   2474408.64249   1924177.72447  21353092.430    21353092.228    21353101.647
       240.000         203.000
  -7374488.32449  -5722521.27947  20709134.926    20709134.412    20709145.745
       235.000         199.000
  -4982309.92849  -3867315.98947  19729121.621    19729121.168    19729129.387
       233.000         207.000
  -5634998.95849  -4379460.30447  21123372.706    21123372.541    21123382.436
       239.000         201.000
   2110561.36549   1640668.64746  22323877.064    22323876.650    22323888.878
       224.000         178.000
   3611145.42049   2809014.53546  22813317.530    22813316.837    22813328.024
       225.000         172.000
  -7126924.38649  -5517399.66445  23803755.072    23803755.097    23803766.405
       218.000         150.000
 01 11 12 16 38 59.9970000  0  7G25G22G20G 1G29G11G13
   2517256.73449   1957565.71147  21361246.304    21361246.064    21361255.475
       240.000         203.000
  -7464489.35549  -5792651.97347  20692008.311    20692007.798    20692019.110
       237.000         199.000
  -5037124.31149  -3910028.52347  19718690.800    19718690.379    19718698.601
       232.000         206.000
  -5711343.22549  -4438949.36747  21108844.918    21108844.713    21108854.621
       239.000         200.000
   2142985.86949   1665934.24946  22330047.469    22330047.035    22330059.307
       223.000         177.000
   3667827.55549   2853182.16846  22824104.058    22824103.303    22824114.513
       226.000         171.000
  -7231836.99949  -5599149.81445  23783790.953    23783790.968    23783802.353
       217.000         149.000
 01 11 12 16 39 29.9970000  0  7G25G22G20G 1G29G11G13
   2560256.31649   1991071.73347  21369428.962    21369428.722    21369438.165
       238.000         204.000
  -7554040.50549  -5862432.10547  20674967.328    20674966.778    20674978.119
       235.000         199.000
  -5091484.11449  -3952386.83347  19708346.483    19708346.070    19708354.318
       232.000         206.000
  -5787616.45549  -4498383.07047  21094330.563    21094330.409    21094340.332
       239.000         200.000
   2175466.84549   1691243.84746  22336228.544    22336228.132    22336240.497
       222.000         177.000
   3724578.98949   2897403.79246  22834903.656    22834902.933    22834914.205
       224.000         169.000
  -7336777.12749  -5680921.43945  23763821.548    23763821.617    23763832.820
       216.000         144.000
 01 11 12 16 39 59.9970000  0  7G25G22G20G 1G29G11G13
   2603400.61949   2024690.52147  21377639.155    21377638.919    21377648.389
       239.000         204.000
  -7643144.22949  -5931863.60247  20658011.518    20658010.941    20658022.247
       236.000         199.000
  -5145392.72849  -3994393.56847  19698088.023    19698087.620    19698095.866
       232.000         205.000
  -5863823.58049  -4557765.27047  21079828.861    21079828.694    21079838.633
       239.000         200.000
   2207999.27649   1716593.54046  22342419.408    22342419.007    22342431.449
       222.000         177.000
   3781392.03649   2941673.41746  22845714.876    22845714.259    22845725.668
       223.000         171.000
  -7441750.18749  -5762718.66245  23743845.884    23743845.993    23743856.874
       213.000         141.000
 01 11 12 16 40 29.9970000  0  7G25G22G20G 1G29G11G13
   2646699.37249   2058429.64747  21385878.763    21385878.514    21385888.004
       239.000         203.000
  -7731786.21149  -6000935.29647  20641143.489    20641142.941    20641154.258
       236.000         200.000
  -5198837.27149  -4036038.69447  19687917.892    19687917.481    19687925.734
       232.000         205.000
  -5939953.15149  -4617087.02947  21065341.921    21065341.751    21065351.653
       239.000         200.000
   2240595.07149   1741992.59646  22348622.400    22348621.925    22348634.498
       222.000         178.000
   3838275.15449   2985997.62446  22856539.517    22856538.933    22856550.480
       223.000         170.000
  -7546744.54949  -5844532.50445  23723866.267    23723866.374    23723877.281
       213.000         141.000
 01 11 12 16 40 59.9970000  0  7G25G22G20G 1G29G11G13
   2690147.28649   2092285.00947  21394146.708    21394146.482    21394156.009
       238.000         202.000
  -7819967.38049  -6069647.90847  20624363.161    20624362.631    20624373.990
       235.000         201.000
  -5251819.49449  -4077323.56647  19677835.717    19677835.334    19677843.583
       232.000         206.000
  -6016008.36349  -4676350.84047  21050869.131    21050868.969    21050878.836
       239.000         201.000
   2273250.53649   1767438.16246  22354836.633    22354836.216    22354848.875
       223.000         179.000
   3895221.74449   3030371.30146  22867376.183    22867375.667    22867387.373
       221.000         170.000
  -7651764.14549  -5926365.98345  23703881.855    23703881.922    23703892.833
       214.000         138.000
 01 11 12 16 41 29.9970000  0  7G25G22G20G 1G29G11G13
   2733734.84149   2126249.18047  21402441.240    21402441.021    21402450.547
       238.000         202.000
  -7907692.19749  -6138004.92247  20607669.706    20607669.175    20607680.515
       239.000         200.000
  -5304345.19149  -4118252.70947  19667840.398    19667840.046    19667848.281
       232.000         206.000
  -6091996.17749  -4735562.14447  21036409.160    21036408.984    21036418.855
       239.000         200.000
   2305959.05149   1792925.07246  22361061.023    22361060.618    22361073.384
       225.000         180.000
   3952221.96049   3074786.75946  22878223.079    22878222.592    22878234.442
       220.000         169.000
  -7756815.16349  -6008224.01444  23683891.268    23683891.358    23683902.331
       212.000         131.000
 01 11 12 16 41 59.9970000  0  7G25G22G20G 1G29G11G13
   2777469.91649   2160328.29947  21410763.894    21410763.640    21410773.179
       239.000         202.000
  -7994948.38549  -6205996.76847  20591065.464    20591064.915    20591076.224
       236.000         200.000
  -5356403.21049  -4158817.42447  19657934.166    19657933.770    19657941.990
       233.000         206.000
  -6167906.89749  -4794713.37447  21021963.804    21021963.655    21021973.553
       239.000         200.000
   2338730.40749   1818460.94546  22367297.358    22367297.002    22367309.892
       224.000         179.000
   4009282.21449   3119248.99946  22889081.523    22889080.971    22889092.929
       223.000         170.000
  -7861888.34249  -6090099.33545  23663896.351    23663896.538    23663907.586
       212.000         132.000
 01 11 12 16 42 29.9970000  0  7G25G22G20G 1G29G11G13
   2821343.68849   2194515.49647  21419112.938    21419112.654    21419122.235
       239.000         203.000
  -8081740.51949  -6273626.99747  20574549.376    20574548.898    20574560.248
       236.000         201.000
  -5407999.09449  -4199022.03247  19648115.854    19648115.448    19648123.648
       233.000         206.000
  -6243747.40149  -4853809.89547  21007531.869    21007531.718    21007541.590
       238.000         200.000
   2371557.48149   1844040.24346  22373544.494    22373544.025    22373556.879
       226.000         177.000
   4066392.53649   3163750.26146  22899949.440    22899948.935    22899960.935
       224.000         171.000
  -7966990.81649  -6171997.44245  23643896.069    23643896.349    23643907.206
       214.000         133.000
 01 11 12 16 42 59.9970000  0  7G25G22G20G 1G29G11G13
   2865362.05449   2228815.36147  21427489.471    21427489.188    21427498.794
       239.000         204.000
  -8168057.93049  -6340887.31647  20558123.779    20558123.281    20558134.652
       237.000         202.000
  -5459123.27449  -4238859.08047  19638387.270    19638386.857    19638395.078
       232.000         206.000
  -6319509.50749  -4912845.32347  20993114.820    20993114.665    20993124.539
       238.000         200.000
   2404448.31449   1869669.20546  22379803.725    22379803.173    22379816.022
       223.000         176.000
   4123558.23049   3208294.66946  22910827.961    22910827.429    22910839.501
       223.000         169.000
  -8072114.69549  -6253912.23045  23623891.939    23623892.058    23623902.738
       214.000         134.000
 01 11 12 16 43 29.9970000  0  7G25G22G20G 1G29G11G13
   2909515.44649   2263220.44047  21435891.737    21435891.427    21435901.075
       240.000         204.000
  -8253905.00749  -6407781.14647  20541787.698    20541787.160    20541798.544
       237.000         202.000
  -5509781.50349  -4278333.05047  19628747.345    19628746.941    19628755.178
       232.000         206.000
  -6395200.21749  -4971825.12247  20978711.341    20978711.218    20978721.094
       239.000         201.000
   2437396.06249   1895342.52546  22386073.660    22386073.139    22386085.983
       225.000         177.000
   4180768.90749   3252874.13946  22921715.074    22921714.485    22921726.579
       223.000         168.000
  -8177266.87349  -6335849.10744  23603882.305    23603882.440    23603892.862
       207.000         127.000
 01 11 12 16 43 59.9970000  0  7G25G22G20G 1G29G11G13
   2953799.27049   2297727.15547  21444318.737    21444318.483    21444328.178
       240.000         203.000
  -8339282.58249  -6474309.12247  20525540.927    20525540.377    20525551.780
       237.000         202.000
  -5559975.42649  -4317445.22247  19619195.817    19619195.406    19619203.628
       232.000         206.000
  -6470822.43349  -5030751.55147  20964320.914    20964320.791    20964330.690
       239.000         201.000
   2470397.98249   1921058.05546  22392353.944    22392353.428    22392366.332
       224.000         178.000
   4238018.56449   3297483.97046  22932609.589    22932608.959    22932621.069
       224.000         168.000
  -8282450.49349  -6417810.48844  23583866.538    23583866.591    23583876.988
       205.000         130.000
 01 11 12 16 44 29.9970000  0  7G25G22G20G 1G29G11G13
   2998222.53949   2332342.52547  21452772.377    21452772.077    21452781.808
       239.000         203.000
  -8424177.30349  -6540460.85747  20509385.952    20509385.445    20509396.880
       236.000         201.000
  -5609693.09849  -4356186.29547  19609734.895    19609734.485    19609742.687
       232.000         206.000
  -6546365.12149  -5089616.00547  20949945.692    20949945.520    20949955.443
       239.000         201.000
   2503464.56749   1946823.98446  22398646.416    22398645.957    22398659.004
       222.000         178.000
   4295314.90849   3342130.17246  22943512.973    22943512.328    22943524.526
       224.000         168.000
  -8387654.86949  -6499787.94945  23563846.758    23563846.713    23563857.405
       200.000         132.000
 01 11 12 16 44 59.9970000  0  7G25G22G20G 1G29G11G13
   3042770.79649   2367055.29647  21461249.760    21461249.449    21461259.216
       238.000         203.000
  -8508598.60649  -6606243.67447  20493321.090    20493320.585    20493332.055
       236.000         201.000
  -5658944.85549  -4394564.31847  19600362.612    19600362.211    19600370.426
       232.000         206.000
  -6621839.97149  -5148427.59547  20935583.341    20935583.173    20935593.085
       239.000         201.000
   2536584.37149   1972631.38146  22404949.141    22404948.631    22404961.804
       223.000         178.000
   4352643.02649   3386801.13446  22954422.377    22954421.725    22954433.995
       223.000         168.000
  -8492891.80649  -6581790.81945  23543820.498    23543820.616    23543831.631
       198.000         134.000
 01 11 12 16 45 29.9970000  0  7G25G22G20G 1G29G11G13
   3087447.61549   2401868.24447  21469751.624    21469751.300    21469761.105
       239.000         202.000
  -8592538.66349  -6671651.50647  20477347.809    20477347.321    20477358.788
       237.000         201.000
  -5707724.12149  -4432574.17047  19591080.233    19591079.851    19591088.076
       232.000         206.000
  -6697241.67249  -5207182.17847  20921234.892    20921234.741    20921244.634
       239.000         200.000
   2569762.68349   1998484.37646  22411262.934    22411262.419    22411275.718
       224.000         179.000
   4410005.23949   3431498.65246  22965338.205    22965337.561    22965350.002
       223.000         169.000
  -8598156.22549  -6663815.11345  23523789.432    23523789.437    23523800.587
       202.000         138.000
 01 11 12 16 45 59.9970000  0  7G25G22G20G 1G29G11G13
   3132248.42149   2436777.80447  21478277.083    21478276.739    21478286.572
       239.000         202.000
  -8675998.20549  -6736684.91547  20461465.960    20461465.478    20461476.923
       237.000         201.000
  -5756032.59849  -4470217.17647  19581887.469    19581887.096    19581895.302
       232.000         206.000
  -6772573.04249  -5265881.94947  20906899.783    20906899.646    20906909.566
       238.000         200.000
   2602996.44149   2024380.57746  22417587.191    22417586.753    22417600.171
       224.000         177.000
   4467395.61949   3476218.12246  22976259.499    22976258.819    22976271.304
       222.000         168.000
  -8703450.81049  -6745862.89845  23503752.673    23503752.596    23503763.749
       201.000         140.000
 01 11 12 16 46 29.9970000  0  7G25G22G20G 1G29G11G13
   3177174.00049   2471784.57947  21486826.191    21486825.900    21486835.787
       237.000         201.000
  -8758971.52749  -6801339.43447  20445676.715    20445676.196    20445687.607
       238.000         202.000
  -5803865.75149  -4507489.79947  19572785.201    19572784.779    19572792.997
       232.000         206.000
  -6847830.55849  -5324524.17147  20892578.751    20892578.610    20892588.553
       239.000         200.000
   2636289.17049   2050322.71246  22423922.700    22423922.336    22423935.828
       222.000         174.000
   4524814.40549   3520959.71846  22987186.281    22987185.518    22987198.000
       224.000         167.000
  -8808772.53249  -6827931.81545  23483710.637    23483710.683    23483721.873
       205.000         145.000
 01 11 12 16 46 59.9970000  0  7G25G22G20G 1G29G11G13
   3222241.22249   2506901.74047  21495402.372    21495402.033    21495411.942
       237.000         200.000
  -8841437.15649  -6865598.36647  20429984.055    20429983.528    20429994.919
       237.000         202.000
  -5851203.02449  -4544376.03047  19563777.211    19563776.805    19563785.031
       231.000         206.000
  -6922995.08549  -5383093.94247  20878275.383    20878275.259    20878285.249
       239.000         201.000
   2669659.90649   2076325.64146  22430273.163    22430272.764    22430286.269
       222.000         173.000
   4582277.70449   3565736.01346  22998121.459    22998120.681    22998133.205
       223.000         166.000
  -8914102.27149  -6910007.00845  23463667.003    23463667.132    23463678.390
       205.000         148.000
 01 11 12 16 47 29.9970000  0  7G25G22G20G 1G29G11G13
   3267428.26249   2542112.23847  21504001.253    21504000.970    21504010.873
       239.000         200.000
  -8923413.05049  -6929475.66847  20414384.549    20414384.025    20414395.424
       238.000         202.000
  -5898063.74249  -4580890.91647  19554859.908    19554859.528    19554867.765
       231.000         206.000
  -6998086.84949  -5441607.03447  20863985.884    20863985.786    20863995.771
       239.000         201.000
   2703088.41449   2102373.59046  22436634.610    22436634.220    22436647.797
       222.000         171.000
   4639762.06949   3610528.72746  23009060.574    23009059.826    23009072.384
       221.000         165.000
  -9019460.13949  -6992104.09045  23443618.072    23443618.269    23443629.589
       207.000         151.000
 01 11 12 16 47 59.9970000  0  7G25G22G20G 1G29G11G13
   3312735.25049   2577416.22547  21512623.034    21512622.730    21512632.631
       236.000         199.000
  -9004894.93149  -6992968.04047  20398879.034    20398878.528    20398889.945
       240.000         202.000
  -5944444.66149  -4617031.93947  19546033.930    19546033.548    19546041.811
       231.000         205.000
  -7073103.84649  -5500061.85147  20849710.615    20849710.520    20849720.551
       239.000         202.000
   2736576.91249   2128468.27746  22443007.444    22443007.015    22443020.696
       222.000         171.000
   4697266.42849   3655337.00046  23020003.380    23020002.762    23020015.401
       220.000         164.000
  -9124844.58849  -7074221.87145  23423564.177    23423564.350    23423575.729
       212.000         155.000
 01 11 12 16 48 29.9970000  0  7G25G22G20G 1G29G11G13
   3358149.76649   2612803.98247  21521265.298    21521264.972    21521274.890
       239.000         199.000
  -9085890.63749  -7056081.57047  20383466.090    20383465.579    20383476.943
       238.000         202.000
  -5990354.62849  -4652805.98547  19537297.582    19537297.207    19537305.464
       231.000         205.000
  -7148055.78449  -5558465.97247  20835447.776    20835447.667    20835457.714
       240.000         202.000
   2770115.31549   2154601.84546  22449389.862    22449389.375    22449403.082
       222.000         173.000
   4754777.74249   3700150.70746  23030947.635    23030946.988    23030959.735
       221.000         165.000
  -9230265.39949  -7156367.97745  23403503.357    23403503.527    23403514.953
       215.000         159.000
 01 11 12 16 48 59.9970000  0  7G25G22G20G 1G29G11G13
   3403666.63449   2648271.49847  21529927.027    21529926.687    21529936.618
       237.000         199.000
  -9166401.60049  -7118817.36747  20368145.360    20368144.862    20368156.180
       238.000         202.000
  -6035796.03049  -4688214.92347  19528650.399    19528650.013    19528658.277
       231.000         205.000
  -7222946.12849  -5616822.10347  20821196.705    20821196.543    20821206.547
       240.000         202.000
   2803700.05549   2180771.51146  22455781.118    22455780.581    22455794.242
       223.000         173.000
   4812289.53749   3744964.77446  23041891.971    23041891.347    23041904.185
       222.000         165.000
  -9335726.38949  -7238545.38646  23383434.868    23383435.020    23383446.535
       222.000         163.000
 01 11 12 16 49 29.9970000  0  7G25G22G20G 1G29G11G13
   3449300.63049   2683830.27247  21538610.948    21538610.651    21538620.637
       235.000         199.000
  -9246408.50249  -7181160.39447  20352920.525    20352920.066    20352931.390
       239.000         203.000
  -6080750.70249  -4723244.59247  19520095.847    19520095.454    19520103.711
       230.000         205.000
  -7297758.02349  -5675117.10547  20806960.510    20806960.323    20806970.353
       239.000         202.000
   2837348.11149   2206990.50946  22462184.292    22462183.766    22462197.514
       221.000         171.000
   4869815.57249   3789789.95246  23052839.140    23052838.428    23052851.284
       220.000         164.000
  -9441210.45849  -7320740.78646  23363362.104    23363362.236    23363373.656
       222.000         165.000
 01 11 12 16 49 59.9970000  0  7G25G22G20G 1G29G11G13
   3495046.67949   2719476.35447  21547316.166    21547315.940    21547326.020
       236.000         200.000
  -9325912.05949  -7243111.19847  20337791.473    20337791.018    20337802.358
       238.000         202.000
  -6125220.56449  -4757896.48947  19511633.542    19511633.158    19511641.402
       230.000         205.000
  -7372493.79849  -5733352.79847  20792738.755    20792738.585    20792748.625
       239.000         202.000
   2871056.78549   2233256.74246  22468598.866    22468598.461    22468612.258
       220.000         170.000
   4927349.93149   3834621.59145  23063787.802    23063787.068    23063799.960
       220.000         161.000
  -9546720.87049  -7402956.72046  23343284.210    23343284.370    23343295.747
       223.000         165.000
 01 11 12 16 50 29.9970000  0  7G25G22G20G 1G29G11G13
   3540905.74349   2755210.50847  21556043.017    21556042.753    21556052.910
       237.000         199.000
  -9404907.32349  -7304665.93147  20322759.148    20322758.707    20322770.050
       240.000         203.000
  -6169201.74549  -4792167.59747  19503264.239    19503263.860    19503272.085
       231.000         206.000
  -7447150.59949  -5791526.95047  20778532.078    20778531.902    20778541.954
       240.000         202.000
   2904828.66049   2259572.22546  22475025.668    22475025.236    22475039.114
       221.000         173.000
   4984892.31949   3879459.50446  23074737.983    23074737.257    23074750.162
       221.000         164.000
  -9652254.77549  -7485190.95946  23323201.803    23323201.992    23323213.417
       222.000         166.000
 01 11 12 16 50 59.9970000  0  7G25G22G20G 1G29G11G13
   3586854.22749   2791014.33947  21564786.860    21564786.586    21564796.810
       237.000         199.000
  -9483413.88549  -7365839.85347  20307819.892    20307819.413    20307830.731
       239.000         203.000
  -6212714.75049  -4826073.89147  19494984.073    19494983.667    19494991.893
       231.000         206.000
  -7521750.04649  -5849656.40647  20764336.330    20764336.135    20764346.180
       240.000         203.000
   2938642.21149   2285920.19346  22481460.436    22481459.940    22481473.953
       220.000         171.000
   5042418.21249   3924284.55146  23085685.110    23085684.346    23085697.293
       221.000         166.000
  -9757833.65449  -7567460.20446  23303110.855    23303111.027    23303122.503
       222.000         165.000
 01 11 12 16 51 29.9970000  0  7G25G22G20G 1G29G11G13
   3632910.73749   2826902.34547  21573551.187    21573550.977    21573561.274
       236.000         199.000
  -9561409.01649  -7426615.24647  20292977.920    20292977.412    20292988.767
       238.000         203.000
  -6255738.20349  -4859598.71847  19486797.061    19486796.628    19486804.861
       231.000         206.000
  -7596271.30849  -5907724.93747  20750155.418    20750155.233    20750165.253
       240.000         203.000
   2972517.76249   2312316.45546  22487906.882    22487906.399    22487920.484
       218.000         169.000
   5099944.96249   3969110.25746  23096632.302    23096631.596    23096644.610
       222.000         167.000
  -9863437.05349  -7649748.55546  23283015.281    23283015.438    23283026.941
       221.000         164.000
 01 11 12 16 51 59.9970000  0  7G25G22G20G 1G29G11G13
   3679070.71349   2862870.97347  21582335.298    21582335.068    21582345.432
       237.000         199.000
  -9638892.93049  -7486992.29047  20278233.207    20278232.721    20278244.060
       239.000         204.000
  -6298273.18249  -4892742.91347  19478702.972    19478702.537    19478710.785
       231.000         206.000
  -7670716.50849  -5965734.19547  20735988.987    20735988.803    20735998.808
       240.000         203.000
   3006453.61149   2338759.68746  22494364.773    22494364.333    22494378.483
       218.000         166.000
   5157467.26049   4013932.50246  23107578.587    23107577.981    23107591.089
       221.000         165.000
  -9969067.36649  -7732057.88545  23262914.542    23262914.727    23262926.272
       220.000         161.000
 01 11 12 16 52 29.9970000  0  7G25G22G20G 1G29G11G13
   3725328.20549   2898915.60447  21591137.992    21591137.704    21591148.100
       238.000         199.000
  -9715867.98349  -7546972.82147  20263585.404    20263584.869    20263596.187
       239.000         203.000
  -6340323.15449  -4925509.18147  19470701.161    19470700.732    19470709.012
       230.000         205.000
  -7745090.17049  -6023687.71047  20721836.178    20721835.994    20721846.005
       240.000         204.000
   3040444.97549   2365246.16346  22500833.336    22500832.896    22500846.999
       216.000         168.000
   5214977.76849   4058745.56945  23118522.649    23118522.055    23118535.329
       220.000         162.000
 -10074729.13249  -7814391.73445  23242807.752    23242808.001    23242819.610
       216.000         155.000
 01 11 12 16 52 59.9970000  0  7G25G22G20G 1G29G11G13
   3771686.60649   2935038.86547  21599959.814    21599959.538    21599970.013
       237.000         199.000
  -9792326.25749  -7606550.64847  20249035.807    20249035.310    20249046.644
       240.000         203.000
  -6381881.21349  -4957892.14147  19462792.964    19462792.528    19462800.825
       230.000         205.000
  -7819386.15549  -6081580.70047  20707698.108    20707697.947    20707707.998
       239.000         203.000
   3074497.92949   2391780.62646  22507313.541    22507313.153    22507327.286
       217.000         166.000
   5272479.27149   4103551.59246  23129465.108    23129464.459    23129477.867
       222.000         164.000
 -10180416.13949  -7896745.26745  23222696.113    23222696.437    23222708.052
       212.000         150.000
 01 11 12 16 53 29.9970000  0  7G25G22G20G 1G29G11G13
   3818129.62849   2971228.05547  21608797.709    21608797.469    21608808.015
       238.000         198.000
  -9868280.44249  -7665735.69647  20234582.183    20234581.705    20234593.030
       239.000         204.000
  -6422961.10849  -4989902.50447  19454975.710    19454975.308    19454983.623
       230.000         205.000
  -7893619.06849  -6139424.54547  20693572.065    20693571.890    20693581.953
       240.000         203.000
   3108597.66649   2418351.55846  22513802.653    22513802.300    22513816.509
       216.000         166.000
   5329954.04549   4148336.80346  23140402.505    23140401.817    23140415.302
       220.000         164.000
 -10286143.73949  -7979130.39845  23202576.764    23202577.171    23202588.757
       210.000         146.000
 01 11 12 16 53 59.9970000  0  7G25G22G20G 1G29G11G13
   3864656.07449   3007482.27047  21617651.542    21617651.297    21617661.860
       237.000         198.000
  -9943727.50249  -7724525.57247  20220225.036    20220224.584    20220235.910
       240.000         205.000
  -6463560.80649  -5021538.69047  19447249.874    19447249.491    19447257.792
       230.000         205.000
  -7967787.52449  -6197218.17347  20679458.224    20679458.096    20679468.151
       239.000         202.000
   3142745.38549   2444959.88546  22520300.927    22520300.586    22520314.937
       219.000         168.000
   5387399.99449   4193099.53546  23151334.253    23151333.626    23151347.255
       220.000         166.000
 -10391910.68349  -8061546.20345  23182449.935    23182450.324    23182462.049
       211.000         143.000
 01 11 12 16 54 29.9970000  0  7G25G22G20G 1G29G11G13
   3911279.20949   3043811.81647  21626523.849    21626523.531    21626534.133
       238.000         198.000
 -10018650.40349  -7782907.02147  20205967.672    20205967.235    20205978.546
       240.000         204.000
  -6503664.35949  -5052788.26747  19439618.499    19439618.090    19439626.375
       229.000         205.000
  -8041876.39549  -6254949.77947  20665359.586    20665359.465    20665369.513
       240.000         203.000
   3176956.21049   2471617.37446  22526811.368    22526810.931    22526825.340
       219.000         168.000
   5444829.30849   4237849.31946  23162263.013    23162262.290    23162276.004
       221.000         163.000
 -10497701.63849  -8143980.74945  23162318.449    23162318.870    23162330.753
       212.000         144.000
 01 11 12 16 54 59.9970000  0  7G25G22G20G 1G29G11G13
   3957979.94049   3080201.82647  21635410.820    21635410.509    21635421.171
       237.000         198.000
 -10093064.28049  -7840891.82647  20191807.179    20191806.710    20191818.030
       240.000         204.000
  -6543288.02449  -5083663.89947  19432078.380    19432077.994    19432086.309
       229.000         204.000
  -8115902.55949  -6312632.53147  20651272.906    20651272.788    20651282.843
       240.000         204.000
   3211212.84149   2498310.55146  22533330.419    22533329.997    22533344.437
       218.000         169.000
   5502221.88049   4282570.47545  23173184.729    23173183.990    23173197.691
       220.000         162.000
 -10603533.72249  -8226447.35745  23142179.412    23142179.739    23142191.605
       216.000         146.000
 01 11 12 16 55 29.9970000  0  8G25G22G20G 1G 4G29G11G13
   4004765.10149   3116657.63247  21644313.867    21644313.572    21644324.275
       237.000         197.000
 -10166958.12149  -7898471.41547  20177745.540    20177745.135    20177756.424
       240.000         203.000
  -6582421.93749  -5114157.90747  19424631.494    19424631.083    19424639.446
       229.000         204.000
  -8189856.93349  -6370259.34747  20637199.937    20637199.777    20637209.840
       241.000         204.000
   -150452.08453                  24055855.583
       205.000          81.000
   3245524.28849   2525046.45046  22539859.905    22539859.460    22539874.048
       219.000         169.000
   5559583.72149   4327267.68846  23184100.631    23184099.885    23184113.550
       221.000         163.000
 -10709398.22049  -8308939.21345  23122034.073    23122034.366    23122046.166
       219.000         146.000
 01 11 12 16 55 59.9970000  0  8G25G22G20G 1G 4G29G11G13
   4051643.10549   3153185.78147  21653234.601    21653234.283    21653245.027
       235.000         195.000
 -10240319.78749  -7955636.33247  20163785.275    20163784.867    20163796.122
       239.000         204.000
  -6621054.55649  -5144261.29447  19417279.972    19417279.574    19417287.974
       229.000         204.000
  -8263728.72649  -6427821.81447  20623142.672    20623142.487    20623152.531
       240.000         204.000
    -23859.10143                  24041056.104
       207.000          74.000
   3279901.12949   2551833.31446  22546401.980    22546401.432    22546416.095
       220.000         171.000
   5616922.25849   4371946.72746  23195012.232    23195011.367    23195025.028
       222.000         163.000
 -10815284.62049  -8391448.15545  23101884.529    23101884.849    23101896.603
       218.000         148.000
 01 11 12 16 56 29.9970000  0  8G25G22G20G 1G 4G29G11G13
   4098586.33749   3189764.76047  21662167.682    21662167.383    21662178.141
       235.000         194.000
 -10313173.66249  -8012405.55547  20149921.638    20149921.235    20149932.489
       240.000         204.000
  -6659211.72949  -5173994.20347  19410018.910    19410018.527    19410026.944
       229.000         204.000
  -8337544.00449  -6485340.24247  20609096.142    20609095.916    20609105.959
       241.000         204.000
    -84158.63144                  24026330.546
       206.000          95.000
   3314317.13349   2578650.68346  22552951.497    22552950.834    22552965.557
       219.000         171.000
   5674207.91349   4416584.57545  23205913.673    23205912.743    23205926.454
       222.000         161.000
 -10921219.20749  -8473994.62545  23081725.895    23081726.240    23081737.890
       220.000         150.000
 01 11 12 16 56 59.9970000  0  8G25G22G20G 1G 4G29G11G13
   4145602.91949   3226400.87847  21671114.658    21671114.452    21671125.236
       235.000         193.000
 -10385507.52449  -8068769.59047  20136156.925    20136156.551    20136167.762
       240.000         204.000
  -6696882.10549  -5203347.78447  19402850.495    19402850.118    19402858.572
       229.000         204.000
  -8411292.27649  -6542806.46047  20595062.363    20595062.108    20595072.162
       240.000         204.000
   -144145.54443                  24011681.431
       205.000          88.000
   3348782.58049   2605506.56046  22559510.281    22559509.645    22559524.325
       219.000         169.000
   5731448.41449   4461187.23645  23216806.374    23216805.466    23216819.246
       221.000         161.000
 -11027191.53949  -8556570.53145  23061560.148    23061560.385    23061571.995
       222.000         154.000
 01 11 12 16 57 29.9970000  0  8G25G22G20G 1G 4G29G11G13
   4192701.22049   3263100.68647  21680077.291    21680077.069    21680087.923
       235.000         194.000
 -10457308.98649  -8124718.77847  20122493.618    20122493.180    20122504.346
       239.000         204.000
  -6734054.21649  -5232313.11247  19395776.932    19395776.552    19395785.001
       229.000         204.000
  -8484962.94649  -6600212.21747  20581043.262    20581043.050    20581053.125
       240.000         204.000
    -17526.33743                  23997111.003
       206.000          74.000
   3383308.06449   2632409.22146  22566080.480    22566079.836    22566094.501
       222.000         169.000
   5788651.06749   4505760.39345  23227691.917    23227691.006    23227704.886
       220.000         162.000
 -11133191.17149  -8639167.71845  23041389.152    23041389.366    23041400.985
       223.000         158.000
 01 11 12 16 57 59.9970000  0  8G25G22G20G 1G 4G29G11G13
   4239866.53949   3299852.70347  21689052.699    21689052.444    21689063.338
       235.000         194.000
 -10528589.41049  -8180261.95547  20108929.347    20108928.938    20108940.123
       238.000         204.000
  -6770740.74449  -5260900.06047  19388795.759    19388795.381    19388803.823
       229.000         204.000
  -8558568.99249  -6657567.61747  20567036.517    20567036.314    20567046.405
       239.000         204.000
    -76913.75843                  23982616.804
       207.000          73.000
   3417880.14049   2659348.19446  22572659.624    22572658.951    22572673.619
       219.000         171.000
   5845799.68249   4550291.42145  23238567.136    23238566.270    23238580.240
       220.000         162.000
 -11239231.50549  -8721796.61745  23021210.355    23021210.590    23021222.221
       224.000         160.000
 01 11 12 16 58 29.9970000  0  8G25G22G20G 1G 4G29G11G13
   4287120.89049   3336674.09247  21698045.059    21698044.782    21698055.697
       234.000         194.000
 -10599322.94549  -8235378.99147  20095469.143    20095468.752    20095479.946
       239.000         204.000
  -6806916.72649  -5289089.17547  19381911.743    19381911.355    19381919.805
       228.000         204.000
  -8632085.81649  -6714853.49347  20553046.723    20553046.525    20553056.664
       240.000         204.000
   -136011.99943                  23968203.797
       209.000          80.000
   3452523.38949   2686342.63646  22579252.066    22579251.526    22579266.300
       218.000         171.000
   5902915.53349   4594796.92345  23249436.106    23249435.292    23249449.408
       219.000         161.000
 -11345288.00949  -8804438.07846  23001028.462    23001028.763    23001040.419
       224.000         164.000
 01 11 12 16 58 59.9970000  0  8G25G22G20G 1G 4G29G11G13
   4334441.20249   3373546.87547  21707049.972    21707049.640    21707060.602
       233.000         193.000
 -10669528.94949  -8290084.97847  20082109.421    20082109.003    20082120.162
       239.000         204.000
  -6842602.47449  -5316896.28947  19375120.938    19375120.573    19375129.077
       228.000         203.000
  -8705534.45149  -6772086.23847  20539069.972    20539069.762    20539079.864
       240.000         204.000
    -13335.39843                  23953868.298
       206.000          74.000
   3487216.39949   2713375.84146  22585854.080    22585853.590    22585868.536
       220.000         174.000
   5959974.55749   4639258.14445  23260294.062    23260293.431    23260307.767
       216.000         160.000
 -11451381.93449  -8887108.69346  22980839.559    22980839.839    22980851.534
       224.000         166.000
 01 11 12 16 59 29.9970000  0  8G25G22G20G 1G 4G29G11G13
   4381826.03549   3410469.91347  21716067.130    21716066.776    21716077.821
       236.000         194.000
 -10739205.33249  -8344378.26547  20068850.518    20068850.044    20068861.161
       239.000         204.000
  -6877796.91949  -5344320.56347  19368423.653    19368423.305    19368431.846
       228.000         204.000
  -8778914.45749  -6829265.49747  20525106.273    20525106.047    20525116.121
       240.000         204.000
    -71726.65443                  23939610.056
       204.000          81.000
   3521959.55549   2740448.12846  22592465.708    22592465.206    22592480.261
       220.000         173.000
   6016974.05249   4683672.98745  23271140.769    23271140.259    23271154.749
       219.000         159.000
 -11557513.20249  -8969808.41246  22960643.575    22960643.821    22960655.512
       221.000         163.000
 01 11 12 16 59 59.9970000  0  9G27G25G22G20G 1G 4G29G11G13
  -2118861.92959  -1338658.49655  24597695.772    24597695.500    24597713.032
       213.000         152.000
   4429276.73049   3447444.30147  21725096.852    21725096.484    21725107.567
       232.000         194.000
 -10808347.21549  -8398255.06847  20055693.247    20055692.782    20055703.862
       239.000         204.000
  -6912496.25449  -5371359.03847  19361820.611    19361820.266    19361828.827
       228.000         204.000
  -8852222.22049  -6886388.45747  20511156.312    20511156.070    20511166.138
       240.000         205.000
   -129807.64143                  23925430.310
       209.000          73.000
   3556756.10449   2767562.02546  22599087.622    22599087.020    22599102.149
       220.000         173.000
   6073914.25449   4728041.60945  23281976.537    23281975.887    23281990.497
       217.000         158.000
 -11663678.03749  -9052534.26045  22940440.979    22940441.337    22940453.053
       217.000         161.000
 01 11 12 17  0 29.9970000  0  9G27G25G22G20G 1G 4G29G11G13
  -2236248.70249  -1430128.69345  24575357.698    24575357.521    24575375.045
       211.000         146.000
   4476796.94949   3484472.82147  21734139.713    21734139.422    21734150.531
       235.000         193.000
 -10876947.44349  -8451709.80847  20042639.035    20042638.578    20042649.667
       239.000         204.000
  -6946694.34649  -5398006.93147  19355312.999    19355312.629    19355321.209
       228.000         204.000
  -8925452.04949  -6943450.68947  20497221.116    20497220.910    20497231.007
       240.000         204.000
     -7352.03943                  23911330.425
       210.000          74.000
   3591611.64449   2794721.87646  22605720.666    22605720.031    22605735.264
       221.000         173.000
   6130797.91249   4772366.16245  23292801.428    23292800.725    23292815.453
       217.000         157.000
 -11769871.04649  -9135282.04745  22920233.156    22920233.503    22920245.298
       216.000         159.000
 01 11 12 17  0 59.9970000  0  9G27G25G22G20G 1G 4G29G11G13
  -2353595.72849  -1521567.92545  24553027.205    24553027.076    24553044.544
       209.000         142.000
   4524374.59649   3521546.12647  21743193.667    21743193.320    21743204.453
       237.000         193.000
 -10945014.37149  -8504749.00047  20029686.272    20029685.855    20029696.962
       239.000         205.000
  -6980400.42549  -5424271.43947  19348898.973    19348898.602    19348907.209
       228.000         204.000
  -8998613.60949  -7000459.72947  20483298.899    20483298.742    20483308.863
       241.000         205.000
    -64773.60243                  23897308.411
       208.000          81.000
   3626516.14849   2821919.88946  22612363.112    22612362.429    22612377.700
       221.000         173.000
   6187611.65049   4816636.26045  23303613.031    23303612.286    23303627.121
       218.000         156.000
 -11876102.33349  -9218059.65745  22900017.984    22900018.366    22900030.225
       217.000         158.000
 01 11 12 17  1 29.9970000  0  9G27G25G22G20G 1G 4G29G11G13
  -2470891.49149  -1612967.15445  24530706.315    24530706.379    24530723.736
       206.000         140.000
   4572019.25849   3558671.64847  21752260.295    21752259.939    21752271.146
       234.000         193.000
 -11012535.40249  -8557362.80947  20016837.475    20016837.059    20016848.143
       239.000         205.000
  -7013602.98549  -5450143.59747  19342580.763    19342580.404    19342589.030
       227.000         204.000
  -9071695.66449  -7057406.81247  20469391.907    20469391.735    20469401.837
       240.000         205.000
   -121875.38443                  23883366.679
       205.000          78.000
   3661480.57149   2849164.57746  22619016.929    22619016.227    22619031.504
       220.000         172.000
   6244363.82649   4860858.34345  23314412.980    23314412.154    23314427.050
       216.000         155.000
 -11982360.74649  -9300858.39845  22879797.710    22879798.096    22879809.940
       219.000         157.000
 01 11 12 17  1 59.9970000  0  9G27G25G22G20G 1G 4G29G11G13
  -2588139.19749  -1704328.89445  24508394.982    24508394.902    24508412.173
       209.000         141.000
   4619724.64449   3595844.45647  21761338.490    21761338.122    21761349.397
       234.000         192.000
 -11079512.72649  -8609552.95447  20004092.171    20004091.715    20004102.768
       239.000         205.000
  -7046305.09649  -5475625.79947  19336357.815    19336357.450    19336366.061
       228.000         204.000
  -9144701.84549  -7114294.77247  20455499.387    20455499.161    20455509.268
       240.000         205.000
     -1564.03543                  23869504.425
       208.000          74.000
   3696500.95449   2876452.87646  22625681.222    22625680.617    22625695.864
       219.000         171.000
   6301047.68249   4905027.18945  23325199.804    23325198.985    23325214.022
       215.000         155.000
 -12088650.30149  -9383681.41245  22859571.502    22859571.915    22859583.721
       221.000         159.000
 01 11 12 17  2 29.9960000  0  9G27G25G22G20G 1G 4G29G11G13
  -2705340.82649  -1795654.71145  24486092.451    24486092.231    24486109.475
       209.000         143.000
   4667480.73949   3633056.81047  21770426.425    21770425.967    21770437.256
       235.000         191.000
 -11145949.08549  -8661321.56047  19991449.803    19991449.329    19991460.346
       240.000         205.000
  -7078511.85549  -5500722.01047  19330229.139    19330228.738    19330237.355
       228.000         204.000
  -9217636.00249  -7171126.60247  20441620.494    20441620.286    20441630.374
       240.000         204.000
    -58001.47443                  23855721.392
       208.000          92.000
   3731569.53549   2903778.73646  22632354.730    22632354.174    22632369.478
       217.000         169.000
   6357651.62849   4949133.78145  23335971.410    23335970.633    23335985.776
       218.000         156.000
 -12194973.73449  -9466530.83945  22839338.876    22839339.257    22839351.049
       222.000         159.000
 01 11 12 17  2 59.9960000  0  9G27G25G22G20G 1G 4G29G11G13
  -2822495.90449  -1886944.23345  24463798.661    24463798.372    24463815.705
       210.000         146.000
   4715296.91749   3670315.96747  21779525.746    21779525.238    21779536.569
       232.000         190.000
 -11211839.86949  -8712665.05647  19978911.212    19978910.737    19978921.752
       238.000         205.000
  -7110217.04649  -5525427.38947  19324195.847    19324195.459    19324204.092
       227.000         203.000
  -9290494.97249  -7227899.83647  20427755.851    20427755.690    20427765.785
       240.000         204.000
   -114102.18043                  23842017.932
       204.000          85.000
   3766696.59149   2931150.15846  22639039.411    22639038.833    22639054.265
       220.000         169.000
   6414184.29349   4993184.86545  23346729.422    23346728.678    23346743.875
       217.000         152.000
 -12301330.40249  -9549406.17245  22819099.982    22819100.283    22819112.025
       222.000         157.000
 01 11 12 17  3 29.9960000  0  9G27G25G22G20G 1G 4G29G11G13
  -2939600.02849  -1978194.07445  24441514.473    24441514.118    24441531.733
       211.000         148.000
   4763169.50549   3707619.07347  21788635.665    21788635.233    21788646.581
       232.000         190.000
 -11277181.20749  -8763580.40847  19966477.226    19966476.722    19966487.723
       240.000         206.000
  -7141419.20949  -5549740.79747  19318258.282    19318257.897    19318266.564
       228.000         204.000
  -9363276.21049  -7284612.49547  20413906.082    20413905.886    20413916.019
       240.000         205.000
   -169873.59543                  23828395.185
       204.000          80.000
   3801880.83049   2958566.13646  22645735.022    22645734.434    22645749.898
       218.000         169.000
   6470640.80849   5037176.60845  23357473.099    23357472.298    23357487.560
       219.000         154.000
 -12407717.01249  -9632304.85245  22798855.319    22798855.606    22798867.350
       220.000         156.000
 01 11 12 17  3 59.9960000  0  9G27G25G22G20G 1G 4G29G11G13
  -3056656.61949  -2069406.87245  24419239.328    24419239.028    24419256.674
       211.000         148.000
   4811092.79449   3744961.71147  21797755.282    21797754.894    21797766.226
       235.000         189.000
 -11341975.70749  -8814069.65147  19954147.328    19954146.771    19954157.739
       240.000         205.000
  -7172121.77849  -5573664.90647  19312415.804    19312415.423    19312424.093
       229.000         204.000
  -9435983.49749  -7341267.54047  20400070.343    20400070.186    20400080.277
       240.000         204.000
    -51412.78143                  23814851.810
       203.000          88.000
   3837118.22849   2986023.54746  22652440.630    22652440.079    22652455.573
       218.000         169.000
   6527014.19649   5081103.56245  23368200.889    23368200.106    23368215.402
       216.000         153.000
 -12514137.21649  -9715229.68045  22778604.205    22778604.510    22778616.236
       221.000         158.000
 01 11 12 17  4 29.9960000  0  9G27G25G22G20G 1G 4G29G11G13
  -3173668.59949  -2160584.89845  24396972.678    24396972.417    24396989.972
       212.000         146.000
   4859061.19549   3782339.49947  21806883.567    21806883.150    21806894.518
       235.000         190.000
 -11406225.33549  -8864134.31847  19941921.076    19941920.489    19941931.449
       240.000         205.000
  -7202327.73349  -5597202.05347  19306667.842    19306667.463    19306676.102
       228.000         204.000
  -9508619.88149  -7397867.32747  20386248.102    20386247.936    20386258.053
       241.000         204.000
   -106545.54944                  23801387.751
       209.000         131.000
   3872405.15949   3013519.55546  22659155.682    22659155.171    22659170.720
       218.000         167.000
   6583298.27549   5124960.89745  23378911.637    23378910.903    23378926.291
       213.000         154.000
 -12620594.39749  -9798183.33445  22758346.058    22758346.357    22758358.043
       221.000         159.000
 01 11 12 17  4 59.9960000  0  9G27G25G22G20G 1G 4G29G11G13
  -3290628.16149  -2251722.10745  24374715.989    24374715.715    24374733.242
       209.000         145.000
   4907080.34349   3819756.83847  21816021.499    21816021.044    21816032.419
       234.000         189.000
 -11469921.47149  -8913767.68647  19929800.085    19929799.529    19929810.487
       240.000         205.000
  -7232029.45949  -5620346.29347  19301015.822    19301015.429    19301024.082
       228.000         204.000
  -9581177.76649  -7454405.95047  20372440.787    20372440.658    20372450.779
       242.000         204.000
  -1625041.30349   -161347.75845  23788004.665    23788005.230    23788020.257
       210.000         134.000
   3907749.00149   3041059.91046  22665881.507    22665881.065    22665896.716
       217.000         167.000
   6639497.15649   5168751.82145  23389606.190    23389605.456    23389620.891
       216.000         155.000
 -12727081.38549  -9881160.19745  22738082.270    22738082.593    22738094.253
       219.000         157.000
 01 11 12 17  5 29.9960000  0  9G27G25G22G20G 1G 4G29G11G13
  -3407540.67149  -2342822.65345  24352468.145    24352467.890    24352485.481
       205.000         142.000
   4955142.33249   3857207.53147  21825167.581    21825167.073    21825178.553
       233.000         190.000
 -11533068.69549  -8962973.32147  19917783.584    19917783.016    19917793.944
       239.000         205.000
  -7261232.44949  -5643101.90947  19295458.706    19295458.330    19295466.955
       228.000         203.000
  -9653662.93349  -7510887.91047  20358647.405    20358647.231    20358657.341
       242.000         205.000
  -1694951.07249   -215822.97345  23774701.327    23774702.239    23774715.885
       213.000         132.000
   3943143.74949   3068639.93446  22672617.256    22672616.686    22672632.379
       219.000         166.000
   6695602.22549   5212469.67245  23400283.083    23400282.179    23400297.657
       215.000         155.000
 -12833604.31349  -9964165.09545  22717811.696    22717812.010    22717823.617
       218.000         155.000
 01 11 12 17  5 59.9960000  0  9G27G25G22G20G 1G 4G29G11G13
  -3524392.86249  -2433876.21945  24330231.622    24330231.530    24330249.196
       202.000         143.000
   5003258.39249   3894700.37347  21834323.841    21834323.397    21834334.958
       235.000         191.000
 -11595652.80049  -9011740.15847  19905874.208    19905873.683    19905884.615
       239.000         205.000
  -7289923.35249  -5665458.49747  19289999.052    19289998.661    19290007.302
       229.000         204.000
  -9726062.25249  -7567302.97847  20344870.235    20344870.108    20344880.242
       242.000         205.000
  -1764427.82059   -269960.81454  23761480.343    23761480.043    23761493.217
       211.000         130.000
   3978602.06849   3096269.49646  22679364.959    22679364.361    22679380.136
       217.000         163.000
   6751623.26249   5256122.01445  23410943.981    23410942.919    23410958.442
       211.000         155.000
 -12940149.88249 -10047187.59245  22697536.652    22697537.016    22697548.642
       216.000         154.000
 01 11 12 17  6 29.9960000  0  9G27G25G22G20G 1G 4G29G11G13
  -3641192.88949  -2524889.15745  24308004.990    24308005.092    24308022.714
       201.000         141.000
   5051417.74449   3932226.94147  21843488.414    21843487.980    21843499.641
       235.000         189.000
 -11657681.08049  -9060073.87547  19894070.642    19894070.120    19894081.052
       239.000         206.000
  -7318110.55949  -5687422.59547  19284635.244    19284634.839    19284643.499
       228.000         203.000
  -9798383.97249  -7623657.58547  20331107.862    20331107.760    20331117.891
       242.000         205.000
  -1833479.50249   -323767.36645  23748340.246    23748339.967    23748353.096
       212.000         132.000
   4014115.32749   3123941.86846  22686123.095    22686122.535    22686138.299
       219.000         166.000
   6807548.39249   5299699.59445  23421586.495    23421585.410    23421600.998
       212.000         153.000
 -13046726.62949 -10130234.42545  22677255.649    22677256.093    22677267.804
       215.000         154.000
 01 11 12 17  6 59.9960000  0  9G27G25G22G20G 1G 4G29G11G13
  -3757938.75649  -2615859.92445  24285789.082    24285789.044    24285806.599
       204.000         145.000
   5099619.76249   3969786.74347  21852661.214    21852660.685    21852672.410
       235.000         190.000
 -11719150.96249  -9107972.47847  19882373.323    19882372.813    19882383.743
       240.000         207.000
  -7345792.35249  -5708992.85847  19279367.631    19279367.223    19279375.866
       228.000         204.000
  -9870626.39949  -7679950.40447  20317360.630    20317360.493    20317370.622
       241.000         205.000
  -1902103.99949   -377240.99745  23735281.479    23735281.407    23735294.836
       213.000         133.000
   4049684.78649   3151658.02246  22692892.103    22692891.466    22692907.279
       217.000         165.000
   6863376.22849   5343201.37045  23432210.442    23432209.377    23432225.047
       212.000         152.000
 -13153333.58349 -10213304.78545  22656969.002    22656969.460    22656981.166
       214.000         154.000
 01 11 12 17  7 29.9960000  0  9G27G25G22G20G 1G 4G29G11G13
  -3874629.79949  -2706787.97245  24263583.553    24263583.439    24263600.944
       204.000         147.000
   5147863.14249   4007378.76647  21861841.764    21861841.269    21861852.998
       234.000         189.000
 -11780060.84649  -9155434.71547  19870782.581    19870782.050    19870793.028
       239.000         207.000
  -7372968.08049  -5730168.79047  19274196.267    19274195.870    19274204.537
       229.000         204.000
  -9942789.07849  -7736181.07947  20303628.523    20303628.376    20303638.553
       241.000         205.000
  -1970300.19449   -430380.98245  23722304.317    23722304.348    23722318.201
       213.000         133.000
   4085310.72849   3179418.18446  22699671.696    22699671.100    22699687.016
       214.000         164.000
   6919104.29449   5386625.40045  23442815.326    23442814.336    23442830.168
       213.000         153.000
 -13259970.14849 -10296398.23045  22636676.692    22636677.141    22636688.908
       216.000         154.000
 01 11 12 17  7 59.9960000  0  9G27G25G22G20G 1G 4G29G11G13
  -3991262.19849  -2797670.34545  24241389.093    24241389.004    24241406.464
       205.000         151.000
   5196149.49849   4045004.27847  21871030.494    21871030.036    21871041.809
       235.000         190.000
 -11840406.27549  -9202457.11847  19859299.187    19859298.688    19859309.706
       239.000         207.000
  -7399634.31349  -5750947.71447  19269121.891    19269121.491    19269130.166
       228.000         204.000
 -10014868.58949  -7792346.94447  20289912.290    20289912.133    20289922.303
       242.000         205.000
  -2038064.24449   -483184.22045  23709409.254    23709409.534    23709423.473
       208.000         134.000
   4120996.29049   3207224.81746  22706462.599    22706462.069    22706478.087
       213.000         163.000
   6974732.72149   5429971.81645  23453401.401    23453400.426    23453416.366
       216.000         154.000
 -13366632.88149 -10379512.08345  22616379.415    22616379.896    22616391.592
       218.000         154.000
 01 11 12 17  8 29.9960000  0  9G27G25G22G20G 1G 4G29G11G13
  -4107845.25249  -2888514.31445  24219204.085    24219203.984    24219221.448
       209.000         156.000
   5244466.73249   4082653.86247  21880225.114    21880224.688    21880236.487
       235.000         190.000
 -11900195.86849  -9249046.39547  19847921.588    19847921.118    19847932.139
       239.000         206.000
  -7425800.54349  -5771337.02847  19264142.633    19264142.251    19264150.951
       228.000         204.000
 -10086874.44549  -7848455.41547  20276210.079    20276209.905    20276220.044
       242.000         205.000
  -2105405.54249   -535658.03945  23696594.609    23696594.686    23696608.997
       211.000         137.000
   4156731.68749   3235070.25845  22713262.912    22713262.502    22713278.691
       214.000         162.000
   7030248.89449   5473230.76245  23463966.183    23463965.149    23463981.096
       218.000         156.000
 -13473331.70349 -10462654.05245  22596075.421    22596075.838    22596087.459
       219.000         155.000
 01 11 12 17  8 59.9960000  0  9G27G25G22G20G 1G 4G29G11G13
  -4224382.33949  -2979322.47645  24197027.892    24197027.801    24197045.219
       209.000         158.000
   5292809.67649   4120323.43947  21889424.676    21889424.203    21889436.070
       235.000         190.000
 -11959432.23349  -9295204.58447  19836649.298    19836648.804    19836659.800
       240.000         206.000
  -7451470.40949  -5791339.56547  19259257.811    19259257.463    19259266.198
       228.000         203.000
 -10158810.06249  -7904509.16047  20262521.154    20262521.014    20262531.181
       241.000         206.000
  -2172327.07049   -587804.69445  23683859.982    23683860.038    23683874.348
       209.000         139.000
   4192513.03649   3262951.52045  22720072.251    22720071.756    22720088.004
       216.000         161.000
   7085646.15049   5516397.02945  23474508.405    23474507.310    23474523.222
       218.000         158.000
 -13580070.29249 -10545827.00045  22575763.969    22575764.262    22575775.863
       221.000         157.000
 01 11 12 17  9 29.9960000  0  9G27G25G22G20G 1G 4G29G11G13
  -4340855.24449  -3070080.63645  24174863.946    24174863.847    24174881.231
       210.000         159.000
   5341193.91549   4158025.21247  21898632.033    21898631.567    21898643.442
       234.000         191.000
 -12018096.73749  -9340917.16147  19825485.820    19825485.338    19825496.297
       240.000         206.000
  -7476625.82349  -5810941.23647  19254470.924    19254470.582    19254479.335
       228.000         204.000
 -10230657.32849  -7960494.05647  20248849.062    20248848.941    20248859.124
       241.000         205.000
  -2238810.65649   -639610.14445  23671208.753    23671208.734    23671223.176
       210.000         137.000
   4228357.84349   3290882.22545  22726893.615    22726893.032    22726909.427
       214.000         159.000
   7140939.18149   5559482.07945  23485030.667    23485029.596    23485045.531
       215.000         158.000
 -13686830.88949 -10629017.10645  22555448.137    22555448.431    22555460.048
       219.000         155.000
 01 11 12 17  9 59.9960000  0  9G27G25G22G20G 1G 4G29G11G13
  -4457264.66249  -3160789.32145  24152711.783    24152711.803    24152729.303
       212.000         159.000
   5389616.67549   4195756.99247  21907846.684    21907846.260    21907858.236
       232.000         190.000
 -12076189.22649  -9386184.00847  19814431.159    19814430.672    19814441.664
       240.000         206.000
  -7501267.81049  -5830142.83347  19249781.714    19249781.377    19249790.170
       229.000         204.000
 -10302417.13349  -8016410.80047  20235193.620    20235193.508    20235203.711
       241.000         205.000
  -2304856.93149   -691074.83245  23658640.623    23658640.669    23658654.999
       208.000         139.000
   4264265.02849   3318861.51845  22733726.985    22733726.236    22733742.570
       214.000         159.000
   7196124.03949   5602482.81045  23495532.319    23495531.248    23495547.330
       214.000         156.000
 -13793614.40349 -10712225.08245  22535127.872    22535128.176    22535139.813
       218.000         154.000
 01 11 12 17 10 29.9960000  0  9G27G25G22G20G 1G 4G29G11G13
  -4573625.42849  -3251460.11646  24130569.092    24130569.130    24130586.581
       215.000         163.000
   5438060.79049   4233505.40147  21917065.315    21917064.991    21917077.060
       229.000         188.000
 -12133723.98949  -9431016.27347  19803482.614    19803482.184    19803493.169
       240.000         207.000
  -7525411.54449  -5848956.18947  19245187.384    19245187.028    19245195.805
       229.000         204.000
 -10374104.56449  -8072271.15547  20221552.015    20221551.880    20221562.060
       241.000         206.000
  -2370480.61749   -742210.21945  23646152.809    23646152.920    23646167.428
       210.000         141.000
   4300218.89349   3346877.20045  22740569.030    22740568.331    22740584.603
       213.000         158.000
   7251182.43149   5645384.97445  23506009.882    23506008.826    23506024.994
       216.000         155.000
 -13900436.15749 -10795462.83745  22514800.367    22514800.732    22514812.320
       217.000         153.000
 01 11 12 17 10 59.9960000  0  9G27G25G22G20G 1G 4G29G11G13
  -4689930.51349  -3342087.48246  24108436.970    24108437.007    24108454.439
       216.000         163.000
   5486531.09849   4271274.23647  21926289.139    21926288.753    21926300.904
       228.000         188.000
 -12190693.30549  -9475407.92547  19792641.697    19792641.267    19792652.255
       240.000         207.000
  -7549050.21449  -5867375.99047  19240689.169    19240688.786    19240697.558
       229.000         204.000
 -10445712.69349  -8128069.70947  20207925.486    20207925.330    20207935.491
       242.000         205.000
  -2435674.71949   -793010.93445  23633746.681    23633746.951    23633761.461
       210.000         140.000
   4336226.17049   3374934.48445  22747421.291    22747420.549    22747436.906
       214.000         156.000
   7306118.05749   5688191.49445  23516464.119    23516463.041    23516479.329
       216.000         155.000
 -14007289.56249 -10878725.24545  22494466.798    22494467.220    22494478.727
       218.000         152.000
 01 11 12 17 11 29.9960000  0  9G27G25G22G20G 1G 4G29G11G13
  -4806178.95749  -3432670.70745  24086315.591    24086315.624    24086333.071
       213.000         162.000
   5535026.26749   4309062.44946  21935517.740    21935517.295    21935529.424
       228.000         185.000
 -12247095.85449  -9519357.95447  19781908.682    19781908.233    19781919.210
       240.000         207.000
  -7572183.31349  -5885401.84047  19236287.232    19236286.782    19236295.518
       230.000         204.000
 -10517240.63449  -8183805.78247  20194314.143    20194314.020    20194324.181
       242.000         205.000
  -2500438.02349   -843475.91145  23621422.618    23621422.946    23621437.366
       208.000         140.000
   4372287.46149   3403033.86145  22754283.840    22754283.063    22754299.445
       212.000         154.000
   7360928.61849   5730900.55445  23526894.585    23526893.550    23526909.921
       215.000         153.000
 -14114173.78649 -10962011.68445  22474127.534    22474127.916    22474139.317
       216.000         154.000
 01 11 12 17 11 59.9960000  0  9G27G25G22G20G 1G 4G29G11G13
  -4922367.00349  -3523206.83045  24064205.558    24064205.692    24064223.206
       214.000         158.000
   5583547.88749   4346871.26247  21944751.347    21944750.882    21944763.041
       230.000         188.000
 -12302927.36949  -9562863.02347  19771284.247    19771283.832    19771294.820
       240.000         207.000
  -7594807.57849  -5903031.20147  19231982.028    19231981.582    19231990.321
       230.000         204.000
 -10588684.78549  -8239476.56547  20180718.816    20180718.662    20180728.793
       241.000         205.000
  -2564766.85849   -893602.35245  23609181.346    23609181.682    23609196.031
       211.000         141.000
   4408405.58049   3431177.53745  22761156.975    22761156.361    22761172.759
       211.000         151.000
   7415614.29349   5773512.28345  23537301.247    23537300.202    23537316.755
       216.000         154.000
 -14221085.69149 -11045319.66845  22453782.895    22453783.243    22453794.674
       214.000         153.000
 01 11 12 17 12 29.9960000  0  9G27G25G22G20G 1G 4G29G11G13
  -5038493.05549  -3613694.63245  24042107.406    24042107.572    24042125.155
       211.000         152.000
   5632095.23849   4384700.12646  21953989.783    21953989.327    21954001.553
       233.000         187.000
 -12358185.56949  -9605921.35147  19760768.981    19760768.559    19760779.495
       241.000         207.000
  -7616921.62849  -5920262.99047  19227773.888    19227773.453    19227782.206
       229.000         204.000
 -10660043.53149  -8295080.79647  20167139.701    20167139.560    20167149.692
       242.000         206.000
  -2628659.52849   -943388.91945  23597023.230    23597023.460    23597037.613
       212.000         142.000
   4444581.57449   3459366.29245  22768041.154    22768040.596    22768057.162
       208.000         149.000
   7470173.72349   5816025.63645  23547683.894    23547682.866    23547699.463
       216.000         156.000
 -14328023.83549 -11128648.08245  22433433.151    22433433.558    22433445.035
       215.000         152.000
 01 11 12 17 12 59.9960000  0  9G27G25G22G20G 1G 4G29G11G13
  -5154559.24949  -3704135.78545  24020020.709    24020020.840    24020038.430
       210.000         148.000
   5680664.33049   4422545.90847  21963232.350    21963231.901    21963244.200
       234.000         188.000
 -12412872.14449  -9648534.26547  19750362.509    19750362.060    19750372.967
       241.000         207.000
  -7638527.83449  -5937099.06047  19223662.380    19223661.966    19223670.715
       230.000         204.000
 -10731319.25249  -8350620.33447  20153576.373    20153576.256    20153586.387
       241.000         206.000
  -2692118.19449   -992837.28045  23584947.390    23584947.586    23584961.959
       211.000         140.000
   4480813.09949   3487598.35045  22774935.935    22774935.400    22774952.051
       207.000         148.000
   7524601.33249   5858436.28645  23558041.544    23558040.451    23558057.124
       214.000         154.000
 -14434990.80249 -11211998.94445  22413078.000    22413078.416    22413089.959
       213.000         152.000
 01 11 12 17 13 29.9960000  0  9G27G25G22G20G 1G 4G29G11G13
  -5270568.38249  -3794532.41345  23997945.121    23997945.065    23997962.660
       210.000         145.000
   5729249.67349   4460404.36146  21972478.066    21972477.584    21972489.945
       229.000         184.000
 -12466989.55849  -9690703.68047  19740064.345    19740063.860    19740074.736
       241.000         207.000
  -7659629.84949  -5953542.25547  19219646.901    19219646.453    19219655.163
       230.000         205.000
 -10802514.91349  -8406097.49247  20140028.325    20140028.201    20140038.320
       242.000         206.000
  -2755145.83949  -1041949.85745  23572953.741    23572953.952    23572968.210
       213.000         147.000
   4517096.62249   3515870.87745  22781840.603    22781840.072    22781857.026
       212.000         152.000
   7578891.02649   5900739.42645  23568372.837    23568371.737    23568388.534
       214.000         154.000
 -14541989.67849 -11295374.65145  22392716.709    22392717.199    22392728.829
       216.000         155.000
 01 11 12 17 13 59.9960000  0  9G27G25G22G20G 1G 4G29G11G13
  -5386525.02849  -3884888.13545  23975879.476    23975879.342    23975896.758
       208.000         144.000
   5777844.79949   4498270.49246  21981725.637    21981725.116    21981737.438
       229.000         184.000
 -12520541.94849  -9732432.82847  19729873.660    19729873.187    19729884.034
       240.000         207.000
  -7680232.24749  -5969596.13947  19215726.453    19215726.005    19215734.686
       230.000         205.000
 -10873635.13349  -8461515.86447  20126494.629    20126494.489    20126504.614
       242.000         206.000
  -2817746.94549  -1090729.99245  23561041.340    23561041.495    23561055.722
       217.000         151.000
   4553427.01749   3544179.94745  22788754.431    22788753.766    22788770.849
       212.000         154.000
   7633034.90649   5942928.96945  23578676.429    23578675.278    23578692.245
       212.000         152.000
 -14649025.25149 -11378778.97945  22372348.647    22372349.055    22372360.741
       216.000         156.000
 01 11 12 17 14 29.9960000  0  9G27G25G22G20G 1G 4G29G11G13
  -5502415.85249  -3975192.58245  23953826.048    23953825.960    23953843.413
       209.000         144.000
   5826460.75949   4536152.81947  21990977.219    21990976.641    21990989.080
       231.000         189.000
 -12573515.33749  -9773710.80747  19719793.164    19719792.692    19719803.547
       241.000         208.000
  -7700322.18549  -5985250.69547  19211903.490    19211903.060    19211911.764
       230.000         205.000
 -10944666.56249  -8516865.04247  20112977.768    20112977.661    20112987.799
       241.000         206.000
  -2879908.08049  -1139167.35045  23549212.586    23549212.745    23549226.927
       216.000         151.000
   4589817.29849   3572535.64445  22795679.569    22795678.811    22795696.045
       211.000         154.000
   7687043.28849   5985012.90245  23588954.188    23588953.082    23588970.102
       213.000         150.000
 -14756084.47849 -11462201.72745  22351975.763    22351976.295    22351988.071
       215.000         155.000
 01 11 12 17 14 59.9960000  0  9G27G25G22G20G 1G 4G29G11G13
  -5618235.83149  -4065441.82845  23931786.326    23931786.159    23931803.559
       207.000         143.000
   5875100.73549   4574053.83446  22000233.099    22000232.667    22000245.228
       231.000         186.000
 -12625904.09649  -9814533.23747  19709823.986    19709823.475    19709834.290
       241.000         208.000
  -7719895.07749  -6000502.35947  19208178.930    19208178.518    19208187.220
       231.000         205.000
 -11015604.02449  -8572141.00447  20099478.868    20099478.719    20099488.881
       242.000         206.000
  -2941624.14149  -1187257.84645  23537468.457    23537468.658    23537482.732
       217.000         148.000
   4626271.96549   3600941.53945  22802616.896    22802616.210    22802633.389
       213.000         156.000
   7740917.96249   6026992.63645  23599206.672    23599205.508    23599222.526
       211.000         150.000
 -14863162.60949 -11545639.20145  22331599.531    22331600.047    22331611.818
       217.000         157.000
 01 11 12 17 15 29.9960000  0  9G27G25G22G20G 1G 4G29G11G13
  -5733986.92649  -4155637.35745  23909759.430    23909759.395    23909776.988
       206.000         144.000
   5923760.68949   4611970.44746  22009492.844    22009492.503    22009505.062
       228.000         185.000
 -12677709.81349  -9854901.35447  19699965.658    19699965.184    19699975.999
       241.000         208.000
  -7738953.15149  -6015352.86847  19204552.301    19204551.911    19204560.674
       230.000         206.000
 -11086449.42049  -8627345.23247  20085997.465    20085997.324    20086007.458
       241.000         206.000
  -3002897.06849  -1235003.03945  23525808.523    23525808.793    23525822.944
       214.000         147.000
   4662788.69549   3629395.79445  22809565.997    22809565.355    22809582.694
       213.000         155.000
   7794653.88949   6068864.25845  23609432.598    23609431.454    23609448.550
       211.000         150.000
 -14970261.40349 -11629092.75545  22311219.400    22311219.842    22311231.638
       215.000         154.000
 01 11 12 17 15 59.9960000  0  9G27G25G22G20G 1G 4G29G11G13
  -5849670.80449  -4245780.52045  23887745.247    23887745.368    23887763.132
       205.000         146.000
   5972436.75549   4649899.63646  22018755.938    22018755.467    22018768.052
       228.000         187.000
 -12728934.02549  -9894816.34747  19690218.023    19690217.549    19690228.357
       240.000         208.000
  -7757498.67749  -6029803.98747  19201023.306    19201022.873    19201031.660
       232.000         206.000
 -11157204.54349  -8682479.10447  20072533.229    20072533.096    20072543.239
       240.000         207.000
  -3063728.92449  -1282404.54945  23514232.592    23514232.888    23514247.183
       217.000         150.000
   4699365.26849   3657896.69445  22816526.673    22816525.897    22816543.335
       216.000         154.000
   7848246.13349   6110623.92745  23619631.170    23619630.055    23619647.289
       213.000         147.000
 -15077382.95349 -11712564.05645  22290834.741    22290835.227    22290847.112
       214.000         153.000
 01 11 12 17 16 29.9960000  0  9G27G25G22G20G 1G 4G29G11G13
  -5965291.24449  -4335874.25945  23865743.413    23865743.502    23865761.173
       209.000         150.000
   6021122.95949   4687836.66846  22028020.733    22028020.309    22028033.033
       232.000         187.000
 -12779580.04349  -9934280.79947  19680580.423    19680579.925    19680590.765
       240.000         208.000
  -7775535.98449  -6043859.09547  19197591.013    19197590.556    19197599.362
       231.000         206.000
 -11227873.22149  -8737545.61247  20059085.414    20059085.309    20059095.469
       240.000         206.000
  -3124123.42349  -1329465.24745  23502740.000    23502740.262    23502754.564
       218.000         151.000
   4735997.28149   3686440.74845  22823497.808    22823497.055    22823514.449
       215.000         155.000
   7901687.49349   6152266.03945  23629801.337    23629800.069    23629817.307
       211.000         145.000
 -15184531.67549 -11796056.51645  22270444.941    22270445.408    22270457.413
       213.000         152.000
 01 11 12 17 16 59.9960000  0  9G27G25G22G20G 1G 4G29G11G13
  -6080826.63049  -4425901.69345  23843757.731    23843757.784    23843775.422
       212.000         154.000
   6069839.08049   4725797.04546  22037291.173    22037290.809    22037303.590
       225.000         181.000
 -12829625.94449  -9973277.63647  19671057.013    19671056.515    19671067.380
       240.000         208.000
  -7793043.95449  -6057501.73247  19194259.457    19194258.964    19194267.757
       231.000         206.000
 -11298433.74649  -8792527.85547  20045658.212    20045658.094    20045668.280
       240.000         206.000
  -3184059.09449  -1376168.42145  23491334.732    23491334.944    23491349.112
       218.000         152.000
   4772705.87649   3715044.49645  22830483.490    22830482.726    22830500.191
       217.000         158.000
   7954996.57749   6193805.03145  23639946.244    23639944.911    23639962.088
       210.000         140.000
 -15291685.84549 -11879553.23945  22250054.081    22250054.578    22250066.679
       215.000         152.000
 01 11 12 17 17 29.9960000  0  9G27G25G22G20G 1G 4G29G11G13
  -6196288.17649  -4515871.60245  23821786.083    23821786.141    23821803.775
       215.000         156.000
   6118571.81249   4763770.39946  22046564.918    22046564.537    22046577.352
       223.000         181.000
 -12879082.68249 -10011815.38547  19661645.696    19661645.217    19661656.127
       240.000         209.000
  -7810034.19349  -6070740.94047  19191026.358    19191025.873    19191034.679
       232.000         205.000
 -11368897.21849  -8847434.46047  20032249.431    20032249.360    20032259.579
       240.000         207.000
  -3243547.32949  -1422522.96245  23480014.526    23480014.765    23480028.883
       219.000         152.000
   4809479.37449   3743698.80145  22837481.648    22837480.782    22837498.246
       220.000         160.000
   8008159.05249   6235229.84245  23650063.039    23650061.779    23650079.089
       209.000         137.000
 -15398856.88549 -11963063.09645  22229660.098    22229660.592    22229672.754
       214.000         153.000
 01 11 12 17 17 59.9960000  0  9G27G25G22G20G 1G 4G29G11G13
  -6311689.74649  -4605794.80445  23799825.882    23799825.964    23799843.472
       217.000         161.000
   6167305.06549   4801744.08446  22055838.559    22055838.325    22055851.289
       231.000         185.000
 -12927963.90649 -10049904.68147  19652343.958    19652343.453    19652354.396
       241.000         209.000
  -7826521.32449  -6083588.12147  19187888.993    19187888.525    19187897.340
       231.000         205.000
 -11439277.48049  -8902276.22747  20018856.581    20018856.454    20018866.701
       240.000         207.000
  -3302602.09449  -1468539.76245  23468776.749    23468777.051    23468791.132
       219.000         148.000
   4846303.37949   3772392.47146  22844489.378    22844488.510    22844505.937
       219.000         163.000
   8061157.85449   6276527.08445  23660148.697    23660147.517    23660165.047
       206.000         135.000
 -15506058.80449 -12046597.01845  22209260.150    22209260.723    22209272.943
       216.000         154.000
 01 11 12 17 18 29.9960000  0  9G27G25G22G20G 1G 4G29G11G13
  -6427029.45249  -4695669.78846  23777877.479    23777877.560    23777895.004
       219.000         166.000
   6216038.66849   4839718.08546  22065112.597    22065112.217    22065125.245
       224.000         180.000
 -12976267.48349 -10087543.85547  19643152.131    19643151.621    19643162.579
       241.000         209.000
  -7842504.06249  -6096042.26447  19184847.599    19184847.147    19184855.980
       231.000         206.000
 -11509572.56849  -8957051.63447  20005479.839    20005479.735    20005490.037
       240.000         207.000
  -3361221.59549  -1514217.33345  23457621.990    23457622.231    23457636.237
       219.000         150.000
   4883179.49149   3801126.74145  22851506.910    22851506.137    22851523.535
       214.000         162.000
   8113991.96549   6317695.97445  23670203.151    23670201.819    23670219.536
       205.000         137.000
 -15613289.85949 -12130153.67845  22188854.792    22188855.386    22188867.573
       216.000         153.000
 01 11 12 17 18 59.9960000  0  9G27G25G22G20G 1G 4G29G11G13
  -6542295.74449  -4785487.54446  23755943.051    23755943.072    23755960.508
       218.000         168.000
   6264782.00149   4877699.69746  22074388.504    22074387.982    22074401.062
       231.000         183.000
 -13023981.32749 -10124723.49747  19634072.485    19634071.979    19634082.968
       240.000         209.000
  -7857970.99249  -6108094.47647  19181904.409    19181903.938    19181912.803
       231.000         206.000
 -11579770.70449  -9011751.49347  19992121.576    19992121.471    19992131.796
       240.000         206.000
  -3419394.24449  -1559546.71145  23446552.151    23446552.374    23446566.438
       215.000         147.000
   4920118.80149   3829910.27346  22858536.486    22858535.715    22858553.210
       216.000         164.000
   8166669.75049   6358743.04745  23680227.643    23680226.428    23680244.279
       199.000         138.000
 -15720538.66049 -12213724.16945  22168446.021    22168446.594    22168458.722
       216.000         151.000
 01 11 12 17 19 29.9960000  0  9G27G25G22G20G 1G 4G29G11G13
  -6657469.31949  -4875233.04946  23734026.284    23734026.247    23734043.620
       219.000         168.000
   6313552.88049   4915702.69746  22083669.448    22083668.924    22083682.097
       227.000         183.000
 -13071086.17249 -10161428.58947  19625108.733    19625108.245    19625119.245
       240.000         209.000
  -7872903.57449  -6119730.31247  19179062.842    19179062.406    19179071.298
       231.000         206.000
 -11649852.64549  -9066360.81747  19978785.498    19978785.359    19978795.635
       241.000         207.000
  -3477101.15349  -1604513.14745  23435570.838    23435571.053    23435585.366
       215.000         144.000
   4957140.00749   3858757.58346  22865581.667    22865580.906    22865598.545
       217.000         164.000
   8219207.45149   6399680.90545  23690225.349    23690224.187    23690242.477
       205.000         139.000
 -15827785.92149 -12297293.43545  22148037.508    22148038.061    22148050.093
       215.000         151.000
 01 11 12 17 19 59.9960000  0  9G27G25G22G20G 1G 4G29G11G13
  -6772564.95349  -4964917.84246  23712124.128    23712124.232    23712141.570
       218.000         167.000
   6362334.19249   4953713.86546  22092952.495    22092951.916    22092965.159
       228.000         181.000
 -13117596.39649 -10197670.34147  19616258.101    19616257.643    19616268.666
       240.000         209.000
  -7887317.35349  -6130961.88447  19176320.054    19176319.601    19176328.549
       231.000         206.000
 -11719833.09349  -9120891.05847  19965468.705    19965468.561    19965478.794
       241.000         207.000
  -3534357.15349  -1649128.35145  23424675.413    23424675.609    23424689.968
       216.000         141.000
   4994227.88149   3887656.85945  22872639.485    22872638.807    22872656.568
       215.000         161.000
   8271587.12949   6440495.67245  23700193.210    23700192.066    23700210.618
       210.000         144.000
 -15935046.63049 -12380873.20345  22127626.420    22127626.957    22127638.907
       215.000         153.000
 01 11 12 17 20 29.9960000  0  9G27G25G22G20G 1G 4G29G11G13
  -6887606.73149  -5054560.66846  23690232.181    23690232.372    23690249.789
       217.000         164.000
   6411100.16449   4991713.05446  22102232.467    22102231.917    22102245.221
       228.000         182.000
 -13163536.14349 -10233467.55747  19607516.116    19607515.627    19607526.639
       241.000         210.000
  -7901237.17049  -6141808.54847  19173671.271    19173670.812    19173679.773
       232.000         206.000
 -11789736.18749  -9175361.01947  19952166.605    19952166.448    19952176.690
       240.000         206.000
  -3591186.74649  -1693411.27645  23413861.196    23413861.373    23413875.699
       216.000         144.000
   5031357.87649   3916588.97346  22879705.345    22879704.663    22879722.519
       215.000         163.000
   8323781.52849   6481166.07945  23710125.811    23710124.666    23710143.456
       209.000         146.000
 -16042345.12149 -12464482.43945  22107208.186    22107208.741    22107220.649
       218.000         155.000
 01 11 12 17 20 59.9960000  0  9G27G25G22G20G 1G 4G29G11G13
  -7002574.81749  -5144146.06445  23668354.285    23668354.544    23668371.962
       213.000         162.000
   6459868.43749   5029714.06246  22111512.933    22111512.435    22111525.717
       227.000         179.000
 -13208885.45949 -10268804.69747  19598886.442    19598885.957    19598897.011
       240.000         210.000
  -7914643.51149  -6152255.10347  19171120.161    19171119.712    19171128.703
       231.000         205.000
 -11859541.97249  -9229755.15747  19938883.028    19938882.863    19938893.096
       240.000         207.000
  -3647570.21949  -1737346.56145  23403131.804    23403132.002    23403146.293
       216.000         141.000
   5068549.53349   3945569.12045  22886783.020    22886782.275    22886800.265
       215.000         162.000
   8375807.71049   6521705.32745  23720026.574    23720025.373    23720044.268
       212.000         149.000
 -16149661.60649 -12548105.67845  22086786.640    22086787.092    22086798.974
       218.000         157.000
 01 11 12 17 21 29.9960000  0  9G27G25G22G20G 1G 4G29G11G13
  -7117476.04849  -5233679.35445  23646489.183    23646489.450    23646506.901
       213.000         159.000
   6508630.25649   5067710.00446  22120792.137    22120791.667    22120805.004
       228.000         180.000
 -13253650.95949 -10303686.91247  19590367.906    19590367.388    19590378.457
       241.000         210.000
  -7927544.03549  -6162307.51347  19168665.281    19168664.853    19168673.875
       231.000         204.000
 -11929256.97249  -9284078.55947  19925616.728    19925616.564    19925626.818
       240.000         207.000
  -3703514.70849  -1780939.70445  23392486.064    23392486.210    23392500.494
       212.000         136.000
   5105795.13649   3974591.29145  22893870.900    22893870.129    22893888.167
       214.000         160.000
   8427655.41449   6562105.54245  23729893.350    23729892.057    23729911.118
       213.000         151.000
 -16257002.98349 -12631748.32545  22066360.238    22066360.706    22066372.617
       217.000         156.000
 01 11 12 17 21 59.9960000  0  9G27G25G22G20G 1G 4G29G11G13
  -7232306.58249  -5323157.57845  23624637.502    23624637.821    23624655.222
       212.000         156.000
   6557387.28349   5105702.24646  22130070.508    22130070.024    22130083.368
       226.000         180.000
 -13297828.87449 -10338111.26547  19581961.132    19581960.635    19581971.721
       240.000         210.000
  -7939935.61249  -6171963.34147  19166307.242    19166306.833    19166315.887
       232.000         205.000
 -11998877.05649  -9338327.99747  19912368.498    19912368.313    19912378.590
       240.000         206.000
  -3759016.40749  -1824187.89144  23381924.328    23381924.597    23381938.683
       210.000         129.000
   5143098.38049   4003658.39445  22900969.672    22900968.982    22900987.097
       212.000         161.000
   8479325.70449   6602367.54145  23739726.185    23739724.966    23739744.176
       211.000         146.000
 -16364365.63849 -12715407.56145  22045929.889    22045930.292    22045942.188
       217.000         156.000
 01 11 12 17 22 29.9960000  0  9G27G25G22G20G 1G 4G29G11G13
  -7347059.99749  -5412575.69945  23602800.578    23602800.921    23602818.311
       212.000         157.000
   6606144.25349   5143694.39146  22139348.829    22139348.342    22139361.766
       227.000         181.000
 -13341412.56149 -10372072.58847  19573667.471    19573666.960    19573678.033
       241.000         210.000
  -7951812.44149  -6181218.06747  19164047.216    19164046.796    19164055.859
       231.000         205.000
 -12068395.76649  -9392498.44547  19899139.503    19899139.339    19899149.642
       239.000         206.000
  -3814069.39549  -1867086.41944  23371448.174    23371448.493    23371462.217
       208.000         129.000
   5180465.23349   4032775.04445  22908080.478    22908079.885    22908098.145
       209.000         156.000
   8530821.70849   6642493.71045  23749525.964    23749524.737    23749544.032
       208.000         142.000
 -16471742.99049 -12799078.22845  22025496.549    22025497.036    22025508.942
       216.000         156.000
 01 11 12 17 22 59.9960000  0  9G27G25G22G20G 1G 4G29G11G13
  -7461732.88549  -5501931.06645  23580979.034    23580979.358    23580996.773
       214.000         157.000
   6654902.91949   5181687.91446  22148627.614    22148627.059    22148640.437
       227.000         181.000
 -13384398.69049 -10405568.27447  19565487.544    19565487.005    19565498.032
       241.000         209.000
  -7963171.94349  -6190069.67947  19161885.635    19161885.197    19161894.275
       231.000         206.000
 -12137809.46849  -9446587.07147  19885930.517    19885930.361    19885940.690
       240.000         206.000
  -3868670.45449  -1909632.81045  23361057.865    23361058.225    23361071.988
       208.000         133.000
   5217898.51549   4061943.46645  22915203.919    22915203.420    22915221.887
       210.000         157.000
   8582144.08649   6682484.53345  23759292.864    23759291.512    23759310.911
       208.000         144.000
 -16579131.78349 -12882757.80945  22005061.156    22005061.604    22005073.544
       217.000         157.000
 01 11 12 17 23 29.9960000  0  9G27G25G22G20G 1G 4G29G11G13
  -7576317.66249  -5591217.77945  23559174.481    23559174.574    23559191.932
       214.000         158.000
   6703668.91449   5219687.05846  22157907.550    22157907.071    22157920.598
       226.000         182.000
 -13426779.70149 -10438592.44447  19557422.674    19557422.174    19557433.200
       241.000         209.000
  -7974007.29249  -6198512.85647  19159823.694    19159823.320    19159832.442
       231.000         205.000
 -12207110.52849  -9500587.92847  19872742.964    19872742.821    19872753.126
       239.000         206.000
  -3922812.54849  -1951821.53245  23350754.941    23350755.435    23350769.283
       210.000         138.000
   5255405.37649   4091169.21445  22922341.648    22922341.102    22922359.673
       206.000         156.000
   8633297.45449   6722343.68245  23769027.336    23769026.102    23769045.573
       208.000         147.000
 -16686524.45749 -12966440.39945  21984625.137    21984625.546    21984637.374
       219.000         158.000
 01 11 12 17 23 59.9960000  0  9G27G25G22G20G 1G 4G29G11G13
  -7690825.32249  -5680444.42545  23537384.404    23537384.420    23537401.767
       215.000         157.000
   6752429.09849   5257681.72846  22167186.496    22167186.024    22167199.613
       230.000         180.000
 -13468566.61349 -10471153.67747  19549470.945    19549470.420    19549481.419
       241.000         210.000
  -7984330.38649  -6206556.87347  19157859.321    19157858.938    19157868.070
       232.000         205.000
 -12276309.75149  -9554509.42747  19859574.826    19859574.664    19859584.941
       239.000         205.000
  -3976506.78249  -1993661.28445  23340537.428    23340537.873    23340551.846
       210.000         141.000
   5292974.35449   4120443.37245  22929490.950    22929490.484    22929509.223
       208.000         155.000
   8684267.85349   6762060.26545  23778726.959    23778725.856    23778745.477
       209.000         148.000
 -16793932.01349 -13050134.60745  21964186.197    21964186.610    21964198.370
       218.000         158.000
 01 11 12 17 24 29.9960000  0  9G27G25G22G20G 1G 4G29G11G13
  -7805257.66149  -5769612.40345  23515608.315    23515608.539    23515625.838
       212.000         157.000
   6801180.07749   5295669.24446  22176463.756    22176463.260    22176476.817
       226.000         179.000
 -13509761.18149 -10503253.35447  19541631.888    19541631.368    19541642.393
       241.000         210.000
  -7994143.58449  -6214203.56847  19155991.959    19155991.583    19156000.755
       231.000         206.000
 -12345408.55749  -9608352.67847  19846425.782    19846425.628    19846435.892
       240.000         206.000
  -4029755.13949  -2035153.62545  23330404.689    23330405.097    23330419.081
       208.000         136.000
   5330603.32049   4149764.28245  22936651.995    22936651.337    22936670.103
       211.000         158.000
   8735050.40649   6801630.46245  23788391.067    23788389.814    23788409.613
       210.000         144.000
 -16901356.23749 -13133841.77945  21943744.065    21943744.471    21943756.249
       217.000         159.000
 01 11 12 17 24 59.9960000  0  9G27G25G22G20G 1G 4G29G11G13
  -7919611.09549  -5858718.87745  23493847.340    23493847.658    23493864.952
       215.000         158.000
   6849923.48849   5333650.80846  22185739.584    22185739.030    22185752.655
       226.000         177.000
 -13550359.90849 -10534888.74047  19533906.260    19533905.727    19533916.728
       241.000         210.000
  -8003443.94249  -6221450.65247  19154222.176    19154221.808    19154231.030
       231.000         206.000
 -12414403.26149  -9662114.81047  19833296.501    19833296.372    19833306.651
       239.000         206.000
  -4082554.62149  -2076296.15245  23320357.529    23320357.721    23320371.703
       203.000         133.000
   5368295.41449   4179134.34945  22943824.945    22943824.229    22943843.022
       209.000         153.000
   8785645.84649   6841054.84445  23798019.580    23798018.294    23798038.159
       208.000         140.000
 -17008793.66749 -13217559.24845  21923299.217    21923299.748    21923311.618
       216.000         159.000
 01 11 12 17 25 29.9960000  0  9G27G25G22G20G 1G 4G29G11G13
  -8033878.76849  -5947758.53945  23472102.955    23472103.183    23472120.412
       216.000         159.000
   6898664.54249   5371630.58646  22195014.999    22195014.385    22195027.958
       230.000         178.000
 -13590355.80949 -10566054.39847  19526295.270    19526294.757    19526305.776
       240.000         210.000
  -8012225.33949  -6228293.35547  19152551.193    19152550.800    19152560.042
       233.000         206.000
 -12483286.47649  -9715790.06847  19820188.420    19820188.330    19820198.626
       239.000         206.000
  -4134898.51149  -2117083.63944  23310396.563    23310397.054    23310410.950
       197.000         131.000
   5406057.21149   4208558.76445  22951011.113    22951010.301    22951029.125
       204.000         150.000
   8836058.19149   6880336.55845  23807613.379    23807611.950    23807631.968
       201.000         132.000
 -17116236.82849 -13301281.16445  21902853.337    21902853.933    21902865.853
       219.000         161.000
 01 11 12 17 25 59.9960000  0  9G27G25G22G20G 1G 4G29G11G13
  -8148070.39949  -6036738.98445  23450372.940    23450373.147    23450390.320
       215.000         157.000
   6947391.54049   5409599.37246  22204287.773    22204287.095    22204300.678
       224.000         174.000
 -13629758.91549 -10596758.14747  19518797.136    19518796.616    19518807.606
       241.000         210.000
  -8020498.45549  -6234739.99547  19150976.931    19150976.530    19150985.774
       232.000         206.000
 -12552067.88249  -9769385.98547  19807099.733    19807099.668    19807109.978
       240.000         206.000
  -4186797.00949  -2157524.09645  23300520.615    23300521.023    23300535.370
       201.000         132.000
   5443878.54049   4238029.50845  22958208.530    22958207.713    22958226.605
       211.000         150.000
   8886275.01549   6919465.92944  23817169.851    23817168.430    23817188.560
       196.000         123.000
 -17223695.94549 -13385015.52846  21882404.562    21882405.153    21882417.090
       222.000         164.000
 01 11 12 17 26 29.9960000  0  9G27G25G22G20G 1G 4G29G11G13
  -8262173.50149  -6125650.44045  23428659.859    23428660.064    23428677.079
       218.000         159.000
   6996114.90449   5447565.32146  22213559.657    22213559.041    22213572.691
       227.000         178.000
 -13668556.77949 -10626990.27747  19511414.163    19511413.634    19511424.616
       241.000         209.000
  -8028251.74749  -6240781.57847  19149501.533    19149501.154    19149510.432
       232.000         206.000
 -12620734.64949  -9822892.56447  19794032.902    19794032.837    19794043.124
       240.000         206.000
  -4238237.97849  -2197608.04544  23290732.086    23290732.413    23290746.555
       201.000         131.000
   5481771.18649   4267555.92245  22965419.521    22965418.737    22965437.642
       212.000         153.000
   8936305.72848   6958450.27044  23826690.852    23826689.165    23826709.606
       191.000         115.000
 -17331158.27349 -13468752.38646  21861955.138    21861955.706    21861967.692
       221.000         164.000
 01 11 12 17 26 59.9950000  0  9G27G25G22G20G 1G 4G29G11G13
  -8376191.06349  -6214495.24145  23406963.186    23406963.295    23406980.151
       216.000         159.000
   7044824.57449   5485520.61346  22222828.961    22222828.390    22222842.047
       227.000         175.000
 -13706755.25549 -10656755.36847  19504145.263    19504144.739    19504155.673
       241.000         209.000
  -8035492.57449  -6246423.83547  19148123.698    19148123.317    19148132.612
       233.000         206.000
 -12689291.19649  -9876313.26447  19780987.065    19780986.979    19780997.264
       240.000         206.000
  -4289227.00449  -2237339.83344  23281029.156    23281029.444    23281043.520
       202.000         130.000
   5519726.83849   4297131.38845  22972642.414    22972641.705    22972660.702
       209.000         154.000
   8986138.82248   6997280.66344  23836174.253    23836172.397    23836192.906
       188.000         109.000
 -17438627.31949 -13552494.46146  21841504.487    21841505.038    21841517.011
       222.000         164.000
 01 11 12 17 27 29.9950000  0  9G27G25G22G20G 1G 4G29G11G13
  -8490119.41549  -6303270.51645  23385283.237    23385283.406    23385300.314
       215.000         160.000
   7093533.49849   5523475.34946  22232098.301    22232097.673    22232111.333
       226.000         178.000
 -13744345.65749 -10686046.64047  19496992.008    19496991.531    19497002.460
       240.000         208.000
  -8042211.00349  -6251659.03547  19146845.289    19146844.889    19146854.200
       234.000         207.000
 -12757730.25749  -9929642.41647  19767963.548    19767963.462    19767973.760
       240.000         207.000
  -4339756.71649  -2276713.71844  23271413.601    23271414.001    23271428.013
       198.000         125.000
   5557758.81749   4326766.32045  22979880.054    22979879.255    22979898.434
       212.000         157.000
                   7035966.40144  23845622.684
       183.000          97.000
 -17546098.63749 -13636238.28946  21821053.425    21821053.924    21821065.830
       223.000         164.000
 01 11 12 17 27 59.9950000  0  9G27G25G22G20G 1G 4G29G11G13
  -8603976.55149  -6391990.32145  23363616.852    23363617.054    23363633.922
       218.000         162.000
   7142216.45049   5561409.76446  22241362.471    22241361.851    22241375.711
       221.000         174.000
 -13781348.72949 -10714880.25247  19489950.597    19489950.094    19489961.019
       240.000         209.000
  -8048429.60549  -6256504.75747  19145661.991    19145661.589    19145670.910
       233.000         207.000
 -12826071.31149  -9982895.19947  19754958.711    19754958.610    19754968.916
       240.000         207.000
  -4389847.56949  -2315745.65144  23261881.602    23261881.841    23261895.984
       198.000         128.000
   5595843.61549   4356442.46745  22987127.619    22987126.845    22987146.064
       212.000         156.000
                   7074486.85243  23855030.858
       177.000          92.000
 -17653590.31249 -13719997.98946  21800598.351    21800598.906    21800610.729
       223.000         165.000
 01 11 12 17 28 29.9950000  0  9G27G25G22G20G 1G 4G29G11G13
  -8717745.67249  -6480641.53845  23341967.170    23341967.396    23341984.338
       217.000         162.000
   7190888.38549   5599335.63046  22250624.667    22250624.007    22250637.964
       224.000         177.000
 -13817747.97049 -10743243.34647  19483024.087    19483023.566    19483034.483
       240.000         209.000
  -8054132.54749  -6260948.66647  19144576.837    19144576.404    19144585.732
       234.000         207.000
 -12894297.19249 -10036058.23447  19741975.791    19741975.669    19741985.994
       239.000         206.000
  -4439483.19749  -2354422.83944  23252436.572    23252436.635    23252450.824
       197.000         131.000
   5633997.67049   4386172.57345  22994388.163    22994387.549    22994406.931
       208.000         152.000
                   7112852.90553  23864400.272
       170.000          89.000
 -17761085.40649 -13803760.34646  21780142.718    21780143.270    21780155.091
       224.000         166.000
 01 11 12 17 28 59.9950000  0  9G27G25G22G20G 1G 4G29G11G13
  -8831427.93649  -6569225.09145  23320334.057    23320334.302    23320351.242
       217.000         159.000
   7239546.63549   5637250.83846  22259884.312    22259883.584    22259897.608
       227.000         178.000
 -13853544.84349 -10771137.06047  19476212.195    19476211.667    19476222.600
       240.000         209.000
  -8059321.80349  -6264992.30247  19143589.399    19143588.969    19143598.317
       234.000         207.000
 -12962408.88949 -10089132.28747  19729014.562    19729014.456    19729024.786
       240.000         206.000
  -4488665.60448  -2392746.88544  23243077.641    23243077.602    23243091.899
       191.000         130.000
   5672219.32049   4415955.33645  23001661.739    23001661.132    23001680.572
       210.000         152.000
                     29057.99853  23873731.579
       164.000          74.000
 -17868585.12049 -13887526.30546  21759686.195    21759686.758    21759698.601
       225.000         168.000
 01 11 12 17 29 29.9950000  0  9G27G25G22G20G 1G 4G29G11G13
  -8945036.97949  -6657751.57045  23298715.061    23298715.246    23298732.055
       218.000         159.000
   7288175.67849   5675143.28046  22269138.415    22269137.628    22269151.761
       225.000         176.000
 -13888753.16049 -10798572.15947  19469512.320    19469511.772    19469522.719
       240.000         209.000
  -8064011.92549  -6268647.00347  19142696.919    19142696.506    19142705.879
       234.000         206.000
 -13030419.52849 -10142127.58947  19716072.545    19716072.473    19716082.804
       239.000         206.000
  -4537408.53548  -2430728.47744  23233801.991    23233802.158    23233816.613
       194.000         131.000
   5710494.66949   4445780.00345  23008945.518    23008944.900    23008964.528
       207.000         149.000
                     67134.22153  23883021.275
       164.000          77.000
 -17976103.06949 -13971306.48246  21739226.207    21739226.743    21739238.651
       226.000         171.000
 01 11 12 17 29 59.9950000  0  8G27G25G22G20G 1G 4G29G13
  -9058559.54849  -6746210.63945  23277112.473    23277112.583    23277129.336
       219.000         159.000
   7336786.75949   5713021.78746  22278389.030    22278388.257    22278402.456
       223.000         175.000
 -13923360.07849 -10825538.62947  19462926.874    19462926.323    19462937.310
       241.000         209.000
  -8068190.72449  -6271903.27047  19141901.763    19141901.352    19141910.735
       234.000         207.000
 -13098315.47649 -10195033.51747  19703152.377    19703152.313    19703162.645
       239.000         207.000
  -4585699.48749  -2468357.87645  23224612.723    23224612.754    23224627.249
       201.000         135.000
   5748836.28649   4475656.24945  23016241.767    23016241.203    23016261.152
       210.000         150.000
 -18083625.85549 -14055090.43546  21718765.285    21718765.820    21718777.763
       228.000         173.000
 01 11 12 17 30 29.9950000  0  8G27G25G22G20G 1G 4G29G13
  -9171992.30649  -6834599.71245  23255526.968    23255527.027    23255543.642
       220.000         162.000
   7385381.72349   5750887.70646  22287636.399    22287635.753    22287650.047
       222.000         177.000
 -13957362.61449 -10852034.14547  19456456.470    19456455.896    19456466.888
       241.000         209.000
  -8071855.80549  -6274759.23547  19141204.381    19141203.954    19141213.369
       234.000         207.000
 -13166093.09849 -10247847.24247  19690254.753    19690254.679    19690264.996
       239.000         207.000
  -4633535.37849  -2505632.70145  23215510.228    23215510.126    23215524.498
       202.000         137.000
   5787247.21949   4505586.55445  23023551.596    23023550.871    23023570.866
       212.000         151.000
 -18191150.04349 -14138875.47946  21698304.127    21698304.650    21698316.537
       229.000         172.000
 01 11 12 17 30 59.9950000  0  8G27G25G22G20G 1G 4G29G13
  -9285339.08549  -6922921.75946  23233957.704    23233957.785    23233974.446
       220.000         163.000
   7433955.45849   5788737.05546  22296879.865    22296879.226    22296893.625
       224.000         179.000
 -13990764.81749 -10878061.86247  19450100.273    19450099.690    19450110.708
       240.000         209.000
  -8075012.09349  -6277218.74747  19140603.794    19140603.368    19140612.797
       234.000         207.000
 -13233755.91849 -10300571.51647  19677378.950    19677378.881    19677389.229
       240.000         207.000
  -4680920.83449  -2542556.51745  23206493.081    23206493.132    23206507.450
       200.000         134.000
   5825723.33449   4535567.63645  23030873.591    23030872.864    23030893.026
       212.000         147.000
 -18298679.02249 -14222664.25746  21677842.129    21677842.560    21677854.375
       229.000         173.000
 01 11 12 17 31 29.9950000  0  8G27G25G22G20G 1G 4G29G13
  -9398602.96749  -7011179.21245  23212404.329    23212404.346    23212421.007
       218.000         161.000
   7482503.08749   5826566.06846  22306118.299    22306117.749    22306132.271
       228.000         184.000
 -14023570.29549 -10903624.59247  19443857.608    19443857.038    19443868.086
       239.000         209.000
  -8077663.65049  -6279284.96347  19140099.305    19140098.850    19140108.284
       233.000         207.000
 -13301306.50249 -10353208.33947  19664524.532    19664524.451    19664534.794
       240.000         207.000
  -4727859.37049  -2579132.07945  23197561.138    23197561.142    23197575.425
       202.000         136.000
   5864260.80649   4565596.53145  23038207.234    23038206.551    23038226.765
       210.000         142.000
 -18406215.66949 -14306459.00246  21657378.636    21657379.023    21657390.776
       230.000         175.000
 01 11 12 17 31 59.9950000  0  8G27G25G22G20G 1G 4G29G13
  -9511771.39649  -7099362.27645  23190868.874    23190868.987    23190885.737
       216.000         161.000
   7531035.25649   5864383.05946  22315354.225    22315353.441    22315367.977
       230.000         184.000
 -14055766.75649 -10928712.75047  19437730.818    19437730.271    19437741.353
       240.000         209.000
  -8079798.75749  -6280948.74447  19139693.011    19139692.594    19139702.039
       234.000         207.000
 -13368731.96649 -10405747.65347  19651693.874    19651693.815    19651704.170
       240.000         207.000
  -4774338.91549  -2615349.97544  23188716.575    23188716.537    23188730.753
       197.000         131.000
   5902872.29849   4595683.13845  23045554.969    23045554.344    23045574.528
       208.000         145.000
 -18513747.56549 -14390250.04146  21636915.986    21636916.397    21636928.057
       230.000         177.000
 01 11 12 17 32 29.9950000  0  8G27G25G22G20G 1G 4G29G13
  -9624845.09049  -7187471.50146  23169351.575    23169351.687    23169368.448
       219.000         163.000
   7579549.72749   5902186.20946  22324586.505    22324585.700    22324600.324
       225.000         179.000
 -14087355.26749 -10953327.18547  19431719.732    19431719.193    19431730.309
       240.000         210.000
  -8081419.22349  -6282211.51847  19139384.704    19139384.290    19139393.743
       235.000         207.000
 -13436032.43349 -10458189.57647  19638887.088    19638887.002    19638897.292
       240.000         207.000
  -4820360.92748  -2651211.35144  23179958.529    23179958.806    23179973.174
       192.000         128.000
   5941556.47449   4625826.36545  23052916.703    23052915.975    23052936.307
       208.000         149.000
 -18621274.68949 -14474037.36246  21616454.206    21616454.680    21616466.282
       231.000         178.000
 01 11 12 17 32 59.9950000  0  8G27G25G22G20G 1G 4G29G13
  -9737837.57649  -7275517.47046  23147849.703    23147849.876    23147866.614
       218.000         163.000
   7628031.42649   5939963.83146  22333812.385    22333811.659    22333826.419
       227.000         180.000
 -14118349.91349 -10977478.85847  19425821.663    19425821.133    19425832.273
       240.000         210.000
  -8082539.52249  -6283084.54247  19139171.597    19139171.160    19139180.625
       235.000         208.000
 -13503221.14449 -10510544.40947  19626101.476    19626101.403    19626111.709
       239.000         207.000
  -4865939.49249  -2686727.16245  23171285.201    23171285.633    23171299.886
       200.000         136.000
   5980299.37549   4656015.40345  23060289.500    23060288.760    23060309.276
       211.000         153.000
 -18728810.73849 -14557831.63246  21595990.743    21595991.222    21596002.876
       231.000         180.000
 01 11 12 17 33 29.9950000  0  8G27G25G22G20G 1G 4G29G13
  -9850740.77549  -7363493.86546  23126364.844    23126365.024    23126381.740
       219.000         166.000
   7676486.89749   5977721.04146  22343033.346    22343032.660    22343047.464
       224.000         180.000
 -14148743.09549 -11001161.85947  19420038.054    19420037.528    19420048.676
       240.000         210.000
  -8083152.87149  -6283562.54447  19139054.957    19139054.502    19139063.979
       235.000         208.000
 -13570289.56049 -10562805.50647  19613338.841    19613338.717    19613349.006
       240.000         207.000
  -4911067.14249  -2721891.63545  23162697.898    23162698.392    23162712.521
       200.000         137.000
   6019108.88349   4686256.29345  23067674.996    23067674.261    23067694.945
       209.000         152.000
 -18836347.27649 -14641626.28846  21575527.191    21575527.692    21575539.379
       230.000         179.000
 01 11 12 17 33 59.9950000  0  8G27G25G22G20G 1G 4G29G13
  -9963565.28949  -7451408.94446  23104895.038    23104895.188    23104911.919
       221.000         168.000
   7724904.17049   6015448.44646  22352247.039    22352246.334    22352261.262
       223.000         182.000
 -14178545.79349 -11024384.74247  19414366.813    19414366.287    19414377.434
       240.000         209.000
  -8083271.10449  -6283654.74347  19139032.538    19139032.055    19139041.546
       236.000         208.000
 -13637247.77049 -10614980.72247  19600597.121    19600597.008    19600607.323
       240.000         207.000
  -4955754.97749  -2756713.40245  23154194.236    23154194.624    23154208.808
       203.000         139.000
   6057973.67749   4716540.24345  23075070.998    23075070.313    23075091.045
       211.000         153.000
 -18943894.56349 -14725429.32346  21555061.571    21555062.091    21555073.768
       230.000         181.000
 01 11 12 17 34 29.9950000  0  8G27G25G22G20G 1G 4G29G13
 -10076293.14249  -7539248.71046  23083443.592    23083443.744    23083460.459
       220.000         168.000
   7773299.70449   6053158.93946  22361456.562    22361455.909    22361470.964
       222.000         184.000
 -14207740.59849 -11047133.94647  19408811.235    19408810.715    19408821.882
       240.000         210.000
  -8082876.94749  -6283347.67447  19139107.643    19139107.140    19139116.619
       237.000         208.000
 -13704077.28049 -10667055.65647  19587879.922    19587879.775    19587890.107
       239.000         207.000
  -4999985.66449  -2791178.97245  23145777.657    23145777.994    23145792.073
       202.000         139.000
   6096911.78449   4746881.32445  23082480.933    23082480.256    23082501.100
       207.000         148.000
 -19051434.43249 -14809226.59146  21534597.447    21534597.956    21534609.563
       231.000         181.000
 01 11 12 17 34 59.9950000  0  8G27G25G22G20G 1G 4G29G13
 -10188924.49349  -7627013.26746  23062010.506    23062010.619    23062027.339
       221.000         169.000
   7821671.27549   6090850.79546  22370661.601    22370660.943    22370676.082
       226.000         186.000
 -14236328.33049 -11069410.10547  19403371.150    19403370.654    19403381.840
       240.000         210.000
  -8081971.99749  -6282642.58047  19139279.929    19139279.415    19139288.883
       237.000         208.000
 -13770777.88749 -10719030.14447  19575187.184    19575187.051    19575197.428
       239.000         208.000
  -5043760.30849  -2825289.16345  23137447.611    23137447.896    23137462.084
       195.000         135.000
   6135922.33049   4777278.82545  23089904.605    23089903.986    23089924.829
       212.000         146.000
 -19158966.65649 -14893017.88446  21514134.712    21514135.262    21514146.828
       231.000         179.000
 01 11 12 17 35 29.9950000  0  8G27G25G22G20G 1G 4G29G13
 -10301478.83049  -7714717.82546  23040592.036    23040592.183    23040608.865
       218.000         167.000
   7869998.14849   6128507.81546  22379858.187    22379857.511    22379872.688
       225.000         183.000
 -14264328.95849 -11091228.78947  19398042.855    19398042.332    19398053.512
       240.000         210.000
  -8080576.81949  -6281555.49147  19139545.494    19139544.987    19139554.425
       237.000         208.000
 -13837368.65149 -10770919.04747  19562515.400    19562515.266    19562525.624
       240.000         207.000
  -5087098.83949  -2859059.52545  23129200.469    23129200.765    23129215.063
       202.000         137.000
   6174985.50949   4807717.38345  23097338.496    23097337.785    23097358.506
       213.000         147.000
 -19266510.46649 -14976818.21146  21493669.793    21493670.331    21493681.852
       230.000         178.000
 01 11 12 17 35 59.9950000  0  8G27G25G22G20G 1G 4G29G13
 -10413938.39549  -7802348.52946  23019191.632    23019191.738    23019208.449
       219.000         168.000
   7918296.42849   6166142.53446  22389049.360    22389048.631    22389063.813
       225.000         177.000
 -14291725.32749 -11112576.63347  19392829.468    19392828.971    19392840.187
       240.000         210.000
  -8078674.79949  -6280073.46747  19139907.531    19139907.004    19139916.407
       238.000         208.000
 -13903831.27249 -10822708.10447  19549868.071    19549867.886    19549878.177
       240.000         207.000
  -5129984.29649  -2892476.83345  23121039.900    23121040.106    23121054.362
       203.000         142.000
   6214118.61949   4838210.42745  23104785.697    23104784.840    23104805.531
       211.000         150.000
 -19374047.98549 -15060613.62046  21473206.018    21473206.552    21473218.090
       230.000         178.000
 01 11 12 17 36 29.9950000  0  8G27G25G22G20G 1G 4G29G13
 -10526306.77249  -7889908.21446  22997808.458    22997808.637    22997825.342
       217.000         167.000
   7966560.94049   6203750.91246  22398234.043    22398233.319    22398248.608
       220.000         173.000
 -14318521.65549 -11133456.91647  19387730.306    19387729.819    19387741.021
       239.000         210.000
  -8076270.87249  -6278200.34447  19140365.037    19140364.525    19140373.927
       238.000         209.000
 -13970168.76849 -10874399.66247  19537244.421    19537244.284    19537254.562
       240.000         207.000
  -5172420.82649  -2925544.35445  23112964.731    23112964.835    23112979.234
       206.000         145.000
   6253317.89049   4868755.01145  23112245.366    23112244.528    23112265.337
       211.000         153.000
 -19481582.37549 -15144406.62146  21452742.893    21452743.412    21452754.896
       231.000         179.000
 01 11 12 17 36 59.9950000  0  8G27G25G22G20G 1G 4G29G13
 -10638594.53949  -7977405.06646  22976440.574    22976440.855    22976457.584
       216.000         168.000
   8014779.93649   6241323.84446  22407410.030    22407409.297    22407424.665
       217.000         172.000
 -14344729.13249 -11153878.35647  19382743.173    19382742.719    19382753.933
       241.000         210.000
  -8073376.62749  -6275945.15347  19140915.861    19140915.344    19140924.754
       238.000         209.000
 -14036391.24849 -10926001.60147  19524642.692    19524642.558    19524652.829
       240.000         207.000
  -5214419.91849  -2958271.02645  23104972.761    23104972.801    23104987.130
       202.000         141.000
   6292572.34649   4899342.58945  23119715.365    23119714.626    23119735.543
       212.000         150.000
 -19589123.61049 -15228204.94846  21432278.437    21432278.968    21432290.403
       232.000         180.000
 01 11 12 17 37 29.9950000  0  8G27G25G22G20G 1G 4G29G13
 -10750793.58249  -8064832.79546  22955089.758    22955090.000    22955106.708
       217.000         168.000
   8062959.90549   6278866.36446  22416578.548    22416577.860    22416593.273
       217.000         172.000
 -14370340.41349 -11173835.23547  19377869.576    19377869.093    19377880.267
       241.000         209.000
  -8069985.02849  -6273302.41747  19141561.307    19141560.797    19141570.202
       238.000         208.000
 -14102489.97549 -10977507.11647  19512064.536    19512064.414    19512074.654
       241.000         207.000
  -5255974.19949  -2990651.06245  23097065.087    23097065.237    23097079.559
       201.000         137.000
   6331889.54849   4929979.08045  23127197.400    23127196.730    23127217.746
       209.000         150.000
 -19696663.61649 -15312002.31646  21411814.202    21411814.755    21411826.186
       231.000         181.000
 01 11 12 17 37 59.9950000  0  8G27G25G22G20G 1G 4G29G13
 -10862888.24049  -8152179.16346  22933758.802    22933759.015    22933775.752
       217.000         169.000
   8111115.13949   6316389.58446  22425742.550    22425741.772    22425757.286
       216.000         167.000
 -14395340.44449 -11193315.81447  19373112.297    19373111.786    19373122.919
       241.000         209.000
  -8066081.79449  -6270261.00247  19142304.090    19142303.612    19142313.022
       238.000         208.000
 -14168448.82649 -11028903.62947  19499513.017    19499512.873    19499523.103
       240.000         207.000
  -5297068.79949  -3022672.91345  23089245.048    23089245.315    23089259.518
       198.000         137.000
   6371284.90649   4960676.45145  23134694.230    23134693.557    23134714.708
       205.000         140.000
 -19804186.07049 -15395786.00146  21391353.355    21391353.866    21391365.307
       232.000         182.000
 01 11 12 17 38 29.9950000  0  8G27G25G22G20G 1G 4G29G13
 -10974891.76449  -8239454.52546  22912445.224    22912445.377    22912462.143
       220.000         171.000
   8159230.72249   6353881.91246  22434898.989    22434898.153    22434913.719
       219.000         170.000
 -14419743.12249 -11212330.93347  19368468.636    19368468.139    19368479.246
       241.000         209.000
  -8061681.54049  -6266832.30047  19143141.488    19143141.006    19143150.423
       238.000         208.000
 -14234280.59349 -11080201.12547  19486985.649    19486985.518    19486995.764
       240.000         207.000
  -5337717.61049  -3054347.39645  23081509.934    23081510.204    23081524.445
       201.000         141.000
   6410744.66649   4991423.97645  23142203.392    23142202.778    23142223.876
       206.000         141.000
 -19911704.25149 -15479566.36546  21370893.314    21370893.849    21370905.238
       232.000         182.000
 01 11 12 17 38 59.9950000  0  8G27G25G22G20G 1G 4G29G13
 -11086815.74149  -8326667.91846  22891146.838    22891146.891    22891163.650
       220.000         170.000
   8207293.93849   6391333.44546  22444045.258    22444044.509    22444060.117
       220.000         171.000
 -14443560.85649 -11230890.25347  19363936.345    19363935.811    19363946.893
       241.000         209.000
  -8056796.96849  -6263026.20947  19144071.060    19144070.580    19144079.998
       238.000         208.000
 -14299996.17049 -11131408.07947  19474480.438    19474480.294    19474490.521
       240.000         208.000
  -5377933.13549  -3085684.23045  23073857.372    23073857.622    23073871.831
       206.000         146.000
   6450257.07649   5022212.54845  23149722.609    23149721.905    23149743.098
       206.000         149.000
 -20019229.05049 -15563351.87946  21350432.051    21350432.536    21350443.915
       231.000         182.000
 01 11 12 17 39 29.9950000  0  8G27G25G22G20G 1G 4G29G13
 -11198647.64349  -8413809.55746  22869865.926    22869865.947    22869882.652
       221.000         171.000
   8255315.82049   6428752.73046  22453183.733    22453183.001    22453198.698
       221.000         167.000
 -14466781.84949 -11248984.58447  19359517.577    19359517.027    19359528.101
       241.000         209.000
  -8051416.87649  -6258833.99347  19145094.892    19145094.436    19145103.839
       238.000         208.000
 -14365582.51449 -11182514.33347  19461999.811    19461999.650    19462009.877
       240.000         208.000
  -5417703.68349  -3116674.31145  23066289.491    23066289.718    23066303.866
       207.000         146.000
   6489834.07149   5053051.48045  23157254.013    23157253.335    23157274.702
       210.000         147.000
 -20126747.52349 -15647132.46746  21329971.943    21329972.421    21329983.781
       231.000         183.000
 01 11 12 17 39 59.9950000  0  8G27G25G22G20G 1G 4G29G13
 -11310374.06949  -8500868.99546  22848605.077    22848605.085    22848621.725
       222.000         170.000
   8303308.30249   6466149.16146  22462316.722    22462315.958    22462331.563
       217.000         164.000
 -14489393.60349 -11266604.17547  19355214.785    19355214.197    19355225.243
       241.000         209.000
  -8045529.40549  -6254246.41647  19146215.286    19146214.833    19146224.230
       238.000         208.000
 -14431025.56249 -11233508.93347  19449546.432    19449546.265    19449556.465
       240.000         208.000
  -5457016.70049  -3147307.91445  23058808.559    23058808.748    23058822.943
       205.000         142.000
   6529488.74549   5083950.94245  23164800.132    23164799.589    23164821.095
       205.000         147.000
 -20234245.93549 -15730897.43046  21309515.632    21309516.127    21309527.481
       231.000         183.000
 01 11 12 17 40 29.9950000  0  8G27G25G22G20G 1G 4G29G13
 -11422008.23649  -8587856.55646  22827361.648    22827361.749    22827378.333
       219.000         167.000
   8351256.72949   6503511.20046  22471441.211    22471440.494    22471456.180
       219.000         165.000
 -14511410.06049 -11283759.89747  19351025.216    19351024.625    19351035.683
       240.000         209.000
  -8039148.74449  -6249274.54247  19147429.538    19147429.076    19147438.476
       238.000         208.000
 -14496337.84649 -11284401.64447  19437117.919    19437117.754    19437127.970
       239.000         208.000
  -5495886.00549  -3177595.79445  23051411.995    23051412.220    23051426.466
       201.000         138.000
   6569207.48849   5114900.25945  23172358.582    23172358.026    23172379.670
       211.000         150.000
 -20341736.91949 -15814656.60846  21289060.748    21289061.237    21289072.564
       232.000         183.000
 01 11 12 17 40 59.9950000  0  8G27G25G22G20G 1G 4G29G13
 -11533555.73449  -8674776.54746  22806134.665    22806134.856    22806151.465
       218.000         168.000
   8399154.06049   6540833.42946  22480556.005    22480555.279    22480571.078
       222.000         164.000
 -14532837.48949 -11300456.63447  19346947.745    19346947.145    19346958.204
       240.000         209.000
  -8032282.07149  -6243923.95247  19148736.256    19148735.799    19148745.236
       238.000         207.000
 -14561524.29749 -11335196.31047  19424713.353    19424713.196    19424723.390
       240.000         208.000
  -5534318.23449  -3207543.06345  23044098.603    23044098.835    23044113.143
       202.000         138.000
   6608984.47949   5145895.01845  23179928.236    23179927.637    23179949.179
       204.000         145.000
 -20449225.71349 -15898414.09446  21268606.312    21268606.797    21268618.030
       231.000         181.000
 01 11 12 17 41 29.9950000  0  8G27G25G22G20G 1G 4G29G13
 -11645006.91849  -8761621.49946  22784926.077    22784926.322    22784942.886
       218.000         167.000
   8447008.43049   6578122.17646  22489662.577    22489661.889    22489677.927
       223.000         170.000
 -14553667.16849 -11316687.58147  19342984.000    19342983.410    19342994.490
       241.000         209.000
  -8024920.81549  -6238187.97247  19150137.123    19150136.649    19150146.105
       238.000         207.000
 -14626574.66949 -11385884.94547  19412334.668    19412334.540    19412344.728
       240.000         208.000
  -5572304.51549  -3237142.81545  23036870.242    23036870.429    23036884.658
       207.000         139.000
   6648829.14349   5176942.44945  23187510.615    23187510.078    23187531.696
       208.000         145.000
 -20556702.02649 -15982161.84746  21248154.215    21248154.711    21248165.881
       232.000         183.000
 01 11 12 17 41 59.9950000  0  8G27G25G22G20G 1G 4G29G13
 -11756377.35149  -8848403.51246  22763732.882    22763733.125    22763749.699
       219.000         168.000
   8494803.00249   6615364.35546  22498757.863    22498757.142    22498773.252
       223.000         171.000
 -14573915.69349 -11332465.67647  19339130.890    19339130.282    19339141.383
       241.000         209.000
  -8017082.09549  -6232079.94147  19151628.810    19151628.350    19151637.830
       238.000         207.000
 -14691503.99949 -11436479.24747  19399979.034    19399978.915    19399989.109
       240.000         208.000
  -5609861.35849  -3266407.96345  23029723.519    23029723.670    23029738.096
       210.000         144.000
   6688725.31549   5208030.04545  23195102.706    23195102.280    23195123.930
       205.000         148.000
 -20664181.32949 -16065911.92346  21227701.600    21227702.056    21227713.185
       231.000         183.000
 01 11 12 17 42 29.9950000  0  8G27G25G22G20G 1G 4G29G13
 -11867639.17749  -8935100.90046  22742560.278    22742560.591    22742577.155
       219.000         169.000
   8542564.42449   6652580.63346  22507846.875    22507846.119    22507862.336
       224.000         167.000
 -14593556.13349 -11347769.94047  19335393.489    19335392.871    19335403.970
       241.000         209.000
  -8008739.57949  -6225579.34947  19153216.365    19153215.914    19153225.402
       237.000         206.000
 -14756284.04649 -11486957.23447  19387651.847    19387651.699    19387661.885
       240.000         208.000
  -5646962.05749  -3295317.65945  23022663.619    23022663.772    23022678.271
       209.000         145.000
   6728700.35349   5239179.11145  23202709.809    23202709.404    23202731.259
       204.000         143.000
 -20771634.97849 -16149642.00446  21207253.811    21207254.303    21207265.411
       231.000         182.000
 01 11 12 17 42 59.9950000  0  8G27G25G22G20G 1G 4G29G13
 -11978817.37649  -9021733.10746  22721403.777    22721404.030    22721420.569
       221.000         168.000
   8590266.41149   6689750.60346  22516924.539    22516923.768    22516939.999
       221.000         166.000
 -14612614.34949 -11362620.52047  19331766.858    19331766.239    19331777.327
       241.000         210.000
  -7999919.48849  -6218706.62347  19154894.805    19154894.364    19154903.862
       237.000         206.000
 -14820939.06349 -11537337.79547  19375348.411    19375348.279    19375358.485
       240.000         209.000
  -5683632.27749  -3323891.94445  23015685.633    23015685.771    23015700.246
       207.000         142.000
   6768729.04449   5270369.98945  23210327.321    23210326.723    23210348.861
       199.000         134.000
 -20879087.86449 -16233371.50546  21186806.141    21186806.658    21186817.755
       230.000         181.000
 01 11 12 17 43 29.9950000  0  8G27G25G22G20G 1G 4G29G13
 -12089892.47949  -9108284.97446  22700266.802    22700267.026    22700283.543
       219.000         169.000
   8637927.30549   6726888.57646  22525994.421    22525993.638    22526009.846
       223.000         172.000
 -14631071.66349 -11377002.85947  19328254.556    19328253.956    19328265.052
       240.000         209.000
  -7990603.77249  -6211447.69047  19156667.549    19156667.121    19156676.646
       237.000         206.000
 -14885448.69249 -11587605.06347  19363072.675    19363072.533    19363082.757
       240.000         208.000
  -5719853.58049  -3352116.46145  23008792.875    23008793.111    23008807.611
       202.000         138.000
   6808830.50848   5301617.57344  23217958.709    23217957.931    23217980.269
       190.000         123.000
 -20986519.70249 -16317084.60246  21166362.530    21166363.019    21166374.143
       231.000         181.000
 01 11 12 17 43 59.9950000  0  8G27G25G22G20G 1G 4G29G13
 -12200872.09549  -9194762.43746  22679148.002    22679148.220    22679164.704
       222.000         170.000
   8685538.17549   6763987.58046  22535054.701    22535053.969    22535070.240
       224.000         171.000
 -14648936.99849 -11390923.91847  19324854.868    19324854.307    19324865.424
       240.000         209.000
  -7980801.60849  -6203809.71147  19158532.863    19158532.442    19158542.012
       237.000         206.000
 -14949820.05049 -11637764.59147  19350823.211    19350823.078    19350833.319
       240.000         208.000
  -5755634.46748  -3379997.78445  23001984.038    23001984.338    23001998.897
       194.000         134.000
   6848996.69048   5332915.51244  23225602.475    23225601.802    23225624.068
       179.000         112.000
 -21093937.51149 -16400786.77346  21145921.559    21145922.069    21145933.168
       230.000         182.000
 01 11 12 17 44 29.9950000  0  8G27G25G22G20G 1G 4G29G13
 -12311751.09749  -9281161.49046  22658048.332    22658048.550    22658064.936
       219.000         169.000
   8733102.73549   6801050.51546  22544106.277    22544105.517    22544121.852
       223.000         170.000
 -14666206.01549 -11404380.32447  19321568.701    19321568.148    19321579.267
       240.000         209.000
  -7970509.21449  -6195789.73347  19160491.442    19160491.046    19160500.653
       237.000         206.000
 -15014047.19649 -11687811.74447  19338601.263    19338601.096    19338611.324
       240.000         209.000
  -5790970.84448  -3407532.72145  22995259.857    22995260.009    22995274.800
       194.000         132.000
                   5364267.94154  23233259.017
       168.000          96.000
 -21201335.54649 -16484473.52546  21125484.382    21125484.909    21125495.955
       231.000         181.000
 01 11 12 17 44 59.9950000  0  8G27G25G22G20G 1G 4G29G13
 -12422527.57649  -9367480.66346  22636968.032    22636968.334    22636984.704
       218.000         168.000
   8780621.52849   6838077.77246  22553149.072    22553148.291    22553164.787
       223.000         174.000
 -14682877.85149 -11417371.38947  19318396.198    19318395.627    19318406.746
       241.000         209.000
  -7959726.12049  -6187387.38647  19162543.462    19162543.038    19162552.669
       238.000         206.000
 -15078127.64149 -11737744.57647  19326407.222    19326407.032    19326417.278
       240.000         209.000
  -5825861.81649  -3434720.56644  22988620.419    22988620.525    22988635.530
       198.000         131.000
                   5395675.80853  23240929.245
       174.000          92.000
 -21308711.77149 -16568143.26546  21105051.461    21105051.887    21105062.886
       231.000         181.000
 01 11 12 17 45 29.9950000  0  7G27G25G22G20G 1G 4G13
 -12533210.00949  -9453726.55146  22615905.736    22615906.021    22615922.365
       219.000         168.000
   8828084.63949   6875061.63146  22562181.368    22562180.528    22562197.068
       226.000         178.000
 -14698962.07449 -11429904.57847  19315335.505    19315334.932    19315346.048
       241.000         209.000
  -7948462.33049  -6178610.47747  19164686.921    19164686.509    19164696.142
       237.000         205.000
 -15142069.03549 -11787569.05747  19314239.568    19314239.403    19314249.679
       240.000         208.000
  -5860316.94148  -3461568.74544  22982063.842    22982063.997    22982079.066
       194.000         130.000
 -21416073.88049 -16651802.00846  21084621.123    21084621.537    21084632.515
       231.000         181.000
 01 11 12 17 45 59.9950000  0  7G27G25G22G20G 1G 4G13
 -12643792.85249  -9539894.84946  22594862.391    22594862.703    22594879.033
       220.000         169.000
   8875496.70549   6912005.68746  22571203.893    22571203.060    22571219.697
       224.000         175.000
 -14714454.19649 -11441976.39947  19312387.500    19312386.926    19312398.005
       241.000         209.000
  -7936713.81449  -6169455.85947  19166922.635    19166922.217    19166931.860
       237.000         205.000
 -15205864.93249 -11837280.15947  19302099.626    19302099.452    19302109.752
       239.000         208.000
  -5894331.52749  -3488073.66244  22975590.772    22975591.172    22975606.487
       196.000         131.000
 -21523415.39349 -16735444.70646  21064194.658    21064195.116    21064206.053
       231.000         182.000
 01 11 12 17 46 29.9950000  0  7G27G25G22G20G 1G 4G13
 -12754268.96249  -9625979.99946  22573839.402    22573839.699    22573855.931
       221.000         169.000
   8922863.59949   6948914.57246  22580217.806    22580216.947    22580233.700
       222.000         175.000
 -14729348.06349 -11453582.05947  19309553.389    19309552.767    19309563.813
       240.000         209.000
  -7924474.75949  -6159919.00447  19169251.662    19169251.267    19169260.959
       237.000         205.000
 -15269507.58049 -11886871.84547  19289988.847    19289988.675    19289998.968
       239.000         208.000
  -5927899.42049  -3514230.55245  22969203.181    22969203.426    22969218.897
       198.000         132.000
 -21630728.91749 -16819065.58446  21043773.477    21043773.987    21043784.922
       231.000         181.000
 01 11 12 17 46 59.9950000  0  7G27G25G22G20G 1G 4G13
 -12864650.70049  -9711991.58646  22552834.405    22552834.670    22552850.886
       222.000         169.000
   8970172.03749   6985777.90446  22589220.640    22589219.742    22589236.617
       221.000         175.000
 -14743657.22249 -11464732.10547  19306830.472    19306829.867    19306840.890
       240.000         209.000
  -7911759.21649  -6150010.85447  19171671.344    19171670.962    19171680.735
       237.000         205.000
 -15333008.73049 -11936353.26347  19277904.971    19277904.810    19277915.135
       239.000         208.000
  -5961034.19549  -3540049.96344  22962897.965    22962898.087    22962913.627
       197.000         129.000
 -21738026.16449 -16902673.79146  21023355.404    21023355.934    21023366.913
       230.000         181.000
 01 11 12 17 47 29.9950000  0  7G27G25G22G20G 1G 4G13
 -12974927.71649  -9797921.60746  22531849.305    22531849.551    22531865.644
       224.000         170.000
   9017430.68149   7022602.44846  22598214.068    22598213.090    22598230.088
       219.000         174.000
 -14757372.60049 -11475419.47147  19304220.565    19304219.953    19304230.959
       241.000         208.000
  -7898558.41149  -6139724.57747  19174183.408    19174183.016    19174192.861
       236.000         206.000
 -15396357.30449 -11985715.79947  19265850.105    19265849.965    19265860.316
       238.000         208.000
  -5993726.44349  -3565524.53144  22956676.743    22956676.981    22956692.515
       200.000         131.000
 -21845296.06149 -16986260.70146  21002942.600    21002943.104    21002954.091
       231.000         182.000
 01 11 12 17 47 59.9950000  0  7G27G25G22G20G 1G 4G13
 -13085117.03049  -9883783.28946  22510880.903    22510881.141    22510897.167
       223.000         172.000
   9064621.88149   7059374.42946  22607194.552    22607193.548    22607210.651
       222.000         172.000
 -14770512.04049 -11485658.06147  19301720.220    19301719.613    19301730.642
       240.000         209.000
  -7884890.68649  -6129074.47147  19176784.341    19176783.946    19176793.826
       237.000         205.000
 -15459569.30849 -12034971.90747  19253821.248    19253821.127    19253831.488
       239.000         208.000
  -6025994.35049  -3590668.45245  22950536.312    22950536.588    22950552.384
       198.000         134.000
 -21952554.91349 -17069838.98146  20982531.899    20982532.400    20982543.375
       231.000         182.000
 01 11 12 17 48 29.9950000  0  7G27G25G22G20G 1G 4G13
 -13195205.77449  -9969566.60746  22489931.672    22489931.889    22489947.841
       222.000         170.000
   9111757.03049   7096102.72046  22616164.183    22616163.302    22616180.505
       217.000         170.000
 -14783064.01149 -11495438.89347  19299331.664    19299331.087    19299342.136
       241.000         209.000
  -7870745.02349  -6118051.95147  19179476.197    19179475.807    19179485.710
       237.000         205.000
 -15522631.19949 -12084111.05347  19241821.012    19241820.877    19241831.205
       239.000         208.000
  -6057826.04049  -3615472.45545  22944478.972    22944479.309    22944495.312
       201.000         135.000
 -22059789.41249 -17153398.28946  20962125.777    20962126.286    20962137.310
       231.000         181.000
 01 11 12 17 48 59.9940000  0  7G27G25G22G20G 1G 4G13
 -13305200.05049 -10055276.32846  22469000.314    22469000.580    22469016.431
       222.000         170.000
   9158823.76749   7132777.73346  22625120.895    22625120.045    22625137.315
       218.000         168.000
 -14795038.97249 -11504770.10247  19297052.948    19297052.357    19297063.423
       240.000         209.000
  -7856133.15849  -6106666.14947  19182256.795    19182256.391    19182266.329
       236.000         205.000
 -15585549.73049 -12133138.47547  19229848.021    19229847.891    19229858.230
       239.000         208.000
  -6089231.37949  -3639944.24845  22938502.812    22938503.101    22938519.198
       199.000         134.000
 -22167004.83149 -17236942.72846  20941723.294    20941723.809    20941734.881
       232.000         183.000
 01 11 12 17 49 29.9940000  0  7G27G25G22G20G 1G 4G13
 -13415097.53849 -10140910.62946  22448087.428    22448087.686    22448103.422
       222.000         170.000
   9205833.54149   7169408.28746  22634066.896    22634065.982    22634083.384
       219.000         171.000
 -14806429.50549 -11513645.91247  19294885.470    19294884.866    19294895.942
       241.000         209.000
  -7841046.04149  -6094910.02547  19185127.806    19185127.428    19185137.378
       238.000         206.000
 -15648318.72749 -12182049.38447  19217903.496    19217903.371    19217913.695
       239.000         208.000
  -6120204.07649  -3664078.90245  22932608.959    22932609.181    22932625.425
       202.000         133.000
 -22274198.18449 -17320469.97246  20921325.100    20921325.605    20921336.646
       232.000         184.000
 01 11 12 17 49 59.9940000  0  7G27G25G22G20G 1G 4G13
 -13524894.74849 -10226466.79446  22427193.606    22427193.854    22427209.542
       223.000         172.000
   9252783.82249   7205992.53946  22643001.679    22643000.702    22643018.157
       218.000         172.000
 -14817236.51249 -11522067.02547  19292829.047    19292828.417    19292839.501
       241.000         209.000
  -7825486.01049  -6082785.39447  19188088.906    19188088.475    19188098.429
       237.000         206.000
 -15710935.53749 -12230841.70847  19205987.932    19205987.797    19205998.138
       239.000         208.000
  -6150744.25749  -3687876.56645  22926797.630    22926797.740    22926813.943
       199.000         134.000
 -22381365.36349 -17403976.81946  20900931.844    20900932.362    20900943.396
       233.000         185.000
 01 11 12 17 50 29.9940000  0  7G27G25G22G20G 1G 4G13
 -13634590.49749 -10311943.89246  22406319.158    22406319.368    22406335.069
       222.000         173.000
   9299674.33749   7242530.16146  22651924.895    22651923.945    22651941.571
       217.000         168.000
 -14827460.11949 -11530033.54247  19290883.596    19290882.972    19290894.071
       239.000         208.000
  -7809453.47549  -6070292.58347  19191139.865    19191139.428    19191149.401
       237.000         206.000
 -15773398.27049 -12279513.97547  19194101.680    19194101.549    19194111.881
       239.000         208.000
  -6180852.02648  -3711337.20244  22921068.455    22921068.536    22921084.753
       193.000         125.000
 -22488504.56449 -17487461.88046  20880544.002    20880544.439    20880555.443
       234.000         185.000
 01 11 12 17 50 59.9940000  0  7G27G25G22G20G 1G 4G13
 -13744189.88449 -10397345.92346  22385463.040    22385463.217    22385478.901
       223.000         172.000
   9346498.81749   7279016.38746  22660835.686    22660834.657    22660852.349
       214.000         166.000
 -14837106.77049 -11537550.48047  19289047.909    19289047.294    19289058.416
       240.000         208.000
  -7792955.33549  -6057436.96447  19194279.434    19194278.971    19194288.968
       238.000         206.000
 -15835711.20949 -12328069.51647  19182243.938    19182243.802    19182254.136
       239.000         208.000
  -6210533.67748  -3734465.89644  22915420.041    22915420.432    22915436.592
       181.000         117.000
 -22595620.00349 -17570928.42146  20860160.573    20860161.052    20860172.007
       234.000         186.000
 01 11 12 17 51 29.9940000  0  7G27G25G22G20G 1G 4G13
 -13853687.76649 -10482668.85446  22364626.285    22364626.405    22364642.037
       224.000         174.000
   9393261.36849   7315454.34446  22669734.537    22669733.574    22669751.364
       216.000         166.000
 -14846172.57549 -11544614.80547  19287322.815    19287322.178    19287333.318
       240.000         209.000
  -7775988.01149  -6044215.74447  19197508.313    19197507.816    19197517.848
       238.000         207.000
 -15897868.27749 -12376503.59747  19170415.817    19170415.705    19170426.036
       239.000         208.000
  -6239785.20748  -3757259.45144  22909853.609    22909853.820    22909870.234
       187.000         121.000
 -22702705.74349 -17654371.81546  20839782.802    20839783.275    20839794.228
       234.000         186.000
 01 11 12 17 51 59.9940000  0  7G27G25G22G20G 1G 4G13
 -13963086.89549 -10567914.83246  22343808.255    22343808.403    22343823.988
       224.000         176.000
   9439958.22249   7351841.08245  22678620.914    22678619.967    22678637.871
       213.000         161.000
 -14854661.74849 -11551229.80447  19285707.440    19285706.794    19285717.959
       241.000         209.000
  -7758556.05049  -6030632.47247  19200825.562    19200825.069    19200835.122
       238.000         207.000
 -15959871.40849 -12424817.73447  19158617.064    19158616.927    19158627.235
       238.000         207.000
  -6268610.84748  -3779720.96044  22904368.204    22904368.543    22904384.811
       189.000         124.000
 -22809764.16949 -17737793.92246  20819410.222    20819410.699    20819421.646
       234.000         185.000
 01 11 12 17 52 29.9940000  0  7G27G25G22G20G 1G 4G13
 -14072389.78649 -10653085.82446  22323008.593    22323008.676    22323024.257
       225.000         175.000
   9486585.78149   7388173.77845  22687493.894    22687493.128    22687511.177
       213.000         162.000
 -14862578.06849 -11557398.41447  19284201.069    19284200.422    19284211.596
       241.000         209.000
  -7740663.47849  -6016690.28947  19204230.508    19204229.993    19204240.051
       239.000         207.000
 -16021722.31149 -12473013.24147  19146847.259    19146847.100    19146857.399
       239.000         207.000
  -6297014.07049  -3801853.45045  22898963.727    22898963.763    22898980.039
       198.000         132.000
 -22916796.77749 -17821195.91746  20799042.563    20799043.043    20799053.955
       234.000         186.000
 01 11 12 17 52 59.9940000  0  7G27G25G22G20G 1G 4G13
 -14181596.00549 -10738181.50546  22302227.167    22302227.312    22302242.905
       224.000         175.000
   9533143.73349   7424452.31545  22696354.018    22696353.109    22696371.271
       211.000         161.000
 -14869922.46549 -11563121.37447  19282803.544    19282802.863    19282814.082
       240.000         209.000
  -7722311.64749  -6002390.23747  19207722.823    19207722.299    19207732.369
       239.000         207.000
 -16083419.56649 -12521089.02947  19135106.651    19135106.500    19135116.788
       239.000         207.000
  -6324995.69849  -3823657.43045  22893639.397    22893639.219    22893655.434
       200.000         135.000
 -23023802.45449 -17904576.93246  20778680.020    20778680.509    20778691.400
       234.000         186.000
 01 11 12 17 53 29.9940000  0  7G27G25G22G20G 1G 4G13
 -14290700.88349 -10823198.21746  22281465.097    22281465.281    22281480.799
       225.000         176.000
   9579635.51049   7460679.22145  22705201.254    22705200.425    22705218.684
       209.000         152.000
 -14876691.55449 -11568396.03947  19281515.423    19281514.784    19281526.029
       240.000         208.000
  -7703497.58449  -5987730.00747  19211303.075    19211302.561    19211312.668
       239.000         207.000
 -16144957.61649 -12569040.76147  19123396.348    19123396.205    19123406.479
       238.000         207.000
  -6352552.14049  -3845130.08744  22888395.478    22888395.501    22888411.767
       195.000         131.000
 -23130775.49149 -17987932.50546  20758323.715    20758324.183    20758335.092
       235.000         187.000
 01 11 12 17 53 59.9940000  0  7G27G25G22G20G 1G 4G13
 -14399697.30349 -10908130.41546  22260723.784    22260723.890    22260739.344
       225.000         178.000
   9626067.35649   7496859.51745  22714037.348    22714036.434    22714054.708
       209.000         159.000
 -14882879.67549 -11573217.99547  19280337.892    19280337.271    19280348.520
       240.000         209.000
  -7684215.72149  -5972705.25447  19214972.321    19214971.826    19214981.982
       239.000         207.000
 -16206328.38149 -12616862.14247  19111717.921    19111717.759    19111727.993
       239.000         207.000
  -6379677.51649  -3866266.79844  22883233.503    22883233.717    22883249.976
       198.000         128.000
 -23237707.96449 -18071256.46647  20737975.091    20737975.603    20737986.542
       234.000         188.000
 01 11 12 17 54 29.9940000  0  7G27G25G22G20G 1G 4G13
 -14508587.67549 -10992979.98246  22240002.588    22240002.703    22240018.120
       224.000         178.000
   9672435.95149   7532990.45745  22722861.091    22722860.288    22722878.731
       216.000         154.000
 -14888490.66649 -11577590.25047  19279270.220    19279269.579    19279280.845
       240.000         209.000
  -7664470.39549  -5957319.36447  19218729.799    19218729.293    19218739.484
       239.000         208.000
 -16267533.54749 -12664554.48847  19100070.984    19100070.818    19100081.050
       239.000         207.000
  -6406375.66549  -3887070.64145  22878153.318    22878153.359    22878169.546
       204.000         132.000
 -23344601.48949 -18154550.09147  20717633.892    20717634.432    20717645.391
       236.000         189.000
 01 11 12 17 54 59.9940000  0  7G27G25G22G20G 1G 4G13
 -14617383.24349 -11077755.66246  22219299.467    22219299.584    22219314.966
       225.000         179.000
   9718728.82549   7569062.40745  22731670.729    22731669.860    22731688.369
       217.000         159.000
 -14893537.34149 -11581522.77647  19278309.891    19278309.277    19278320.570
       240.000         209.000
  -7644274.75749  -5941582.58347  19222572.957    19222572.464    19222582.683
       240.000         208.000
 -16328583.58549 -12712125.96247  19088453.538    19088453.405    19088463.616
       238.000         207.000
  -6432659.19949  -3907551.46645  22873152.050    22873152.031    22873167.949
       202.000         134.000
 -23451466.61749 -18237821.57547  20697298.218    20697298.684    20697309.644
       236.000         190.000
 01 11 12 17 55 29.9940000  0  7G27G25G22G20G 1G 4G13
 -14726066.67949 -11162443.96046  22198617.650    22198617.757    22198633.137
       224.000         178.000
   9764962.13249   7605088.00845  22740469.081    22740468.122    22740486.709
       216.000         158.000
 -14898003.81349 -11585003.19547  19277460.030    19277459.404    19277470.692
       241.000         209.000
  -7623613.21849  -5925482.76447  19226504.853    19226504.314    19226514.494
       241.000         208.000
 -16389460.13749 -12759562.24947  19076869.119    19076868.983    19076879.199
       238.000         207.000
  -6458512.14849  -3927696.73045  22868232.428    22868232.412    22868248.394
       202.000         132.000
 -23558285.10049 -18321056.70347  20676971.282    20676971.780    20676982.753
       235.000         191.000
 01 11 12 17 55 59.9940000  0  7G27G25G22G20G 1G 4G13
 -14834653.96349 -11247057.34446  22177954.114    22177954.260    22177969.665
       224.000         178.000
   9811119.35149   7641054.25345  22749252.847    22749251.866    22749270.594
       218.000         162.000
 -14901907.56149 -11588045.13347  19276717.247    19276716.590    19276727.893
       240.000         209.000
  -7602503.49349  -5909033.71447  19230522.024    19230521.453    19230531.614
       241.000         208.000
 -16450178.06149 -12806874.93747  19065314.888    19065314.751    19065324.968
       238.000         207.000
  -6483951.71449  -3947519.86345  22863391.311    22863391.249    22863407.637
       196.000         134.000
 -23665072.03249 -18404267.23747  20656650.377    20656650.880    20656661.884
       236.000         190.000
 01 11 12 17 56 29.9940000  0  7G27G25G22G20G 1G 4G13
 -14943141.36749 -11331592.91546  22157309.781    22157309.786    22157325.173
       226.000         178.000
   9857203.30349   7676963.43245  22758022.667    22758021.672    22758040.549
       220.000         162.000
 -14905246.27649 -11590646.78747  19276082.002    19276081.318    19276092.632
       241.000         209.000
  -7580943.39949  -5892233.72347  19234624.883    19234624.291    19234634.438
       240.000         208.000
 -16510732.66749 -12854060.36047  19053791.776    19053791.618    19053801.810
       238.000         207.000
  -6508975.26949  -3967018.82445  22858629.782    22858629.653    22858645.920
       196.000         134.000
 -23771822.50549 -18487449.37047  20636336.393    20636336.900    20636347.911
       235.000         189.000
 01 11 12 17 56 59.9940000  0  7G27G25G22G20G 1G 4G13
 -15051520.48649 -11416044.11746  22136685.985    22136685.880    22136701.270
       225.000         177.000
   9903221.17849   7712821.12746  22766779.983    22766778.915    22766797.896
       221.000         167.000
 -14908013.08549 -11592802.80847  19275555.542    19275554.862    19275566.169
       239.000         208.000
  -7558926.62649  -5875077.87847  19238814.612    19238814.023    19238824.174
       241.000         208.000
 -16571114.63549 -12901111.25647  19042301.520    19042301.339    19042311.527
       238.000         208.000
  -6533576.13949  -3986188.42045  22853948.751    22853948.414    22853964.582
       195.000         132.000
 -23878527.75749 -18570596.27047  20616031.041    20616031.538    20616042.493
       235.000         188.000
 01 11 12 17 57 29.9940000  0  7G27G25G22G20G 1G 4G13
 -15159799.45449 -11500417.25046  22116081.142    22116081.047    22116096.430
       225.000         177.000
   9949163.91549   7748620.27946  22775522.966    22775521.850    22775540.962
       221.000         164.000
 -14910217.90249 -11594520.91647  19275136.000    19275135.347    19275146.659
       240.000         208.000
  -7536463.23349  -5857574.02047  19243089.347    19243088.746    19243098.906
       241.000         208.000
 -16631331.25649 -12948033.31347  19030842.719    19030842.523    19030852.698
       238.000         207.000
  -6557763.84449  -4005036.01945  22849345.881    22849345.782    22849361.868
       196.000         134.000
 -23985194.76249 -18653713.36647  20595732.915    20595733.423    20595744.378
       234.000         189.000
 01 11 12 17 57 59.9940000  0  7G27G25G22G20G 1G 4G13
 -15267988.14049 -11584720.04146  22095493.505    22095493.415    22095508.709
       226.000         177.000
   9995020.87049   7784352.57446  22784249.601    22784248.477    22784267.722
       218.000         165.000
 -14911872.13749 -11595810.00247  19274821.293    19274820.608    19274831.943
       241.000         208.000
  -7513564.79849  -5839731.16847  19247446.828    19247446.253    19247456.414
       240.000         208.000
 -16691391.61249 -12994833.60847  19019413.627    19019413.434    19019423.624
       238.000         208.000
  -6581549.46449  -4023570.37145  22844819.887    22844819.621    22844835.782
       205.000         138.000
 -24091832.62049 -18736807.74247  20575440.316    20575440.873    20575451.834
       234.000         189.000
 01 11 12 17 58 29.9940000  0  7G27G25G22G20G 1G 4G13
 -15376080.77849 -11668947.98746  22074924.027    22074924.000    22074939.276
       225.000         177.000
  10040796.57649   7820021.53645  22792960.567    22792959.585    22792978.951
       216.000         160.000
 -14912971.70749 -11596666.88147  19274612.113    19274611.411    19274622.760
       240.000         208.000
  -7490227.66249  -5821546.47347  19251887.800    19251887.235    19251897.416
       241.000         208.000
 -16751288.98349 -13041506.89947  19008015.536    19008015.356    19008025.581
       239.000         208.000
  -6604928.90849  -4041788.25445  22840371.149    22840370.809    22840386.811
       209.000         142.000
 -24198434.71049 -18819874.24147  20555154.605    20555155.128    20555166.080
       234.000         189.000
 01 11 12 17 58 59.9940000  0  7G27G25G22G20G 1G 4G13
 -15484071.68349 -11753096.67446  22054373.986    22054373.978    22054389.152
       227.000         177.000
  10086496.45049   7855631.45745  22801657.060    22801656.238    22801675.788
       219.000         161.000
 -14913512.57349 -11597088.40947  19274509.246    19274508.541    19274519.898
       240.000         208.000
  -7466447.76649  -5803016.77147  19256413.020    19256412.463    19256422.683
       241.000         207.000
 -16811016.69249 -13088047.99247  18996649.702    18996649.564    18996659.817
       238.000         208.000
  -6627897.78549  -4059686.23645  22836000.447    22836000.206    22836016.005
       212.000         145.000
 -24304994.56449 -18902907.85447  20534876.850    20534877.430    20534888.352
       234.000         189.000
 01 11 12 17 59 29.9940000  0  7G27G25G22G20G 1G 4G13
 -15591954.54149 -11837161.17546  22033844.435    22033844.492    22033859.626
       225.000         176.000
  10132125.29549   7891185.98946  22810340.196    22810339.394    22810359.110
       217.000         165.000
 -14913489.82449 -11597070.76047  19274513.558    19274512.910    19274524.288
       240.000         207.000
  -7442220.69549  -5784138.62247  19261023.318    19261022.783    19261033.018
       241.000         207.000
 -16870567.20349 -13134451.01147  18985317.697    18985317.512    18985327.749
       239.000         208.000
  -6650451.01849  -4077260.27645  22831708.737    22831708.558    22831724.407
       208.000         145.000
 -24411504.66849 -18985902.69547  20514608.636    20514609.192    20514620.102
       235.000         190.000
 01 11 12 17 59 59.9940000  0  7G27G25G22G20G 1G 4G13
 -15699723.41049 -11921136.83446  22013336.598    22013336.685    22013351.805
       225.000         176.000
  10177688.70749   7926689.51746  22819010.981    22819010.133    22819030.004
       217.000         166.000
 -14912899.28049 -11596610.67247  19274625.990    19274625.325    19274636.729
       240.000         206.000
  -7417542.48549  -5764908.93247  19265719.537    19265718.970    19265729.216
       241.000         207.000
 -16929933.72849 -13180710.65447  18974020.667    18974020.459    18974030.717
       239.000         208.000
  -6672584.37349  -4094507.14045  22827496.978    22827496.871    22827512.901
       208.000         147.000
 -24517958.00349 -19068853.30747  20494351.168    20494351.743    20494362.661
       235.000         190.000
 01 11 12 18  0 29.9940000  0  7G27G25G22G20G 1G 4G13
 -15807389.23849 -12005032.21346  21992848.353    21992848.479    21992863.604
       225.000         176.000
  10223174.77449   7962132.81345  22827667.065    22827666.165    22827686.182
       214.000         160.000
 -14911753.48449 -11595717.92447  19274844.025    19274843.399    19274854.825
       239.000         207.000
  -7392425.79649  -5745337.56847  19270499.163    19270498.600    19270508.852
       241.000         207.000
 -16989126.18149 -13226834.66247  18962756.763    18962756.530    18962766.792
       239.000         208.000
  -6694309.89749  -4111436.23845  22823362.708    22823362.777    22823378.762
       204.000         145.000
 -24624364.53549 -19151767.43847  20474102.721    20474103.239    20474114.128
       235.000         191.000
 01 11 12 18  0 59.9940000  0  7G27G25G22G20G 1G 4G13
 -15914943.48949 -12088840.64046  21972381.395    21972381.539    21972396.575
       225.000         175.000
  10268591.23249   7997521.84545  22836310.018    22836308.955    22836329.077
       213.000         152.000
 -14910045.62949 -11594387.20547  19275169.092    19275168.438    19275179.883
       240.000         207.000
  -7366864.09549  -5725419.45347  19275363.484    19275362.911    19275373.161
       241.000         207.000
 -17048135.00749 -13272815.58247  18951527.791    18951527.555    18951537.797
       239.000         208.000
  -6715620.81449  -4128042.25045  22819307.437    22819307.514    22819323.510
       203.000         142.000
 -24730714.83649 -19234637.75347  20453864.935    20453865.431    20453876.271
       236.000         191.000
 01 11 12 18  1 29.9940000  0  7G27G25G22G20G 1G 4G13
 -16022397.50349 -12172570.96346  21951933.500    21951933.656    21951948.588
       225.000         176.000
  10313925.98949   8032847.16745  22844937.360    22844936.273    22844956.374
       210.000         152.000
 -14907788.76949 -11592628.69347  19275598.668    19275597.989    19275609.407
       240.000         207.000
  -7340870.79449  -5705165.02147  19280309.932    19280309.352    19280319.581
       241.000         206.000
 -17106970.55549 -13318661.47747  18940331.786    18940331.546    18940341.795
       238.000         208.000
  -6736529.88049  -4144335.11045  22815328.494    22815328.599    22815344.638
       204.000         140.000
 -24837019.13149 -19317472.21547  20433635.824    20433636.338    20433647.165
       235.000         191.000
 01 11 12 18  1 59.9940000  0  7G27G25G22G20G 1G 4G13
 -16129757.06749 -12256227.69146  21931503.494    21931503.695    21931518.633
       224.000         177.000
  10359172.41949   8068103.67745  22853547.827    22853546.707    22853566.853
       214.000         156.000
 -14904990.33349 -11590448.17247  19276131.269    19276130.573    19276141.972
       239.000         207.000
  -7314453.56549  -5684580.26247  19285337.004    19285336.446    19285346.681
       241.000         206.000
 -17165637.57449 -13364376.05247  18929167.842    18929167.595    18929177.840
       239.000         208.000
  -6757044.21049  -4160320.43245  22811425.141    22811425.039    22811440.914
       204.000         141.000
 -24943282.13349 -19400274.49747  20413414.571    20413415.122    20413425.925
       236.000         190.000
 01 11 12 18  2 29.9940000  0  7G27G25G22G20G 1G 4G13
 -16237006.02449 -12339798.21646  21911094.602    21911094.793    21911109.790
       224.000         177.000
  10404345.89049   8103303.33845  22862144.302    22862143.211    22862163.460
       213.000         155.000
 -14901636.06349 -11587834.52947  19276769.574    19276768.904    19276780.332
       240.000         207.000
  -7287598.02949  -5663653.95947  19290447.493    19290446.945    19290457.202
       241.000         206.000
 -17224118.72049 -13409945.78547  18918039.258    18918039.042    18918049.263
       239.000         208.000
  -6777149.24649  -4175986.80445  22807599.229    22807599.302    22807615.088
       203.000         139.000
 -25049486.61449 -19483031.17947  20393204.564    20393205.069    20393215.819
       236.000         191.000
 01 11 12 18  2 59.9940000  0  7G27G25G22G20G 1G 4G13
 -16344140.02449 -12423279.18846  21890707.640    21890707.800    21890722.775
       225.000         175.000
  10449449.80349   8138448.80745  22870727.602    22870726.482    22870746.784
       211.000         149.000
 -14897723.32849 -11584785.71947  19277514.190    19277513.527    19277524.982
       240.000         208.000
  -7260302.12149  -5642384.52047  19295641.825    19295641.254    19295651.505
       241.000         205.000
 -17282408.77749 -13455366.61947  18906947.063    18906946.845    18906957.051
       239.000         208.000
  -6796842.36849  -4191332.20645  22803851.798    22803851.875    22803867.622
       206.000         138.000
 -25155627.48749 -19565738.31247  20373006.594    20373007.112    20373017.830
       236.000         190.000
 01 11 12 18  3 29.9940000  0  7G27G25G22G20G 1G 4G13
 -16451182.03449 -12506688.46446  21870338.137    21870338.293    21870353.237
       225.000         176.000
  10494460.50349   8173521.62445  22879293.167    22879292.068    22879312.369
       206.000         142.000
 -14893277.07349 -11581321.18447  19278360.335    19278359.678    19278371.166
       240.000         207.000
  -7232590.87149  -5620791.43447  19300915.183    19300914.614    19300924.842
       241.000         206.000
 -17340529.62449 -13500655.59547  18895887.048    18895886.832    18895897.043
       239.000         208.000
  -6816148.13949  -4206375.79845  22800178.082    22800178.276    22800193.833
       208.000         142.000
 -25261726.52949 -19648412.85247  20352816.550    20352817.090    20352827.823
       236.000         191.000
 01 11 12 18  3 59.9940000  0  7G27G25G22G20G 1G 4G13
 -16558114.98749 -12590012.75046  21849989.446    21849989.584    21850004.531
       227.000         178.000
  10539393.93749   8208534.26645  22887843.845    22887842.901    22887863.189
       204.000         135.000
 -14888281.97549 -11577428.97247  19279310.955    19279310.272    19279321.775
       240.000         207.000
  -7204449.16849  -5598862.93247  19306270.424    19306269.874    19306280.134
       240.000         205.000
 -17398463.35449 -13545798.76447  18884862.637    18884862.421    18884872.605
       240.000         209.000
  -6835050.99449  -4221105.41445  22796581.027    22796581.282    22796596.951
       208.000         146.000
 -25367765.67049 -19731040.71247  20332637.864    20332638.463    20332649.202
       236.000         191.000
 01 11 12 18  4 29.9940000  0  7G27G25G22G20G 1G 4G13
 -16664933.83849 -12673248.14546  21829662.417    21829662.535    21829677.507
       226.000         177.000
  10584255.10149   8243490.59444  22896380.933    22896380.023    22896400.284
       202.000         131.000
 -14882734.76449 -11573106.54847  19280366.586    19280365.928    19280377.444
       239.000         206.000
  -7175873.82849  -5576596.53147  19311708.185    19311707.633    19311717.947
       240.000         205.000
 -17456203.63049 -13590791.18847  18873875.014    18873874.827    18873885.028
       240.000         209.000
  -6853547.38949  -4235518.31545  22793061.249    22793061.526    22793077.208
       207.000         147.000
 -25473738.80649 -19813617.14247  20312471.724    20312472.371    20312483.154
       236.000         191.000
 01 11 12 18  4 59.9940000  0  7G27G25G22G20G 1G 4G13
 -16771648.51049 -12756402.33146  21809355.233    21809355.354    21809370.352
       227.000         178.000
  10629033.00749   8278382.01244  22904902.163    22904901.120    22904921.609
       197.000         126.000
 -14876647.28149 -11568363.12647  19281525.062    19281524.394    19281535.940
       239.000         206.000
  -7146876.89049  -5554001.61447  19317226.183    19317225.628    19317235.967
       240.000         204.000
 -17513759.32649 -13635639.78547  18862922.467    18862922.341    18862932.576
       240.000         208.000
  -6871648.97749  -4249623.57145  22789616.690    22789616.982    22789632.768
       209.000         149.000
 -25579654.54949 -19896148.84847  20292316.642    20292317.230    20292327.994
       237.000         191.000
 01 11 12 18  5 29.9940000  0  7G27G25G22G20G 1G 4G13
 -16878270.38449 -12839484.21246  21789065.772    21789065.844    21789080.837
       227.000         180.000
  10673715.40049   8313199.04044  22913405.468    22913404.210    22913423.664
       196.000         120.000
 -14870032.64549 -11563208.94147  19282783.834    19282783.164    19282794.727
       240.000         206.000
  -7117471.69649  -5531088.57047  19322821.840    19322821.310    19322831.665
       240.000         204.000
 -17571140.84749 -13680352.66147  18852003.107    18852002.993    18852013.267
       240.000         208.000
  -6889368.56549  -4263431.14145  22786244.996    22786245.177    22786261.022
       204.000         144.000
 -25685523.37449 -19978644.00147  20272170.494    20272171.051    20272181.771
       238.000         193.000
 01 11 12 18  5 59.9940000  0  7G27G25G22G20G 1G 4G13
 -16984791.02449 -12922487.20746  21768795.448    21768795.588    21768810.569
       227.000         181.000
  10718310.41348   8347947.94944  22921891.767    22921895.108    22921915.217
       187.000         117.000
 -14862884.45549 -11557639.00147  19284144.147    19284143.477    19284155.066
       239.000         207.000
  -7087652.14249  -5507852.65447  19328496.394    19328495.853    19328506.216
       240.000         204.000
 -17628338.64149 -13724922.36847  18841118.707    18841118.608    18841128.894
       239.000         207.000
  -6906699.61649  -4276935.96645  22782946.903    22782947.141    22782963.063
       198.000         137.000
 -25791335.88049 -20061095.26347  20252035.054    20252035.606    20252046.295
       238.000         194.000
 01 11 12 18  6 29.9940000  0  7G27G25G22G20G 1G 4G13
 -17091196.12549 -13005400.16346  21748547.218    21748547.322    21748562.333
       227.000         183.000
                   8382639.22244  22930364.279
       183.000         108.000
 -14855190.22349 -11551643.58747  19285608.401    19285607.704    19285619.304
       240.000         207.000
  -7057405.95849  -5484284.30047  19334252.150    19334251.580    19334261.973
       240.000         204.000
 -17685337.41449 -13769336.99347  18830272.211    18830272.088    18830282.395
       240.000         208.000
  -6923629.24249  -4290128.03345  22779725.331    22779725.563    22779741.608
       198.000         136.000
 -25897076.53549 -20143490.52847  20231913.278    20231913.799    20231924.529
       239.000         194.000
 01 11 12 18  6 59.9940000  0  7G27G25G22G20G 1G 4G13
 -17197497.14049 -13088231.99046  21728318.766    21728318.881    21728333.854
       228.000         183.000
                   8417263.38754  22938820.099
       171.000         100.000
 -14846963.27949 -11545233.06147  19287174.036    19287173.321    19287184.944
       240.000         207.000
  -7026746.30149  -5460393.76147  19340086.582    19340086.000    19340096.424
       240.000         204.000
 -17742147.37749 -13813604.49247  18819461.624    18819461.509    18819471.831
       239.000         208.000
  -6940170.22749  -4303017.24745  22776577.868    22776578.116    22776594.019
       198.000         135.000
 -26002755.32949 -20225837.60147  20211803.302    20211803.798    20211814.496
       239.000         194.000
 01 11 12 18  7 29.9940000  0  7G27G25G22G20G 1G 4G13
 -17303685.35549 -13170975.92046  21708111.782    21708111.876    21708126.815
       229.000         183.000
                   8451826.81054  22947261.320
       178.000          96.000
 -14838196.91649 -11538402.21847  19288842.286    19288841.560    19288853.225
       240.000         207.000
  -6995666.72749  -5436176.01547  19346000.907    19346000.325    19346010.781
       240.000         204.000
 -17798758.73349 -13857717.23747  18808688.803    18808688.726    18808699.073
       239.000         208.000
  -6956316.05649  -4315598.51645  22773505.650    22773505.758    22773521.742
       198.000         134.000
 -26108362.55349 -20308128.89947  20191706.881    20191707.376    20191718.065
       238.000         194.000
 01 11 12 18  7 59.9940000  0  6G27G22G20G 1G 4G13
 -17409779.21849 -13253646.34046  21687922.747    21687922.849    21687937.731
       230.000         183.000
 -14828911.48549 -11531166.90447  19290609.275    19290608.575    19290620.273
       239.000         206.000
  -6964187.95549  -5411647.20247  19351991.156    19351990.588    19352001.074
       239.000         203.000
 -17855188.84649 -13901688.75347  18797950.507    18797950.416    18797960.786
       239.000         208.000
  -6972086.65649  -4327887.39644  22770504.577    22770504.576    22770520.905
       197.000         131.000
 -26213915.55349 -20390377.94447  20171620.740    20171621.277    20171631.964
       238.000         194.000
 01 11 12 18  8 29.9940000  0  6G27G22G20G 1G 4G13
 -17515759.32849 -13336228.11246  21667755.315    21667755.421    21667770.321
       230.000         184.000
 -14819089.46349 -11523513.46547  19292478.439    19292477.714    19292489.440
       238.000         205.000
  -6932292.40849  -5386793.64347  19358060.705    19358060.163    19358070.691
       240.000         204.000
 -17911417.08149 -13945502.96747  18787250.627    18787250.525    18787260.924
       240.000         208.000
  -6987464.13649  -4339869.95545  22767578.439    22767578.363    22767594.818
       201.000         136.000
 -26319393.72749 -20472568.68347  20151548.922    20151549.429    20151560.089
       239.000         193.000
 01 11 12 18  8 59.9940000  0  6G27G22G20G 1G 4G13
 -17621639.90249 -13418732.31646  21647606.751    21647606.942    21647621.852
       231.000         184.000
 -14808747.26449 -11515454.69447  19294446.590    19294445.845    19294457.574
       239.000         205.000
  -6899996.49349  -5361628.10247  19364206.472    19364205.941    19364216.499
       240.000         203.000
 -17967456.56849 -13989170.10347  18776586.665    18776586.582    18776596.967
       239.000         208.000
  -7002464.49249  -4351558.68045  22764724.017    22764724.031    22764740.544
       197.000         134.000
 -26424810.03849 -20554711.21147  20131488.802    20131489.330    20131499.975
       238.000         193.000
 01 11 12 18  9 29.9940000  0  6G27G22G20G 1G 4G13
 -17727403.86049 -13501145.66046  21627480.569    21627480.679    21627495.493
       231.000         183.000
 -14797869.57749 -11506978.66047  19296516.663    19296515.873    19296527.603
       239.000         205.000
  -6867285.41549  -5336139.06347  19370431.268    19370430.725    19370441.318
       241.000         203.000
 -18023289.00949 -14032675.91647  18765962.172    18765962.037    18765972.431
       239.000         208.000
  -7017072.29749  -4362941.51545  22761944.366    22761944.247    22761960.839
       198.000         135.000
 -26530146.01949 -20636791.14647  20111443.952    20111444.499    20111455.138
       236.000         193.000
 01 11 12 18  9 59.9930000  0  6G27G22G20G 1G 4G13
 -17833063.07949 -13583477.37046  21607374.251    21607374.363    21607389.083
       230.000         183.000
 -14786474.24349 -11498099.27347  19298685.183    19298684.406    19298696.164
       240.000         206.000
  -6834177.81449  -5310341.03947  19376731.535    19376730.973    19376741.590
       239.000         203.000
 -18078927.07649 -14076030.26547  18755374.673    18755374.495    18755384.871
       240.000         208.000
  -7031304.54749  -4374031.68245  22759236.097    22759235.983    22759252.543
       196.000         136.000
 -26635412.53349 -20718816.95247  20091412.274    20091412.866    20091423.554
       237.000         194.000
 01 11 12 18 10 29.9930000  0  6G27G22G20G 1G 4G13
 -17938609.42849 -13665721.13646  21587289.342    21587289.480    21587304.178
       229.000         183.000
 -14774547.60149 -11488805.86547  19300954.796    19300954.032    19300965.823
       239.000         206.000
  -6800658.39349  -5284222.12147  19383110.108    19383109.568    19383120.248
       240.000         203.000
 -18134358.09649 -14119223.28147  18744826.547    18744826.348    18744836.729
       240.000         208.000
  -7045148.53049  -4384819.33745  22756601.636    22756601.601    22756618.237
       197.000         135.000
 -26740600.35049 -20800781.43247  20071395.668    20071396.244    20071406.952
       236.000         194.000
 01 11 12 18 10 59.9930000  0  6G27G22G20G 1G 4G13
 -18044051.59849 -13747883.73246  21567224.270    21567224.423    21567239.051
       228.000         181.000
 -14762104.03649 -11479109.66647  19303322.771    19303322.020    19303333.835
       238.000         206.000
  -6766742.61749  -5257794.35647  19389564.157    19389563.600    19389574.301
       239.000         203.000
 -18189591.12849 -14162262.02847  18734316.099    18734315.875    18734326.231
       239.000         207.000
  -7058617.75549  -4395314.92045  22754038.457    22754038.613    22754055.175
       199.000         134.000
 -26845716.73749 -20882690.24147  20051392.622    20051393.228    20051403.942
       236.000         193.000
 01 11 12 18 11 29.9930000  0  6G27G22G20G 1G 4G13
 -18149376.61249 -13829955.04046  21547181.395    21547181.589    21547196.213
       227.000         181.000
 -14749132.57649 -11469002.12447  19305791.215    19305790.463    19305802.331
       239.000         206.000
  -6732419.65149  -5231049.30147  19396095.709    19396095.134    19396105.831
       240.000         203.000
 -18244612.08849 -14205135.52047  18723845.941    18723845.756    18723856.098
       239.000         207.000
  -7071700.85749  -4405509.66345  22751549.061    22751549.115    22751565.815
       202.000         143.000
 -26950747.17149 -20964532.07447  20031405.960    20031406.556    20031417.269
       236.000         194.000
 01 11 12 18 11 59.9930000  0  6G27G22G20G 1G 4G13
 -18254603.30649 -13911949.73746  21527157.357    21527157.523    21527172.094
       228.000         183.000
 -14735654.35649 -11458499.69947  19308356.126    19308355.367    19308367.216
       240.000         205.000
  -6697710.65949  -5204003.44947  19402700.743    19402700.120    19402710.849
       240.000         203.000
 -18299438.71149 -14247857.58347  18713412.790    18713412.597    18713422.947
       239.000         207.000
  -7084418.55349  -4415419.65345  22749129.124    22749129.185    22749145.959
       206.000         146.000
 -27055709.78749 -21046321.06847  20011432.204    20011432.815    20011443.502
       237.000         194.000
 01 11 12 18 12 29.9930000  0  6G27G22G20G 1G 4G13
 -18359722.35149 -13993860.56046  21507153.838    21507153.975    21507168.514
       230.000         184.000
 -14721661.95249 -11447596.61647  19311018.863    19311018.115    19311029.936
       239.000         205.000
  -6662608.23149  -5176651.02447  19409380.585    19409379.967    19409390.763
       241.000         203.000
 -18354060.29049 -14290419.87047  18703018.669    18703018.468    18703028.824
       239.000         207.000
  -7096763.16149  -4425038.98245  22746780.224    22746780.251    22746797.035
       203.000         143.000
 -27160593.73149 -21128048.76047  19991473.419    19991474.013    19991484.715
       237.000         195.000
 01 11 12 18 12 59.9930000  0  6G27G22G20G 1G 4G13
 -18464721.57349 -14075678.03046  21487173.026    21487173.198    21487187.721
       229.000         184.000
 -14707145.35449 -11436285.08047  19313781.306    19313780.596    19313792.431
       240.000         204.000
  -6627102.49949  -5148984.34747  19416137.190    19416136.583    19416147.429
       240.000         203.000
 -18408463.65349 -14332812.12047  18692666.045    18692665.871    18692676.205
       237.000         206.000
  -7108724.51249  -4434359.65045  22744504.382    22744504.256    22744520.943
       200.000         138.000
 -27265385.68449 -21209704.77647  19971532.153    19971532.740    19971543.438
       237.000         195.000
 01 11 12 18 13 29.9930000  0  6G27G22G20G 1G 4G13
 -18569609.89049 -14157409.07446  21467213.371    21467213.524    21467228.028
       227.000         184.000
 -14692115.48049 -11424573.58247  19316641.542    19316640.776    19316652.603
       238.000         204.000
  -6591204.58049  -5121012.06047  19422968.434    19422967.810    19422978.693
       239.000         202.000
 -18462656.37449 -14375040.23547  18682353.507    18682353.333    18682363.685
       239.000         206.000
  -7120313.14449  -4443389.84945  22742299.067    22742299.019    22742315.861
       197.000         134.000
 -27370092.75749 -21291294.65347  19951607.127    19951607.639    19951618.305
       237.000         196.000
 01 11 12 18 13 59.9930000  0  6G27G22G20G 1G 4G13
 -18674386.30449 -14239052.93246  21447275.003    21447275.165    21447289.596
       230.000         184.000
 -14676573.59849 -11412463.12847  19319599.113    19319598.350    19319610.205
       237.000         203.000
  -6554915.93849  -5092735.32247  19429874.014    19429873.386    19429884.322
       239.000         203.000
 -18516636.43849 -14417102.64147  18672081.450    18672081.295    18672091.615
       239.000         206.000
  -7131529.98949  -4452130.39745  22740164.494    22740164.608    22740181.344
       198.000         135.000
 -27474712.75349 -21372816.66747  19931698.582    19931699.090    19931709.764
       238.000         196.000
 01 11 12 18 14 29.9930000  0  6G27G22G20G 1G 4G13
 -18779046.91949 -14320606.56146  21427358.666    21427358.843    21427373.204
       228.000         184.000
 -14660517.94749 -11399952.34247  19322654.457    19322653.706    19322665.572
       238.000         204.000
  -6518234.77149  -5064152.72147  19436854.280    19436853.655    19436864.629
       239.000         202.000
 -18570398.77849 -14458995.38847  18661850.830    18661850.670    18661860.994
       238.000         207.000
  -7142372.91049  -4460579.57345  22738101.407    22738101.496    22738118.085
       195.000         141.000
 -27579240.97649 -21454267.17147  19911807.553    19911808.006    19911818.665
       237.000         196.000
 01 11 12 18 14 59.9930000  0  6G27G22G20G 1G 4G13
 -18883602.26549 -14402078.16546  21407462.314    21407462.511    21407476.872
       227.000         184.000
 -14643961.22849 -11387051.11247  19325805.167    19325804.418    19325816.290
       239.000         204.000
  -6481173.64749  -5035274.04347  19443906.852    19443906.222    19443917.242
       239.000         202.000
 -18623952.66949 -14500725.70847  18651659.866    18651659.695    18651670.032
       238.000         206.000
  -7152854.32149  -4468747.05145  22736106.835    22736106.995    22736123.928
       203.000         144.000
 -27683686.11149 -21535652.93547  19891932.241    19891932.730    19891943.358
       237.000         196.000
 01 11 12 18 15 29.9930000  0  6G27G22G20G 1G 4G13
 -18988064.72149 -14483477.39846  21387583.647    21387583.877    21387598.218
       229.000         183.000
 -14626917.99849 -11373770.79147  19329048.450    19329047.699    19329059.587
       240.000         205.000
  -6443747.34249  -5006110.82547  19451028.945    19451028.302    19451039.362
       240.000         202.000
 -18677309.33049 -14542302.33947  18641506.427    18641506.273    18641516.615
       238.000         206.000
  -7162988.62749  -4476644.00145  22734178.617    22734178.675    22734195.478
       207.000         148.000
 -27788059.34749 -21616982.66947  19872070.602    19872071.118    19872081.724
       237.000         196.000
 01 11 12 18 15 59.9930000  0  6G27G22G20G 1G 4G13
 -19092424.25349 -14564796.42946  21367724.621    21367724.848    21367739.155
       228.000         185.000
 -14609380.50049 -11360105.31747  19332385.803    19332385.051    19332396.937
       239.000         204.000
  -6405948.18049  -4976657.05447  19458222.017    19458221.355    19458232.437
       239.000         202.000
 -18730457.49349 -14583716.50947  18631392.687    18631392.527    18631402.863
       239.000         207.000
  -7172767.63849  -4484264.15045  22732317.968    22732317.976    22732334.730
       207.000         149.000
 -27892349.39449 -21698247.60247  19852224.871    19852225.350    19852235.920
       238.000         195.000
 01 11 12 18 16 29.9930000  0  6G27G22G20G 1G 4G13
 -19196672.62849 -14646028.84346  21347886.825    21347886.980    21347901.272
       228.000         186.000
 -14591342.71749 -11346050.00247  19335818.346    19335817.608    19335829.478
       238.000         204.000
  -6367770.17049  -4946908.09147  19465487.147    19465486.483    19465497.586
       239.000         202.000
 -18783387.80849 -14624960.92347  18621320.389    18621320.221    18621330.574
       238.000         206.000
  -7182184.90749  -4491602.41245  22730526.095    22730526.102    22730542.821
       209.000         149.000
 -27996546.60949 -21779440.19747  19832396.778    19832397.254    19832407.793
       237.000         196.000
 01 11 12 18 16 59.9930000  0  6G27G22G20G 1G 4G13
 -19300813.48549 -14727177.46146  21328069.417    21328069.582    21328083.872
       229.000         187.000
 -14572810.33049 -11331609.29247  19339345.035    19339344.271    19339356.143
       239.000         203.000
  -6329219.48549  -4916868.73247  19472823.178    19472822.523    19472833.678
       239.000         202.000
 -18836102.55149 -14666037.36147  18611289.154    18611288.967    18611299.300
       238.000         206.000
  -7191245.96849  -4498663.09545  22728801.924    22728801.917    22728818.469
       210.000         147.000
 -28100653.15049 -21860562.14047  19812585.869    19812586.396    19812596.908
       237.000         195.000
 01 11 12 18 17 29.9930000  0  6G27G22G20G 1G 4G13
 -19404847.26149 -14808242.67246  21308272.365    21308272.544    21308286.798
       230.000         186.000
 -14553786.02249 -11316785.25947  19342965.309    19342964.539    19342976.447
       237.000         202.000
  -6290298.52449  -4886540.84547  19480229.677    19480229.033    19480240.217
       239.000         202.000
 -18888600.98249 -14706945.24447  18601299.027    18601298.862    18601309.178
       238.000         206.000
  -7199953.05549  -4505447.99045  22727145.078    22727145.123    22727161.618
       208.000         147.000
 -28204668.07349 -21941612.67947  19792792.490    19792792.990    19792803.483
       239.000         196.000
 01 11 12 18 17 59.9930000  0  6G27G22G20G 1G 4G13
 -19508773.72149 -14889224.25546  21288495.752    21288495.935    21288510.106
       229.000         185.000
 -14534271.99249 -11301579.64247  19346678.727    19346677.988    19346689.965
       238.000         203.000
  -6251009.54149  -4855926.18847  19487706.328    19487705.607    19487716.778
       240.000         203.000
 -18940881.68949 -14747683.47447  18591350.388    18591350.203    18591360.510
       239.000         206.000
  -7208308.10049  -4511958.53445  22725555.091    22725555.210    22725571.810
       210.000         148.000
 -28308589.62249 -22022590.46647  19773016.894    19773017.332    19773027.825
       236.000         196.000
 01 11 12 18 18 29.9930000  0  6G27G22G20G 1G 4G13
 -19612610.97749 -14970136.30646  21268736.141    21268736.312    21268750.458
       230.000         187.000
 -14514288.57749 -11286008.25847  19350481.486    19350480.762    19350492.799
       237.000         203.000
  -6211372.96749  -4825040.67947  19495249.121    19495248.357    19495259.501
       240.000         202.000
 -18992961.56649 -14788265.21347  18581439.909    18581439.739    18581450.053
       236.000         206.000
  -7216331.14249  -4518210.38245  22724028.546    22724028.611    22724045.150
       213.000         153.000
 -28412434.59249 -22103508.58047  19753255.746    19753256.229    19753266.763
       237.000         196.000
 01 11 12 18 18 59.9930000  0  6G27G22G20G 1G 4G13
 -19716340.39849 -15050964.33146  21248997.022    21248997.189    21249011.365
       230.000         187.000
 -14493819.35649 -11270058.33847  19354376.747    19354376.000    19354388.088
       238.000         203.000
  -6171372.46849  -4793871.60347  19502861.115    19502860.318    19502871.469
       240.000         201.000
 -19044820.81949 -14828675.04447  18571571.465    18571571.271    18571581.577
       237.000         206.000
  -7224005.28249  -4524190.38045  22722568.439    22722568.383    22722584.966
       212.000         155.000
 -28516183.19749 -22184351.60847  19733512.939    19733513.474    19733524.014
       237.000         195.000
 01 11 12 18 19 29.9930000  0  6G27G22G20G 1G 4G13
 -19819957.76149 -15131705.04946  21229279.156    21229279.348    21229293.590
       229.000         187.000
 -14472862.31749 -11253728.29047  19358364.930    19358364.089    19358376.175
       236.000         203.000
  -6131006.07149  -4762417.40047  19510542.621    19510541.889    19510553.046
       238.000         201.000
 -19096453.88049 -14868908.62447  18561746.038    18561745.850    18561756.157
       237.000         207.000
  -7231328.55749  -4529896.93545  22721174.860    22721174.890    22721191.454
       211.000         152.000
 -28619829.34849 -22265114.78947  19713789.738    19713790.251    19713800.766
       238.000         197.000
 01 11 12 18 19 59.9930000  0  6G27G22G20G 1G 4G13
 -19923459.14349 -15212355.38947  21209583.363    21209583.589    21209597.872
       229.000         189.000
 -14451416.08149 -11237017.06147  19362446.099    19362445.271    19362457.367
       238.000         204.000
  -6090272.29249  -4730676.93747  19518294.081    19518293.367    19518304.563
       240.000         201.000
 -19147855.65649 -14908961.98347  18551964.646    18551964.449    18551974.758
       237.000         207.000
  -7238298.79949  -4535328.42345  22719848.467    22719848.538    22719865.175
       214.000         153.000
 -28723367.86849 -22345794.10547  19694086.971    19694087.491    19694097.987
       237.000         196.000
 01 11 12 18 20 29.9930000  0  6G27G22G20G 1G 4G13
 -20026852.76149 -15292921.74647  21189908.171    21189908.372    21189922.679
       229.000         188.000
 -14429490.82449 -11219932.56347  19366618.457    19366617.610    19366629.714
       240.000         203.000
  -6049181.51749  -4698658.28547  19526113.569    19526112.803    19526124.007
       239.000         201.000
 -19199032.86949 -14948840.36247  18542225.993    18542225.791    18542236.067
       237.000         207.000
  -7244926.11649  -4540492.72145  22718587.346    22718587.504    22718604.065
       214.000         152.000
 -28826805.44049 -22426394.76047  19674403.407    19674403.925    19674414.400
       237.000         196.000
 01 11 12 18 20 59.9930000  0  6G27G22G20G 1G 4G13
 -20130138.30249 -15373403.89146  21170253.466    21170253.702    21170267.989
       228.000         187.000
 -14407088.67049 -11202476.44847  19370881.642    19370880.710    19370892.813
       237.000         203.000
  -6007735.72149  -4666363.00647  19534000.558    19533999.796    19534011.035
       239.000         201.000
 -19249984.14249 -14988542.68247  18532530.340    18532530.122    18532540.397
       237.000         207.000
  -7251212.29449  -4545391.16745  22717391.289    22717391.367    22717407.880
       216.000         153.000
 -28930140.32249 -22506915.39047  19654739.292    19654739.880    19654750.354
       236.000         195.000
 01 11 12 18 21 29.9930000  0  6G27G22G20G 1G 4G13
 -20233315.94749 -15453801.96047  21150619.397    21150619.589    21150633.850
       229.000         188.000
 -14384212.21949 -11184650.77347  19375234.975    19375234.059    19375246.140
       238.000         202.000
  -5965937.74549  -4633793.30447  19541954.573    19541953.804    19541965.073
       240.000         201.000
 -19300708.50249 -15028068.18647  18522877.836    18522877.619    18522887.902
       236.000         206.000
  -7257159.67249  -4550025.65145  22716259.635    22716259.761    22716276.295
       214.000         152.000
 -29033371.10249 -22587354.89447  19635095.109    19635095.668    19635106.107
       237.000         197.000
 01 11 12 18 21 59.9930000  0  6G27G22G20G 1G 4G13
 -20336393.71649 -15534122.20646  21131004.327    21131004.476    21131018.695
       229.000         187.000
 -14360871.64149 -11166463.43747  19379676.585    19379675.709    19379687.818
       235.000         202.000
  -5923797.89349  -4600957.19247  19549973.653    19549972.873    19549984.147
       239.000         200.000
 -19351212.54949 -15067422.01647  18513267.224    18513267.030    18513277.323
       237.000         206.000
  -7262777.87949  -4554403.63745  22715190.602    22715190.707    22715207.299
       215.000         153.000
 -29136504.73349 -22667718.71947  19615469.439    19615469.962    19615480.364
       238.000         197.000
 01 11 12 18 22 29.9930000  0  6G27G22G20G 1G 4G13
 -20439355.97949 -15614352.45846  21111411.234    21111411.341    21111425.487
       229.000         186.000
 -14337053.91449 -11147904.29047  19384209.030    19384208.144    19384220.318
       235.000         201.000
  -5881302.90449  -4567844.36047  19558060.247    19558059.500    19558070.796
       239.000         201.000
 -19401479.63349 -15106591.19547  18503701.731    18503701.536    18503711.838
       236.000         206.000
  -7268053.66549  -4558514.76745  22714186.685    22714186.830    22714203.530
       216.000         154.000
 -29239523.39449 -22747992.95147  19595865.595    19595866.121    19595876.538
       238.000         198.000
 01 11 12 18 22 59.9930000  0  6G27G22G20G 1G 4G13
 -20542210.33549 -15694498.60647  21091838.647    21091838.751    21091852.880
       228.000         188.000
 -14312768.92449 -11128981.05347  19388830.425    19388829.527    19388841.726
       236.000         202.000
  -5838462.61949  -4534462.46547  19566212.620    19566211.850    19566223.163
       239.000         200.000
 -19451515.91449 -15145580.52647  18494180.154    18494179.971    18494190.270
       237.000         207.000
  -7272996.56349  -4562366.52345  22713246.197    22713246.378    22713263.103
       217.000         158.000
 -29342433.50749 -22828182.60947  19576282.473    19576282.965    19576293.365
       238.000         198.000
 01 11 12 18 23 29.9930000  0  6G27G22G20G 1G 4G13
 -20644956.65349 -15774560.58147  21072286.543    21072286.670    21072300.844
       228.000         188.000
 -14288018.96649 -11109695.50847  19393540.292    19393539.395    19393551.622
       237.000         202.000
  -5795279.46949  -4500813.39647  19574430.183    19574429.430    19574440.766
       239.000         200.000
 -19501320.05549 -15184388.97247  18484702.829    18484702.602    18484712.852
       238.000         207.000
  -7277608.45349  -4565960.34945  22712368.715    22712368.858    22712385.630
       219.000         157.000
 -29445233.48749 -22908286.44447  19556720.292    19556720.754    19556731.141
       238.000         198.000
 01 11 12 18 23 59.9930000  0  6G27G22G20G 1G 4G13
 -20747584.65649 -15854530.36547  21052756.990    21052757.118    21052771.310
       229.000         188.000
 -14262796.09049 -11090041.44547  19398340.207    19398339.256    19398351.502
       235.000         202.000
  -5751745.56249  -4466891.01247  19582714.508    19582713.773    19582725.163
       239.000         200.000
 -19550880.49549 -15223007.50847  18475271.846    18475271.611    18475281.810
       238.000         206.000
  -7281881.27449  -4569289.98445  22711555.687    22711555.880    22711572.623
       218.000         155.000
 -29547911.41349 -22988295.17147  19537181.386    19537181.820    19537192.156
       239.000         199.000
 01 11 12 18 24 29.9930000  0  6G27G22G20G 1G 4G13
 -20850112.54549 -15934422.14847  21033246.538    21033246.665    21033260.796
       231.000         188.000
 -14237120.82049 -11070034.86447  19403226.191    19403225.224    19403237.459
       237.000         202.000
  -5707881.52649  -4432711.39147  19591061.656    19591060.932    19591072.355
       239.000         199.000
 -19600214.16549 -15261449.33847  18465884.016    18465883.767    18465893.942
       237.000         207.000
  -7285835.16449  -4572371.06745  22710803.383    22710803.558    22710820.307
       218.000         153.000
 -29650484.08149 -23068221.87747  19517662.469    19517662.885    19517673.189
       239.000         199.000
 01 11 12 18 24 59.9930000  0  6G27G22G20G 1G 4G13
 -20952529.89749 -16014227.78346  21013757.114    21013757.233    21013771.305
       231.000         187.000
 -14210985.20249 -11049669.59247  19408199.703    19408198.768    19408211.026
       236.000         202.000
  -5663679.39349  -4398268.31047  19599473.213    19599472.449    19599483.872
       239.000         199.000
 -19649309.43349 -15299705.39747  18456541.531    18456541.285    18456551.412
       238.000         206.000
  -7289461.70249  -4575197.06945  22710113.370    22710113.501    22710130.387
       216.000         154.000
 -29752939.41749 -23148057.15947  19498165.804    19498166.255    19498176.543
       239.000         199.000
 01 11 12 18 25 29.9930000  0  6G27G22G20G 1G 4G13
 -21054831.35349 -16093943.12646  20994289.768    20994289.852    20994303.837
       229.000         186.000
 -14184386.41349 -11028943.40747  19413261.371    19413260.467    19413272.731
       237.000         201.000
  -5619136.35749  -4363559.59947  19607949.607    19607948.826    19607960.278
       238.000         199.000
 -19698159.67849 -15337770.53147  18447245.656    18447245.428    18447255.548
       237.000         207.000
  -7292757.68649  -4577765.48745  22709486.174    22709486.387    22709503.372
       216.000         153.000
 -29855270.58849 -23227795.69547  19478692.747    19478693.222    19478703.505
       238.000         198.000
 01 11 12 18 25 59.9930000  0  6G27G22G20G 1G 4G13
 -21157028.26749 -16173577.00347  20974842.321    20974842.389    20974856.302
       228.000         188.000
 -14157338.07249 -11007866.89047  19418408.662    19418407.705    19418419.966
       239.000         201.000
  -5574265.87149  -4328595.72247  19616488.200    19616487.479    19616499.013
       238.000         198.000
 -19746774.81449 -15375652.45947  18437994.547    18437994.289    18438004.426
       237.000         207.000
  -7295736.54849  -4580086.82945  22708919.451    22708919.620    22708936.595
       221.000         155.000
 -29957487.30349 -23307445.04947  19459241.566    19459242.024    19459252.249
       238.000         199.000
 01 11 12 18 26 29.9930000  0  7G27G22G20G 1G 4G 8G13
 -21259121.38349 -16253130.01146  20955414.558    20955414.632    20955428.547
       229.000         186.000
 -14129843.27549 -10986442.49347  19423640.868    19423639.903    19423652.151
       237.000         201.000
  -5529071.14349  -4293379.19247  19625088.545    19625087.828    19625099.423
       238.000         197.000
 -19795154.31049 -15413350.77147  18428788.235    18428788.006    18428798.146
       236.000         207.000
  -7298400.97449  -4582163.17345  22708412.631    22708412.764    22708429.789
       219.000         158.000
  -3796945.77059  -2937011.82755  23111287.118    23111286.888    23111309.156
       212.000         143.000
 -30059588.57749 -23387004.42947  19439812.348    19439812.777    19439822.987
       238.000         199.000
 01 11 12 18 26 59.9930000  0  8G27G22G20G 1G 4G 3G 8G13
 -21361119.04749 -16332608.61346  20936004.998    20936005.034    20936018.976
       231.000         186.000
 -14101912.84149 -10964678.65547  19428955.920    19428954.982    19428967.273
       237.000         201.000
  -5483562.95249  -4257918.39847  19633748.512    19633747.834    19633759.514
       237.000         197.000
 -19843305.26549 -15450870.99547  18419625.379    18419625.186    18419635.371
       237.000         207.000
  -7300761.71349  -4584002.86345  22707963.590    22707963.643    22707980.698
       220.000         157.000
    -21954.83653                  22156515.286
       214.000          74.000
  -3926148.29849  -3037688.88045  23086700.591    23086700.363    23086722.601
       213.000         145.000
 -30161580.65549 -23466478.74647  19420403.905    19420404.318    19420414.493
       240.000         199.000
 01 11 12 18 27 29.9930000  0  8G27G22G20G 1G 4G 3G 8G13
 -21463008.69449 -16412003.05647  20916615.962    20916616.028    20916629.950
       232.000         188.000
 -14073536.83449 -10942567.60747  19434355.789    19434354.855    19434367.185
       239.000         201.000
  -5437731.36149  -4222205.60947  19642470.064    19642469.404    19642481.125
       238.000         196.000
 -19891213.98249 -15488202.46047  18410508.684    18410508.472    18410518.669
       237.000         206.000
  -7302808.19649  -4585597.66945  22707574.217    22707574.328    22707591.445
       215.000         155.000
   -105954.11945                  22136002.631
       216.000         161.000
  -4055311.02749  -3138334.88145  23062121.562    23062121.438    23062143.809
       208.000         145.000
 -30263450.23249 -23545857.59747  19401018.716    19401019.154    19401029.331
       239.000         199.000
 01 11 12 18 27 59.9930000  0  8G27G22G20G 1G 4G 3G 8G13
 -21564799.84749 -16491320.75147  20897245.774    20897245.771    20897259.648
       231.000         188.000
 -14044727.12849 -10920118.59047  19439838.296    19439837.276    19439849.613
       238.000         201.000
  -5391588.22949  -4186250.06147  19651250.908    19651250.252    19651262.009
       237.000         196.000
 -19938888.57349 -15525351.48347  18401436.463    18401436.283    18401446.518
       237.000         207.000
  -7304552.05949  -4586956.64445  22707242.322    22707242.562    22707259.741
       218.000         154.000
   -265092.09749   -189860.19045  22115512.711    22115513.451    22115533.394
       214.000         156.000
  -4184442.91349  -3238956.86845  23037548.322    23037548.378    23037570.783
       209.000         146.000
 -30365204.78349 -23625146.80047  19381655.350    19381655.850    19381666.064
       238.000         199.000
 01 11 12 18 28 29.9930000  0  8G27G22G20G 1G 4G 3G 8G13
 -21666465.82349 -16570540.89947  20877899.357    20877899.336    20877913.171
       233.000         189.000
 -14015459.59749 -10897312.84347  19445407.796    19445406.788    19445419.144
       236.000         200.000
  -5345109.39249  -4150032.92047  19660095.631    19660094.968    19660106.769
       237.000         196.000
 -19986301.09149 -15562296.30647  18392414.211    18392414.004    18392424.247
       237.000         207.000
  -7305968.83849  -4588060.78445  22706973.037    22706973.110    22706990.191
       217.000         154.000
   -372622.33659   -273649.74955  22095050.685    22095050.915    22095071.287
       212.000         149.000
  -4313516.79749  -3339533.63545  23012986.173    23012986.262    23013008.745
       209.000         149.000
 -30466816.30149 -23704324.54947  19362319.285    19362319.765    19362330.008
       239.000         200.000
 01 11 12 18 28 59.9930000  0  8G27G22G20G 1G 4G 3G 8G13
 -21768035.26849 -16649685.82247  20858571.285    20858571.261    20858585.074
       233.000         190.000
 -13985765.56149 -10874174.75747  19451058.422    19451057.456    19451069.853
       238.000         200.000
  -5298326.21049  -4113578.63747  19668998.276    19668997.609    19669009.431
       235.000         195.000
 -20033479.03949 -15599058.34347  18383436.542    18383436.343    18383446.598
       237.000         206.000
  -7307089.36549  -4588934.09945  22706759.975    22706760.008    22706777.186
       219.000         158.000
   -480028.69349   -357342.83645  22074612.046    22074612.153    22074632.636
       215.000         153.000
  -4442560.59949  -3440086.94745  22988429.830    22988429.899    22988452.387
       208.000         151.000
 -30568311.69749 -23783411.81547  19343005.346    19343005.804    19343016.060
       239.000         200.000
 01 11 12 18 29 29.9930000  0  8G27G22G20G 1G 4G 3G 8G13
 -21869496.36849 -16728746.32647  20839263.837    20839263.825    20839277.525
       232.000         189.000
 -13955635.44149 -10850696.85547  19456792.079    19456791.119    19456803.555
       238.000         199.000
  -5251229.16349  -4076879.77547  19677960.670    19677959.977    19677971.819
       238.000         194.000
 -20080409.20049 -15635627.30347  18374506.075    18374505.861    18374516.074
       237.000         207.000
  -7307903.92049  -4589568.96345  22706605.124    22706605.141    22706622.351
       215.000         156.000
   -587296.15749   -440927.69045  22054199.730    22054199.779    22054220.346
       215.000         155.000
  -4571561.95649  -3540607.19145  22963881.498    22963881.606    22963904.110
       210.000         152.000
 -30669677.33649 -23862397.98747  19323716.056    19323716.519    19323726.751
       239.000         200.000
 01 11 12 18 29 59.9920000  0  8G27G22G20G 1G 4G 3G 8G13
 -21970851.42549 -16807724.17447  20819976.531    20819976.557    20819990.187
       232.000         189.000
 -13925078.43949 -10826886.32847  19462606.827    19462606.001    19462618.477
       235.000         198.000
  -5203827.85949  -4039943.83447  19686980.963    19686980.246    19686992.119
       236.000         194.000
 -20127094.48249 -15672005.45147  18365622.174    18365621.940    18365632.180
       237.000         206.000
  -7308420.27449  -4589971.48845  22706507.040    22706506.978    22706524.318
       217.000         158.000
   -694423.88749   -524403.58945  22033813.961    22033813.906    22033834.390
       213.000         153.000
  -4700521.73249  -3641095.04345  22939341.223    22939341.243    22939363.582
       212.000         151.000
 -30770914.00349 -23941283.66247  19304451.313    19304451.790    19304462.015
       238.000         200.000
 01 11 12 18 30 29.9920000  0  8G27G22G20G 1G 4G 3G 8G13
 -22072095.83849 -16886615.81847  20800710.293    20800710.320    20800723.919
       233.000         190.000
 -13894083.58149 -10802734.60047  19468505.161    19468504.222    19468516.724
       237.000         198.000
  -5156110.42749  -4002761.56747  19696061.447    19696060.701    19696072.575
       236.000         194.000
 -20173525.23749 -15708185.26747  18356786.710    18356786.480    18356796.691
       236.000         206.000
  -7308629.32049  -4590134.54145  22706467.441    22706467.312    22706484.758
       217.000         158.000
   -801404.30449   -607764.74445  22013456.355    22013456.257    22013476.499
       217.000         151.000
  -4829436.60449  -3741547.91945  22914809.337    22914809.423    22914831.516
       214.000         149.000
 -30872015.34249 -24020063.88547  19285212.290    19285212.807    19285223.027
       239.000         200.000
 01 11 12 18 30 59.9920000  0  8G27G22G20G 1G 4G 3G 8G13
 -22173235.09049 -16965425.51247  20781464.092    20781464.115    20781477.676
       233.000         190.000
 -13862663.62449 -10778251.65247  19474484.280    19474483.345    19474495.880
       236.000         199.000
  -5108090.19249  -3965343.34247  19705199.501    19705198.764    19705210.639
       235.000         194.000
 -20219707.83849 -15744171.72247  18347998.449    18347998.238    18348008.444
       237.000         206.000
  -7308542.30149  -4590066.90045  22706484.128    22706483.979    22706501.443
       217.000         156.000
   -908239.92849   -691013.08845  21993126.045    21993126.002    21993146.334
       214.000         153.000
  -4958310.79449  -3841969.10745  22890285.199    22890285.326    22890307.177
       211.000         145.000
 -30972985.48949 -24098741.88247  19265998.242    19265998.781    19266008.987
       239.000         200.000
 01 11 12 18 31 29.9920000  0  8G27G22G20G 1G 4G 3G 8G13
 -22274266.91949 -17044151.49447  20762238.243    20762238.322    20762251.885
       232.000         190.000
 -13830818.71349 -10753437.56447  19480544.261    19480543.332    19480555.922
       236.000         200.000
  -5059766.89249  -3927688.97947  19714395.143    19714394.466    19714406.392
       236.000         193.000
 -20265638.58249 -15779961.92947  18339258.152    18339257.929    18339268.107
       237.000         206.000
  -7308159.21749  -4589768.54445  22706557.179    22706557.002    22706574.538
       216.000         155.000
  -1014925.14749   -774144.17845  21972824.335    21972824.374    21972844.770
       216.000         157.000
  -5087141.28649  -3942356.31245  22865769.158    22865769.406    22865791.280
       208.000         143.000
 -31073820.28349 -24177314.40947  19246810.011    19246810.535    19246820.705
       240.000         201.000
 01 11 12 18 31 59.9920000  0  8G27G22G20G 1G 4G 3G 8G13
 -22375182.63449 -17122786.99047  20743034.544    20743034.630    20743048.180
       233.000         190.000
 -13798542.56349 -10728287.44547  19486686.315    19486685.378    19486698.025
       235.000         198.000
  -5011134.43549  -3889793.70747  19723649.708    19723649.008    19723660.990
       236.000         192.000
 -20311307.08349 -15815547.79447  18330567.725    18330567.502    18330577.699
       237.000         206.000
  -7307473.05249  -4589234.05945  22706687.858    22706687.706    22706705.343
       216.000         153.000
  -1121448.12949   -857148.93945  21952553.605    21952553.700    21952574.023
       216.000         152.000
  -5215918.59549  -4042702.10645  22841263.376    22841263.619    22841285.527
       208.000         146.000
 -31174509.24949 -24255773.31047  19227649.540    19227650.043    19227660.180
       240.000         202.000
 01 11 12 18 32 29.9920000  0  8G27G22G20G 1G 4G 3G 8G13
 -22475985.11649 -17201334.27647  20723852.396    20723852.495    20723865.986
       233.000         190.000
 -13765840.47449 -10702805.43347  19492909.337    19492908.456    19492921.157
       236.000         198.000
  -4962198.06749  -3851661.61347  19732962.077    19732961.384    19732973.401
       235.000         193.000
 -20356715.04449 -15850930.64047  18321926.907    18321926.685    18321936.852
       237.000         206.000
  -7306489.17849  -4588467.58345  22706875.406    22706875.126    22706892.646
       212.000         150.000
  -1227808.70649   -940027.14545  21932313.789    21932313.894    21932334.157
       217.000         155.000
  -5344645.20749  -4143008.44745  22816767.359    22816767.569    22816789.434
       210.000         145.000
 -31275053.39149 -24334119.35747  19208516.596    19208517.109    19208527.250
       240.000         202.000
 01 11 12 18 32 59.9920000  0  8G27G22G20G 1G 4G 3G 8G13
 -22576677.09949 -17279795.44847  20704691.316    20704691.385    20704704.829
       233.000         191.000
 -13732717.85049 -10676995.73647  19499212.487    19499211.565    19499224.304
       231.000         198.000
  -4912963.12649  -3813296.87647  19742331.319    19742330.595    19742342.625
       235.000         193.000
 -20401864.04449 -15886111.69647  18313335.333    18313335.131    18313345.298
       238.000         207.000
  -7305212.73049  -4587473.15045  22707118.202    22707118.056    22707135.712
       212.000         150.000
  -1334006.59849  -1022778.56945  21912104.799    21912105.022    21912125.207
       214.000         151.000
  -5473323.20949  -4243276.94445  22792280.533    22792280.673    22792302.686
       210.000         145.000
 -31375454.03449 -24412353.60147  19189411.011    19189411.492    19189421.604
       240.000         202.000
 01 11 12 18 33 29.9920000  0  8G27G22G20G 1G 4G 3G 8G13
 -22677267.21949 -17358177.26247  20685549.538    20685549.645    20685563.063
       233.000         192.000
 -13699186.14749 -10650867.29847  19505593.424    19505592.517    19505605.317
       234.000         198.000
  -4863441.19249  -3774708.51047  19751755.208    19751754.431    19751766.505
       236.000         193.000
 -20446761.63649 -15921096.85447  18304791.641    18304791.427    18304801.587
       237.000         206.000
  -7303654.65449  -4586259.22945  22707414.806    22707414.662    22707432.343
       211.000         146.000
  -1440047.35249  -1105407.57645  21891925.830    21891926.038    21891946.184
       213.000         154.000
  -5601960.99049  -4343514.15745  22767801.625    22767801.683    22767823.535
       214.000         149.000
 -31475718.38049 -24490481.63747  19170331.333    19170331.802    19170341.908
       240.000         202.000
 01 11 12 18 33 59.9920000  0  8G27G22G20G 1G 4G 3G 8G13
 -22777741.85349 -17436469.08847  20666429.763    20666429.880    20666443.273
       233.000         192.000
 -13665233.94349 -10624411.19747  19512054.340    19512053.487    19512066.337
       233.000         198.000
  -4813620.70349  -3735887.48747  19761235.862    19761235.068    19761247.176
       234.000         193.000
 -20491392.69549 -15955874.32747  18296298.653    18296298.425    18296308.613
       237.000         207.000
  -7301803.37849  -4584816.87345  22707767.093    22707767.019    22707784.817
       212.000         146.000
  -1545913.95249  -1187900.85745  21871779.745    21871780.018    21871800.399
       213.000         152.000
  -5730544.10149  -4443708.77045  22743333.227    22743333.102    22743354.785
       214.000         154.000
 -31575830.47049 -24568491.02647  19151280.630    19151281.086    19151291.175
       240.000         203.000
 01 11 12 18 34 29.9920000  0  8G27G22G20G 1G 4G 3G 8G13
 -22878102.70449 -17514672.25947  20647331.632    20647331.770    20647345.163
       233.000         193.000
 -13630865.63149 -10597630.84447  19518594.527    19518593.649    19518606.508
       234.000         196.000
  -4763505.99649  -3696837.21847  19770772.465    19770771.672    19770783.812
       235.000         192.000
 -20535757.58149 -15990444.39247  18287856.299    18287856.090    18287866.279
       237.000         206.000
  -7299662.78849  -4583149.10245  22708174.693    22708174.581    22708192.338
       213.000         149.000
  -1651604.98149  -1270257.30045  21851667.218    21851667.528    21851687.965
       211.000         150.000
  -5859073.64449  -4543861.67545  22718874.779    22718874.688    22718896.315
       215.000         154.000
 -31675790.27849 -24646381.75547  19132258.897    19132259.350    19132269.433
       239.000         202.000
 01 11 12 18 34 59.9920000  0  8G27G22G20G 1G 4G 3G 8G13
 -22978358.91249 -17592793.88847  20628253.462    20628253.586    20628266.962
       233.000         193.000
 -13596092.88949 -10570535.34747  19525211.689    19525210.773    19525223.694
       235.000         198.000
  -4713108.76749  -3657566.79847  19780362.839    19780362.066    19780374.209
       235.000         192.000
 -20579864.21949 -16024813.22647  18279463.137    18279462.903    18279473.080
       237.000         206.000
  -7297244.32349  -4581264.80745  22708635.089    22708634.989    22708652.793
       208.000         147.000
  -1757126.36949  -1352481.62445  21831587.000    21831587.324    21831607.845
       214.000         152.000
  -5987558.12649  -4643979.49645  22694424.913    22694424.804    22694446.420
       211.000         152.000
 -31775605.19949 -24724159.58647  19113264.761    19113265.181    19113275.250
       240.000         202.000
 01 11 12 18 35 29.9920000  0  8G27G22G20G 1G 4G 3G 8G13
 -23078505.96849 -17670830.47647  20609196.076    20609196.174    20609209.519
       233.000         193.000
 -13560913.77749 -10543123.22547  19531906.145    19531905.238    19531918.220
       233.000         198.000
  -4662426.99649  -3618074.66547  19790007.385    19790006.593    19790018.768
       235.000         192.000
 -20623706.68049 -16058976.20147  18271120.255    18271119.969    18271130.160
       237.000         206.000
  -7294545.65149  -4579162.15645  22709148.782    22709148.668    22709166.552
       209.000         147.000
  -1862470.84249  -1434568.06645  21811540.632    21811540.874    21811561.325
       214.000         149.000
  -6115992.69349  -4744058.43545  22669984.431    22669984.428    22670005.965
       212.000         148.000
 -31875269.32649 -24801819.91847  19094299.261    19094299.710    19094309.760
       240.000         202.000
 01 11 12 18 35 59.9920000  0  8G27G22G20G 1G 4G 3G 8G13
 -23178551.44949 -17748787.92547  20590157.947    20590158.059    20590171.425
       233.000         194.000
 -13525338.35249 -10515402.29247  19538676.048    19538675.112    19538688.181
       234.000         199.000
  -4611470.85949  -3578368.75447  19799704.089    19799703.321    19799715.532
       235.000         191.000
 -20667291.29849 -16092938.26547  18262826.404    18262826.120    18262836.304
       237.000         206.000
  -7291576.66949  -4576848.86645  22709713.917    22709713.770    22709731.768
       204.000         145.000
  -1967642.62149  -1516519.90845  21791526.964    21791527.156    21791547.667
       214.000         150.000
  -6244384.09049  -4844103.74745  22645552.444    22645552.355    22645573.733
       214.000         148.000
 -31974788.23649 -24879367.09247  19075361.418    19075361.863    19075371.924
       240.000         202.000
 01 11 12 18 36 29.9920000  0  8G27G22G20G 1G 4G 3G 8G13
 -23278489.68649 -17826661.82047  20571140.288    20571140.389    20571153.748
       234.000         194.000
 -13489363.80149 -10487370.33547  19545521.907    19545520.966    19545534.071
       236.000         199.000
  -4560237.31049  -3538446.67347  19809453.605    19809452.864    19809465.115
       234.000         191.000
 -20710611.35249 -16126694.17347  18254582.852    18254582.611    18254592.793
       237.000         205.000
  -7288334.09949  -4574322.38045  22710330.863    22710330.787    22710348.901
       199.000         137.000
  -2072632.91949  -1598330.34845  21771547.695    21771548.015    21771568.638
       210.000         150.000
  -6372726.27049  -4944110.67945  22621129.710    22621129.587    22621150.825
       208.000         147.000
 -32074154.76849 -24956795.52647  19056452.534    19056453.009    19056463.102
       240.000         202.000
 01 11 12 18 36 59.9920000  0  8G27G22G20G 1G 4G 3G 8G13
 -23378309.47949 -17904443.41547  20552145.239    20552145.288    20552158.575
       233.000         192.000
 -13452981.29549 -10459020.50047  19552445.395    19552444.455    19552457.646
       233.000         198.000
  -4508717.69449  -3498301.68847  19819257.663    19819256.859    19819269.124
       235.000         192.000
 -20753654.06949 -16160233.97747  18246392.110    18246391.868    18246402.051
       237.000         205.000
  -7284808.90749  -4571575.68045  22711001.945    22711001.718    22711019.908
       201.000         138.000
  -2177427.22249  -1679988.08645  21751606.034    21751606.249    21751626.741
       213.000         150.000
  -6501007.38449  -5044070.01645  22596718.763    22596718.558    22596739.754
       210.000         147.000
 -32173355.77849 -25034094.96747  19037575.200    19037575.664    19037585.777
       240.000         202.000
 01 11 12 18 37 29.9920000  0  8G27G22G20G 1G 4G 3G 8G13
 -23478014.16149 -17982135.31647  20533171.968    20533172.045    20533185.270
       233.000         192.000
 -13416196.87749 -10430357.47747  19559445.356    19559444.414    19559457.652
       234.000         197.000
  -4456917.94149  -3457938.41647  19829115.012    19829114.182    19829126.477
       235.000         193.000
 -20796421.57249 -16193559.32247  18238253.775    18238253.506    18238263.683
       237.000         206.000
  -7281006.84849  -4568613.25145  22711725.559    22711725.411    22711743.650
       196.000         137.000
  -2282026.11649  -1761493.54445  21731701.385    21731701.536    21731722.110
       212.000         151.000
  -6629230.00749  -5143983.75045  22572318.958    22572318.627    22572339.779
       210.000         148.000
 -32272392.82249 -25111266.65147  19018729.059    19018729.516    19018739.608
       239.000         202.000
 01 11 12 18 37 59.9920000  0  8G27G22G20G 1G 4G 3G 8G13
 -23577599.14049 -18059733.92247  20514221.526    20514221.595    20514234.784
       234.000         194.000
 -13379008.56949 -10401379.74947  19566522.183    19566521.233    19566534.518
       235.000         196.000
  -4404835.94449  -3417355.22047  19839026.089    19839025.210    19839037.548
       234.000         192.000
 -20838908.11949 -16226665.74047  18230168.835    18230168.605    18230178.780
       237.000         206.000
  -7276925.57749  -4565433.23445  22712502.395    22712502.324    22712520.351
       200.000         139.000
  -2386421.91449  -1842840.77245  21711835.239    21711835.502    21711856.131
       214.000         153.000
  -6757389.36549  -5243848.16445  22547931.156    22547930.790    22547951.778
       214.000         146.000
 -32371259.33849 -25188305.45347  18999915.380    18999915.819    18999925.909
       240.000         202.000
 01 11 12 18 38 29.9920000  0  8G27G22G20G 1G 4G 3G 8G13
 -23677068.79249 -18137242.67647  20495292.993    20495293.075    20495306.279
       233.000         194.000
 -13341423.39649 -10372092.74647  19573674.532    19573673.571    19573686.897
       234.000         196.000
  -4352478.84349  -3376557.65647  19848989.417    19848988.579    19849000.962
       235.000         192.000
 -20881116.68249 -16259555.55447  18222136.852    18222136.615    18222146.785
       237.000         206.000
  -7272571.77649  -4562040.89245  22713331.114    22713331.019    22713349.112
       199.000         138.000
  -2490615.69549  -1924030.57345  21692007.784    21692008.014    21692028.529
       215.000         151.000
  -6885489.10349  -5343666.09745  22523554.654    22523554.236    22523575.108
       209.000         146.000
 -32469957.88649 -25265213.36547  18981133.642    18981134.077    18981144.156
       240.000         201.000
 01 11 12 18 38 59.9920000  0  8G27G22G20G 1G 4G 3G 8G13
 -23776428.05749 -18214665.41947  20476385.508    20476385.578    20476398.758
       232.000         194.000
 -13303448.92249 -10342502.40247  19580900.977    19580900.004    19580913.364
       232.000         196.000
  -4299854.04549  -3335551.49547  19859003.708    19859002.857    19859015.316
       236.000         191.000
 -20923050.89849 -16292231.58047  18214157.054    18214156.814    18214167.010
       237.000         206.000
  -7267952.78349  -4558441.87245  22714210.207    22714210.124    22714228.364
       198.000         138.000
  -2594609.50449  -2005064.58945  21672218.292    21672218.648    21672238.950
       213.000         147.000
  -7013533.45749  -5443440.84245  22499188.309    22499188.082    22499209.086
       209.000         147.000
 -32568492.09349 -25341993.21447  18962383.134    18962383.603    18962393.646
       240.000         202.000
 01 11 12 18 39 29.9920000  0  8G27G22G20G 1G 4G 3G 8G13
 -23875672.31149 -18291998.54147  20457499.850    20457499.942    20457513.143
       233.000         194.000
 -13265083.15849 -10312607.15347  19588201.914    19588200.899    19588214.255
       231.000         196.000
  -4246959.51649  -3294335.16447  19869069.305    19869068.459    19869080.984
       234.000         191.000
 -20964704.93849 -16324689.29447  18206230.584    18206230.349    18206240.563
       237.000         207.000
  -7263066.40149  -4554634.50445  22715140.294    22715140.166    22715158.334
       203.000         139.000
  -2698395.68249  -2085936.78345  21652468.308    21652468.652    21652488.855
       213.000         149.000
  -7141517.44749  -5543168.48845  22474833.760    22474833.463    22474854.470
       213.000         150.000
 -32666854.92949 -25418639.52647  18943665.291    18943665.756    18943675.769
       241.000         202.000
 01 11 12 18 39 59.9920000  0  8G27G22G20G 1G 4G 3G 8G13
 -23974802.83649 -18369243.04347  20438635.843    20438635.966    20438649.198
       233.000         195.000
 -13226330.09549 -10282410.12847  19595576.521    19595575.498    19595588.874
       232.000         196.000
  -4193799.06949  -3252911.61347  19879185.524    19879184.692    19879197.236
       232.000         191.000
 -21006078.75249 -16356928.65247  18198357.420    18198357.193    18198367.439
       236.000         207.000
  -7257916.25349  -4550621.64645  22716120.554    22716120.385    22716138.436
       207.000         144.000
  -2801972.22849  -2166645.64145  21632758.253    21632758.608    21632778.758
       212.000         153.000
  -7269441.66749  -5642849.51945  22450490.640    22450490.242    22450511.217
       212.000         151.000
 -32765046.25349 -25495152.19347  18924980.113    18924980.551    18924990.516
       241.000         202.000
 01 11 12 18 40 29.9920000  0  8G27G22G20G 1G 4G 3G 8G13
 -24073812.79149 -18446393.58447  20419794.866    20419794.948    20419808.155
       234.000         194.000
 -13187185.48249 -10251908.00547  19603025.639    19603024.616    19603038.015
       234.000         195.000
  -4140368.52349  -3211277.61147  19889353.228    19889352.340    19889364.896
       235.000         190.000
 -21047164.22449 -16388943.32947  18190539.124    18190538.909    18190549.160
       237.000         207.000
  -7252497.62849  -4546399.59745  22717151.886    22717151.742    22717169.783
       206.000         146.000
  -2905329.34949  -2247183.54745  21613089.744    21613090.233    21613110.488
       213.000         154.000
  -7397299.00849  -5742478.39845  22426160.132    22426159.718    22426180.664
       215.000         150.000
 -32863057.58049 -25571524.60247  18906329.151    18906329.590    18906339.526
       241.000         202.000
 01 11 12 18 40 59.9920000  0  8G27G22G20G 1G 4G 3G 8G13
 -24172717.48949 -18523462.10447  20400973.886    20400973.962    20400987.133
       234.000         193.000
 -13147667.30849 -10221114.80647  19610545.795    19610544.789    19610558.227
       233.000         194.000
  -4086685.83049  -3169447.12147  19899568.933    19899567.991    19899580.540
       235.000         190.000
 -21087975.46549 -16420744.31747  18182773.049    18182772.799    18182783.084
       237.000         207.000
  -7246828.43349  -4541982.30545  22718230.849    22718230.656    22718248.781
       208.000         145.000
  -3008478.88749  -2327559.67245  21593461.041    21593461.451    21593481.662
       215.000         158.000
  -7525103.96749  -5842066.40645  22401839.679    22401839.229    22401859.990
       218.000         152.000
 -32960902.05749 -25647767.00447  18887710.009    18887710.400    18887720.295
       242.000         203.000
 01 11 12 18 41 29.9920000  0  8G27G22G20G 1G 4G 3G 8G13
 -24271508.17349 -18600441.78047  20382174.559    20382174.663    20382187.794
       234.000         193.000
 -13107769.44449 -10190025.71947  19618138.246    19618137.224    19618150.666
       233.000         194.000
  -4032744.78649  -3127415.32347  19909833.757    19909832.788    19909845.354
       233.000         190.000
 -21128502.67849 -16452323.98747  18175060.959    18175060.732    18175071.036
       237.000         207.000
  -7240902.17149  -4537364.67245  22719359.055    22719358.709    22719376.691
       210.000         149.000
  -3111409.20249  -2407764.94745  21573873.916    21573874.334    21573894.635
       212.000         156.000
  -7652847.52149  -5941606.51745  22377530.787    22377530.389    22377551.100
       213.000         156.000
 -33058568.90749 -25723870.99247  18869124.602    18869124.987    18869134.879
       241.000         203.000
 01 11 12 18 41 59.9920000  0  8G27G22G20G 1G 4G 3G 8G13
 -24370187.48249 -18677334.66647  20363396.450    20363396.549    20363409.667
       234.000         194.000
 -13067497.20949 -10158644.92947  19625801.898    19625800.912    19625814.350
       233.000         195.000
  -3978550.81749  -3085186.44147  19920146.668    19920145.692    19920158.325
       233.000         190.000
 -21168747.12549 -16483683.31647  18167402.746    18167402.495    18167412.813
       237.000         207.000
  -7234723.86949  -4532550.66745  22720534.986    22720534.622    22720552.648
       209.000         151.000
  -3214119.83749  -2487799.02945  21554328.663    21554329.020    21554349.264
       216.000         153.000
  -7780531.74949  -6041100.38645  22353233.048    22353232.818    22353253.616
       215.000         157.000
 -33156059.41449 -25799837.57447  18850572.636    18850573.100    18850583.009
       241.000         203.000
 01 11 12 18 42 29.9920000  0  8G27G22G20G 1G 4G 3G 8G13
 -24468747.35849 -18754134.49347  20344641.079    20344641.155    20344654.282
       236.000         194.000
 -13026845.19349 -10126968.19747  19633537.841    19633536.846    19633550.326
       231.000         195.000
  -3924098.34749  -3042756.14047  19930508.748    19930507.780    19930520.486
       233.000         189.000
 -21208699.31149 -16514814.91547  18159800.125    18159799.873    18159810.199
       237.000         207.000
  -7228287.94249  -4527535.91545  22721759.848    22721759.520    22721777.603
       210.000         148.000
  -3316599.82549  -2567653.42545  21534827.377    21534827.625    21534847.759
       214.000         155.000
  -7908148.05249  -6140541.30545  22328948.344    22328948.168    22328969.028
       215.000         158.000
 -33253363.54649 -25875658.92947  18832056.251    18832056.712    18832066.616
       242.000         203.000
 01 11 12 18 42 59.9920000  0  8G27G22G20G 1G 4G 3G 8G13
 -24567192.08549 -18830844.59647  20325907.666    20325907.721    20325920.793
       236.000         194.000
 -12985820.36349 -10095000.98147  19641344.708    19641343.750    19641357.262
       234.000         194.000
  -3869394.42149  -3000129.88747  19940918.644    19940917.718    19940930.482
       232.000         189.000
 -21248362.33049 -16545721.18847  18152252.552    18152252.273    18152262.594
       237.000         207.000
  -7221601.08349  -4522325.63145  22723032.441    22723032.078    22723050.262
       212.000         148.000
  -3418850.27949  -2647328.89045  21515369.844    21515369.914    21515389.980
       217.000         160.000
  -8035700.09249  -6239932.17545  22304675.830    22304675.708    22304696.568
       217.000         158.000
 -33350483.72149 -25951336.94347  18813574.842    18813575.323    18813585.226
       241.000         203.000
 01 11 12 18 43 29.9920000  0  8G27G22G20G 1G 4G 3G 8G13
 -24665507.53449 -18907453.96347  20307198.856    20307198.869    20307211.935
       236.000         195.000
 -12944411.10349 -10062734.21247  19649224.742    19649223.780    19649237.337
       233.000         194.000
  -3814427.43749  -2957298.66547  19951378.679    19951377.729    19951390.568
       234.000         189.000
 -21287720.76549 -16576390.12447  18144762.912    18144762.651    18144772.954
       237.000         207.000
  -7214651.43349  -4516910.55545  22724355.053    22724354.695    22724373.002
       215.000         148.000
  -3520853.78449  -2726811.90645  21495959.175    21495959.279    21495979.278
       216.000         162.000
  -8163173.30649  -6339261.62045  22280418.280    22280418.213    22280439.072
       216.000         158.000
 -33447403.66849 -26026858.93347  18795131.566    18795132.039    18795141.948
       242.000         203.000
 01 11 12 18 43 59.9920000  0  8G27G22G20G 1G 4G 3G 8G13
 -24763730.86649 -18983991.55647  20288507.526    20288507.547    20288520.602
       235.000         195.000
 -12902657.36049 -10030199.01647  19657170.372    19657169.365    19657183.007
       232.000         194.000
  -3759237.03049  -2914293.35547  19961881.267    19961880.268    19961893.173
       232.000         189.000
 -21326810.52149 -16606849.70347  18137324.373    18137324.140    18137334.440
       237.000         207.000
  -7207478.49049  -4511321.49945  22725720.231    22725719.893    22725738.085
       215.000         148.000
  -3622644.63949  -2806129.23845  21476588.828    21476588.967    21476608.974
       216.000         158.000
  -8290604.21149  -6438558.07245  22256168.763    22256168.746    22256189.587
       215.000         158.000
 -33544158.81149 -26102252.50547  18776719.683    18776720.122    18776730.036
       241.000         203.000
 01 11 12 18 44 29.9920000  0  8G27G22G20G 1G 4G 3G 8G13
 -24861839.97149 -19060440.14147  20269837.915    20269837.940    20269850.963
       235.000         194.000
 -12860539.69749  -9997380.24347  19665185.242    19665184.222    19665197.895
       234.000         194.000
  -3703803.86149  -2871098.86247  19972430.040    19972428.998    19972441.927
       233.000         188.000
 -21365608.18549 -16637081.68047  18129941.453    18129941.198    18129951.493
       237.000         206.000
  -7200062.69049  -4505543.21245  22727131.495    22727131.183    22727149.503
       214.000         146.000
  -3724197.72649  -2885261.28245  21457263.857    21457263.969    21457283.892
       217.000         160.000
  -8417970.26949  -6537804.03445  22231931.283    22231931.479    22231952.345
       215.000         153.000
 -33640725.26449 -26177499.04347  18758343.652    18758344.095    18758354.005
       241.000         203.000
 01 11 12 18 44 59.9920000  0  8G27G22G20G 1G 4G 3G 8G13
 -24959840.85549 -19136804.39647  20251188.902    20251188.940    20251201.925
       236.000         195.000
 -12818066.72949  -9964284.61547  19673267.768    19673266.704    19673280.405
       232.000         193.000
  -3648136.39049  -2827721.80747  19983023.269    19983022.306    19983035.273
       232.000         188.000
 -21404118.50449 -16667089.75547  18122613.200    18122612.948    18122623.244
       237.000         206.000
  -7192412.18149  -4499582.03345  22728587.430    22728587.237    22728605.620
       214.000         145.000
  -3825515.92149  -2964210.28645  21437983.412    21437983.617    21438003.475
       217.000         160.000
  -8545276.98249  -6637003.77045  22207705.271    22207705.549    22207726.343
       219.000         152.000
 -33737107.04349 -26252601.68947  18740002.795    18740003.238    18740013.130
       241.000         203.000
 01 11 12 18 45 29.9920000  0  8G27G22G20G 1G 4G 3G 8G13
 -25057730.58649 -19213082.04247  20232561.109    20232561.113    20232574.087
       236.000         195.000
 -12775238.17249  -9930911.89947  19681417.898    19681416.819    19681430.583
       229.000         191.000
  -3592234.44349  -2784162.04846  19993661.169    19993660.230    19993673.215
       233.000         187.000
 -21442337.26049 -16696870.63947  18115340.411    18115340.163    18115350.496
       236.000         206.000
  -7184526.66749  -4493437.71945  22730088.099    22730087.945    22730106.399
       214.000         140.000
  -3926593.26349  -3042971.61046  21418748.698    21418749.006    21418768.851
       220.000         163.000
  -8672520.88349  -6736154.53645  22183491.384    22183491.634    22183512.351
       217.000         151.000
 -33833299.20149 -26327556.58547  18721698.038    18721698.462    18721708.320
       240.000         203.000
 01 11 12 18 45 59.9920000  0  8G27G22G20G 1G 4G 3G 8G13
 -25155518.65849 -19289280.48647  20213952.582    20213952.605    20213965.565
       235.000         195.000
 -12732066.26349  -9897271.64247  19689633.379    19689632.295    19689646.086
       230.000         190.000
  -3536110.13749  -2740429.01946  20004341.406    20004340.476    20004353.490
       232.000         187.000
 -21480272.79449 -16726430.82847  18108121.536    18108121.294    18108131.637
       236.000         206.000
  -7176418.14149  -4487119.64845  22731631.314    22731631.187    22731649.669
       214.000         140.000
  -4027436.15249  -3121550.23845  21399558.739    21399559.090    21399578.837
       218.000         161.000
  -8799710.98749  -6835263.38945  22159287.787    22159288.024    22159308.625
       216.000         146.000
 -33929309.86049 -26402370.05147  18703427.759    18703428.215    18703438.037
       241.000         203.000
 01 11 12 18 46 29.9920000  0  8G27G22G20G 1G 4G 3G 8G13
 -25253184.86749 -19365383.97747  20195367.249    20195367.295    20195380.261
       235.000         195.000
 -12688533.34649  -9863350.07747  19697917.582    19697916.472    19697930.296
       230.000         190.000
  -3479745.85249  -2696509.01246  20015067.339    20015066.399    20015079.427
       232.000         187.000
 -21517903.54849 -16755753.53247  18100960.602    18100960.419    18100970.762
       237.000         206.000
  -7168068.41449  -4480613.64345  22733220.346    22733220.166    22733238.877
       211.000         134.000
  -4128021.26049  -3199928.03445  21380417.819    21380418.173    21380437.927
       220.000         162.000
  -8926826.44649  -6934314.03345  22135098.334    22135098.553    22135118.931
       214.000         137.000
 -34025116.29849 -26477024.38947  18685196.397    18685196.834    18685206.627
       241.000         204.000
 01 11 12 18 46 59.9920000  0  8G27G22G20G 1G 4G 3G 8G13
 -25350721.24649 -19441386.29247  20176806.637    20176806.690    20176819.635
       235.000         194.000
 -12644634.40349  -9829143.29847  19706271.430    19706270.324    19706284.180
       230.000         190.000
  -3423136.35149  -2652397.91546  20025839.972    20025838.987    20025852.061
       233.000         187.000
 -21555220.52049 -16784831.72747  18093859.455    18093859.249    18093869.594
       237.000         206.000
  -7159472.36249  -4473915.68744  22734856.402    22734856.177    22734874.565
       212.000         130.000
  -4228337.51149  -3278096.30346  21361328.047    21361328.485    21361348.242
       221.000         165.000
  -9053858.90149  -7033300.05744  22110924.557    22110924.775    22110944.924
       211.000         127.000
 -34120708.88649 -26551512.09547  18667005.695    18667006.135    18667015.909
       241.000         204.000
 01 11 12 18 47 29.9920000  0  8G27G22G20G 1G 4G 3G 8G13
 -25448149.16549 -19517304.10147  20158266.642    20158266.702    20158279.633
       234.000         194.000
 -12600393.34549  -9794669.90446  19714690.461    19714689.287    19714703.151
       227.000         187.000
  -3366305.63049  -2608114.44746  20036654.638    20036653.678    20036666.799
       232.000         186.000
 -21592243.90549 -16813681.15247  18086814.221    18086813.986    18086824.295
       237.000         206.000
  -7150653.63849  -4467044.18244  22736534.709    22736534.484    22736552.770
       207.000         131.000
  -4328403.31549  -3356069.46446  21342286.024    21342286.454    21342306.190
       220.000         168.000
  -9180829.21549  -7132237.72445  22086762.460    22086762.758    22086782.736
       209.000         132.000
 -34216107.20349 -26625848.41847  18648851.956    18648852.404    18648862.171
       241.000         204.000
 01 11 12 18 47 59.9920000  0  8G27G22G20G 1G 4G 3G 8G13
 -25545479.87349 -19593146.16147  20139745.208    20139745.257    20139758.124
       236.000         195.000
 -12555824.11849  -9759940.84647  19723171.749    19723170.651    19723184.559
       229.000         188.000
  -3309267.56249  -2563669.39246  20047508.764    20047507.829    20047521.014
       232.000         185.000
 -21628983.77349 -16842309.65947  18079822.901    18079822.648    18079832.959
       237.000         206.000
  -7141626.20949  -4460010.07145  22738252.717    22738252.535    22738271.189
       208.000         136.000
  -4428227.15449  -3433854.07846  21323290.109    21323290.493    21323310.206
       220.000         165.000
  -9307747.98749  -7231135.17144  22062610.378    22062610.613    22062630.844
       206.000         131.000
 -34311320.45349 -26700040.54047  18630733.463    18630733.906    18630743.660
       241.000         204.000
 01 11 12 18 48 29.9910000  0  8G27G22G20G 1G 4G 3G 8G13
 -25642682.27449 -19668888.23147  20121248.179    20121248.204    20121261.044
       235.000         194.000
 -12510903.09749  -9724937.58947  19731720.113    19731719.008    19731732.929
       229.000         189.000
  -3251998.74649  -2519044.54946  20058406.865    20058405.878    20058419.124
       232.000         185.000
 -21665409.58649 -16870693.44647  18072891.329    18072891.077    18072901.394
       237.000         206.000
  -7132364.61049  -4452793.49745  22740015.348    22740015.162    22740033.762
       210.000         136.000
  -4527774.71449  -3511423.44045  21304346.664    21304347.063    21304366.578
       220.000         162.000
  -9434582.93549  -7329967.31745  22038474.198    22038474.486    22038494.723
       206.000         135.000
 -34406315.73149 -26774062.81847  18612656.424    18612656.877    18612666.624
       241.000         204.000
 01 11 12 18 48 59.9910000  0  8G27G22G20G 1G 4G 3G 8G13
 -25739767.72149 -19744539.17247  20102773.332    20102773.379    20102786.194
       235.000         194.000
 -12465634.84849  -9689663.82247  19740334.486    19740333.402    19740347.379
       228.000         189.000
  -3194503.12549  -2474242.98146  20069348.047    20069347.104    20069360.362
       232.000         185.000
 -21701527.55549 -16898837.35647  18066018.313    18066018.066    18066028.400
       236.000         206.000
  -7122875.76349  -4445399.88345  22741821.209    22741821.024    22741839.863
       208.000         140.000
  -4627054.18749  -3588783.89946  21285454.328    21285454.701    21285474.070
       218.000         167.000
  -9561346.74949  -7428743.99945  22014351.775    22014352.009    22014372.375
       207.000         144.000
 -34501102.42349 -26847922.56747  18594619.135    18594619.547    18594629.313
       241.000         204.000
 01 11 12 18 49 29.9910000  0  8G27G22G20G 1G 4G 3G 8G13
 -25836757.02949 -19820115.19347  20084316.851    20084316.886    20084329.669
       234.000         195.000
 -12420047.66449  -9654141.52247  19749009.610    19749008.475    19749022.553
       229.000         188.000
  -3136809.26649  -2429286.93846  20080326.958    20080326.028    20080339.339
       231.000         184.000
 -21737359.36449 -16926758.28447  18059199.764    18059199.524    18059209.869
       237.000         206.000
  -7113186.63649  -4437850.14945  22743665.292    22743665.074    22743683.906
       211.000         144.000
  -4726083.58049  -3665949.48546  21266609.543    21266609.916    21266629.331
       220.000         165.000
  -9688058.70349  -7527480.24045  21990238.940    21990239.301    21990259.729
       210.000         149.000
 -34595699.34349 -26921634.43747  18576617.962    18576618.350    18576628.080
       239.000         204.000
 01 11 12 18 49 59.9910000  0  8G27G22G20G 1G 4G 3G 8G13
 -25933627.08249 -19895598.28947  20065883.060    20065883.090    20065895.868
       234.000         195.000
 -12374121.16049  -9618354.80447  19757749.284    19757748.153    19757762.299
       232.000         189.000
  -3078896.72849  -2384160.48646  20091347.521    20091346.580    20091359.866
       232.000         182.000
 -21772880.54249 -16954437.16147  18052440.327    18052440.102    18052450.441
       237.000         205.000
  -7103276.32749  -4430128.05745  22745551.477    22745551.194    22745570.043
       211.000         144.000
  -4824836.97149  -3742900.03246  21247817.208    21247817.630    21247836.892
       222.000         164.000
  -9814695.22449  -7626157.71545  21966140.598    21966140.897    21966161.398
       211.000         149.000
 -34690081.56349 -26995179.00147  18558657.602    18558657.991    18558667.726
       240.000         204.000
 01 11 12 18 50 29.9910000  0  8G27G22G20G 1G 4G 3G 8G13
 -26030390.07149 -19970997.96047  20047469.687    20047469.670    20047482.431
       235.000         195.000
 -12327870.21649  -9582315.27047  19766550.714    19766549.596    19766563.754
       230.000         190.000
  -3020780.20449  -2338875.09746  20102406.803    20102405.921    20102419.219
       231.000         182.000
 -21808102.08249 -16981882.55747  18045737.970    18045737.712    18045748.028
       237.000         206.000
  -7093159.59849  -4422245.12345  22747476.644    22747476.487    22747495.547
       210.000         146.000
  -4923323.55249  -3819642.64046  21229075.742    21229076.116    21229095.319
       221.000         164.000
  -9941268.06749  -7724785.57645  21942054.399    21942054.643    21942075.034
       215.000         152.000
 -34784259.23049 -27068564.17347  18540736.173    18540736.566    18540746.295
       239.000         204.000
 01 11 12 18 50 59.9910000  0  8G27G22G20G 1G 4G 3G 8G13
 -26127040.83949 -20046310.18347  20029077.657    20029077.616    20029090.348
       235.000         195.000
 -12281292.05449  -9546020.79547  19775414.331    19775413.237    19775427.432
       227.000         190.000
  -2962457.06049  -2293428.71546  20113505.408    20113504.560    20113517.918
       231.000         182.000
 -21843017.48949 -17009089.40547  18039093.848    18039093.564    18039103.885
       237.000         206.000
  -7082833.61949  -4414199.13745  22749441.701    22749441.576    22749460.891
       210.000         141.000
  -5021534.63349  -3896170.60045  21210386.629    21210387.016    21210406.117
       219.000         162.000
 -10067771.49449  -7823359.34245  21917981.481    21917981.655    21918001.892
       218.000         159.000
 -34878224.98249 -27141784.20647  18522855.012    18522855.437    18522865.175
       239.000         203.000
